<?xml version="1.0" encoding="UTF-8" standalone="no" ?>
<gpx xmlns="http://www.topografix.com/GPX/1/1" xmlns:xsi="http://www.w3.org/2001/XMLSchema-instance" xsi:schemaLocation="http://www.topografix.com/GPX/1/1 http://www.topografix.com/GPX/1/1/gpx.xsd" version="1.1" creator="VisuGPX - https://www.visugpx.com">
  <metadata>
    <name>Le Cousson par Chateauredon</name>
    <desc><![CDATA[Rando sportive, dénivelé important sur distance courte]]></desc>
  </metadata>
  <trk>
    <name><![CDATA[2017-12-23 15:47:54]]></name>
    <trkseg>
      <trkpt lat="44.01542" lon="6.21443">
        <ele>644.22</ele>
        <time>2017-12-23T07:59:31Z</time>
      </trkpt>
      <trkpt lat="44.01542" lon="6.21443">
        <ele>644.22</ele>
        <time>2017-12-23T07:59:32Z</time>
      </trkpt>
      <trkpt lat="44.01542" lon="6.21445">
        <ele>637.97</ele>
        <time>2017-12-23T07:59:57Z</time>
      </trkpt>
      <trkpt lat="44.01541" lon="6.21444">
        <ele>644.7</ele>
        <time>2017-12-23T07:59:59Z</time>
      </trkpt>
      <trkpt lat="44.01541" lon="6.21444">
        <ele>644.7</ele>
        <time>2017-12-23T08:00:00Z</time>
      </trkpt>
      <trkpt lat="44.01543" lon="6.2145">
        <ele>644.7</ele>
        <time>2017-12-23T08:00:27Z</time>
      </trkpt>
      <trkpt lat="44.01542" lon="6.21452">
        <ele>640.86</ele>
        <time>2017-12-23T08:00:35Z</time>
      </trkpt>
      <trkpt lat="44.01542" lon="6.21451">
        <ele>647.59</ele>
        <time>2017-12-23T08:00:36Z</time>
      </trkpt>
      <trkpt lat="44.01543" lon="6.21451">
        <ele>644.22</ele>
        <time>2017-12-23T08:00:37Z</time>
      </trkpt>
      <trkpt lat="44.01536" lon="6.21461">
        <ele>643.74</ele>
        <time>2017-12-23T08:01:03Z</time>
      </trkpt>
      <trkpt lat="44.01535" lon="6.21468">
        <ele>645.18</ele>
        <time>2017-12-23T08:01:11Z</time>
      </trkpt>
      <trkpt lat="44.01538" lon="6.21472">
        <ele>648.07</ele>
        <time>2017-12-23T08:01:16Z</time>
      </trkpt>
      <trkpt lat="44.01542" lon="6.21475">
        <ele>648.55</ele>
        <time>2017-12-23T08:01:20Z</time>
      </trkpt>
      <trkpt lat="44.01542" lon="6.21475">
        <ele>644.22</ele>
        <time>2017-12-23T08:01:21Z</time>
      </trkpt>
      <trkpt lat="44.01543" lon="6.21476">
        <ele>648.07</ele>
        <time>2017-12-23T08:01:22Z</time>
      </trkpt>
      <trkpt lat="44.01544" lon="6.21477">
        <ele>643.74</ele>
        <time>2017-12-23T08:01:23Z</time>
      </trkpt>
      <trkpt lat="44.01544" lon="6.21478">
        <ele>648.55</ele>
        <time>2017-12-23T08:01:24Z</time>
      </trkpt>
      <trkpt lat="44.01545" lon="6.2148">
        <ele>645.66</ele>
        <time>2017-12-23T08:01:25Z</time>
      </trkpt>
      <trkpt lat="44.01543" lon="6.21486">
        <ele>648.55</ele>
        <time>2017-12-23T08:01:34Z</time>
      </trkpt>
      <trkpt lat="44.0155" lon="6.21499">
        <ele>651.43</ele>
        <time>2017-12-23T08:01:54Z</time>
      </trkpt>
      <trkpt lat="44.01555" lon="6.21504">
        <ele>652.39</ele>
        <time>2017-12-23T08:02:02Z</time>
      </trkpt>
      <trkpt lat="44.01559" lon="6.21509">
        <ele>653.83</ele>
        <time>2017-12-23T08:02:09Z</time>
      </trkpt>
      <trkpt lat="44.01563" lon="6.21512">
        <ele>655.28</ele>
        <time>2017-12-23T08:02:18Z</time>
      </trkpt>
      <trkpt lat="44.01574" lon="6.21517">
        <ele>658.64</ele>
        <time>2017-12-23T08:02:31Z</time>
      </trkpt>
      <trkpt lat="44.01575" lon="6.21518">
        <ele>655.28</ele>
        <time>2017-12-23T08:02:33Z</time>
      </trkpt>
      <trkpt lat="44.01576" lon="6.21519">
        <ele>659.12</ele>
        <time>2017-12-23T08:02:34Z</time>
      </trkpt>
      <trkpt lat="44.01581" lon="6.21522">
        <ele>659.12</ele>
        <time>2017-12-23T08:02:41Z</time>
      </trkpt>
      <trkpt lat="44.01587" lon="6.21531">
        <ele>660.56</ele>
        <time>2017-12-23T08:02:51Z</time>
      </trkpt>
      <trkpt lat="44.01596" lon="6.2154">
        <ele>663.93</ele>
        <time>2017-12-23T08:03:04Z</time>
      </trkpt>
      <trkpt lat="44.01595" lon="6.21552">
        <ele>663.93</ele>
        <time>2017-12-23T08:03:24Z</time>
      </trkpt>
      <trkpt lat="44.01587" lon="6.2156">
        <ele>664.41</ele>
        <time>2017-12-23T08:03:32Z</time>
      </trkpt>
      <trkpt lat="44.01585" lon="6.21563">
        <ele>662.97</ele>
        <time>2017-12-23T08:03:34Z</time>
      </trkpt>
      <trkpt lat="44.01582" lon="6.21566">
        <ele>664.41</ele>
        <time>2017-12-23T08:03:37Z</time>
      </trkpt>
      <trkpt lat="44.01572" lon="6.21575">
        <ele>665.85</ele>
        <time>2017-12-23T08:03:52Z</time>
      </trkpt>
      <trkpt lat="44.01576" lon="6.21591">
        <ele>665.85</ele>
        <time>2017-12-23T08:04:15Z</time>
      </trkpt>
      <trkpt lat="44.01593" lon="6.21588">
        <ele>668.25</ele>
        <time>2017-12-23T08:04:34Z</time>
      </trkpt>
      <trkpt lat="44.01606" lon="6.21606">
        <ele>671.14</ele>
        <time>2017-12-23T08:04:53Z</time>
      </trkpt>
      <trkpt lat="44.01614" lon="6.21616">
        <ele>673.06</ele>
        <time>2017-12-23T08:05:06Z</time>
      </trkpt>
      <trkpt lat="44.01628" lon="6.2163">
        <ele>676.42</ele>
        <time>2017-12-23T08:05:29Z</time>
      </trkpt>
      <trkpt lat="44.01639" lon="6.21636">
        <ele>679.31</ele>
        <time>2017-12-23T08:05:42Z</time>
      </trkpt>
      <trkpt lat="44.0164" lon="6.21637">
        <ele>676.42</ele>
        <time>2017-12-23T08:05:44Z</time>
      </trkpt>
      <trkpt lat="44.01646" lon="6.21634">
        <ele>679.79</ele>
        <time>2017-12-23T08:05:54Z</time>
      </trkpt>
      <trkpt lat="44.01649" lon="6.21629">
        <ele>679.79</ele>
        <time>2017-12-23T08:06:00Z</time>
      </trkpt>
      <trkpt lat="44.01645" lon="6.21618">
        <ele>681.71</ele>
        <time>2017-12-23T08:06:20Z</time>
      </trkpt>
      <trkpt lat="44.01646" lon="6.21619">
        <ele>678.83</ele>
        <time>2017-12-23T08:06:22Z</time>
      </trkpt>
      <trkpt lat="44.01647" lon="6.21621">
        <ele>682.67</ele>
        <time>2017-12-23T08:06:23Z</time>
      </trkpt>
      <trkpt lat="44.01649" lon="6.21624">
        <ele>680.75</ele>
        <time>2017-12-23T08:06:25Z</time>
      </trkpt>
      <trkpt lat="44.0165" lon="6.21626">
        <ele>682.19</ele>
        <time>2017-12-23T08:06:27Z</time>
      </trkpt>
      <trkpt lat="44.01651" lon="6.21626">
        <ele>680.75</ele>
        <time>2017-12-23T08:06:29Z</time>
      </trkpt>
      <trkpt lat="44.0165" lon="6.21624">
        <ele>682.19</ele>
        <time>2017-12-23T08:06:32Z</time>
      </trkpt>
      <trkpt lat="44.01659" lon="6.21626">
        <ele>685.08</ele>
        <time>2017-12-23T08:06:45Z</time>
      </trkpt>
      <trkpt lat="44.0166" lon="6.21627">
        <ele>680.75</ele>
        <time>2017-12-23T08:06:46Z</time>
      </trkpt>
      <trkpt lat="44.01661" lon="6.21627">
        <ele>686.52</ele>
        <time>2017-12-23T08:06:47Z</time>
      </trkpt>
      <trkpt lat="44.01662" lon="6.21627">
        <ele>682.19</ele>
        <time>2017-12-23T08:06:48Z</time>
      </trkpt>
      <trkpt lat="44.01663" lon="6.21627">
        <ele>686.04</ele>
        <time>2017-12-23T08:06:49Z</time>
      </trkpt>
      <trkpt lat="44.01682" lon="6.21635">
        <ele>687.48</ele>
        <time>2017-12-23T08:07:12Z</time>
      </trkpt>
      <trkpt lat="44.01689" lon="6.21634">
        <ele>690.84</ele>
        <time>2017-12-23T08:07:22Z</time>
      </trkpt>
      <trkpt lat="44.01703" lon="6.21636">
        <ele>692.77</ele>
        <time>2017-12-23T08:07:45Z</time>
      </trkpt>
      <trkpt lat="44.01706" lon="6.21642">
        <ele>695.65</ele>
        <time>2017-12-23T08:07:54Z</time>
      </trkpt>
      <trkpt lat="44.01708" lon="6.21642">
        <ele>691.81</ele>
        <time>2017-12-23T08:07:56Z</time>
      </trkpt>
      <trkpt lat="44.01711" lon="6.21644">
        <ele>695.17</ele>
        <time>2017-12-23T08:07:59Z</time>
      </trkpt>
      <trkpt lat="44.01718" lon="6.21663">
        <ele>698.05</ele>
        <time>2017-12-23T08:08:17Z</time>
      </trkpt>
      <trkpt lat="44.01723" lon="6.21671">
        <ele>699.02</ele>
        <time>2017-12-23T08:08:27Z</time>
      </trkpt>
      <trkpt lat="44.0174" lon="6.21678">
        <ele>701.9</ele>
        <time>2017-12-23T08:08:45Z</time>
      </trkpt>
      <trkpt lat="44.01747" lon="6.21691">
        <ele>705.26</ele>
        <time>2017-12-23T08:09:04Z</time>
      </trkpt>
      <trkpt lat="44.01748" lon="6.21693">
        <ele>701.9</ele>
        <time>2017-12-23T08:09:06Z</time>
      </trkpt>
      <trkpt lat="44.01752" lon="6.217">
        <ele>705.26</ele>
        <time>2017-12-23T08:09:11Z</time>
      </trkpt>
      <trkpt lat="44.01752" lon="6.21703">
        <ele>703.82</ele>
        <time>2017-12-23T08:09:14Z</time>
      </trkpt>
      <trkpt lat="44.01752" lon="6.21706">
        <ele>705.75</ele>
        <time>2017-12-23T08:09:17Z</time>
      </trkpt>
      <trkpt lat="44.01762" lon="6.21718">
        <ele>708.15</ele>
        <time>2017-12-23T08:09:34Z</time>
      </trkpt>
      <trkpt lat="44.01771" lon="6.21726">
        <ele>711.99</ele>
        <time>2017-12-23T08:09:50Z</time>
      </trkpt>
      <trkpt lat="44.01774" lon="6.2173">
        <ele>709.11</ele>
        <time>2017-12-23T08:09:57Z</time>
      </trkpt>
      <trkpt lat="44.01775" lon="6.21731">
        <ele>714.88</ele>
        <time>2017-12-23T08:09:58Z</time>
      </trkpt>
      <trkpt lat="44.01775" lon="6.21732">
        <ele>711.03</ele>
        <time>2017-12-23T08:09:59Z</time>
      </trkpt>
      <trkpt lat="44.01777" lon="6.21737">
        <ele>713.92</ele>
        <time>2017-12-23T08:10:04Z</time>
      </trkpt>
      <trkpt lat="44.01778" lon="6.21739">
        <ele>712.47</ele>
        <time>2017-12-23T08:10:06Z</time>
      </trkpt>
      <trkpt lat="44.01778" lon="6.21744">
        <ele>715.84</ele>
        <time>2017-12-23T08:10:12Z</time>
      </trkpt>
      <trkpt lat="44.01789" lon="6.21752">
        <ele>717.28</ele>
        <time>2017-12-23T08:10:35Z</time>
      </trkpt>
      <trkpt lat="44.01792" lon="6.21755">
        <ele>720.65</ele>
        <time>2017-12-23T08:10:42Z</time>
      </trkpt>
      <trkpt lat="44.01805" lon="6.21775">
        <ele>722.09</ele>
        <time>2017-12-23T08:11:09Z</time>
      </trkpt>
      <trkpt lat="44.0181" lon="6.21785">
        <ele>725.93</ele>
        <time>2017-12-23T08:11:20Z</time>
      </trkpt>
      <trkpt lat="44.01813" lon="6.21789">
        <ele>725.93</ele>
        <time>2017-12-23T08:11:26Z</time>
      </trkpt>
      <trkpt lat="44.01818" lon="6.21792">
        <ele>726.89</ele>
        <time>2017-12-23T08:11:36Z</time>
      </trkpt>
      <trkpt lat="44.01829" lon="6.21804">
        <ele>728.82</ele>
        <time>2017-12-23T08:11:53Z</time>
      </trkpt>
      <trkpt lat="44.01833" lon="6.21809">
        <ele>729.3</ele>
        <time>2017-12-23T08:11:59Z</time>
      </trkpt>
      <trkpt lat="44.01839" lon="6.21817">
        <ele>730.74</ele>
        <time>2017-12-23T08:12:10Z</time>
      </trkpt>
      <trkpt lat="44.01856" lon="6.21833">
        <ele>732.18</ele>
        <time>2017-12-23T08:12:31Z</time>
      </trkpt>
      <trkpt lat="44.01858" lon="6.21832">
        <ele>731.7</ele>
        <time>2017-12-23T08:12:55Z</time>
      </trkpt>
      <trkpt lat="44.01855" lon="6.21835">
        <ele>730.74</ele>
        <time>2017-12-23T08:13:24Z</time>
      </trkpt>
      <trkpt lat="44.01857" lon="6.21831">
        <ele>732.66</ele>
        <time>2017-12-23T08:13:31Z</time>
      </trkpt>
      <trkpt lat="44.01858" lon="6.21829">
        <ele>731.22</ele>
        <time>2017-12-23T08:13:33Z</time>
      </trkpt>
      <trkpt lat="44.01859" lon="6.21831">
        <ele>732.18</ele>
        <time>2017-12-23T08:13:52Z</time>
      </trkpt>
      <trkpt lat="44.01852" lon="6.21839">
        <ele>731.7</ele>
        <time>2017-12-23T08:14:18Z</time>
      </trkpt>
      <trkpt lat="44.01862" lon="6.21851">
        <ele>732.66</ele>
        <time>2017-12-23T08:14:39Z</time>
      </trkpt>
      <trkpt lat="44.01881" lon="6.2186">
        <ele>733.62</ele>
        <time>2017-12-23T08:14:59Z</time>
      </trkpt>
      <trkpt lat="44.01895" lon="6.21885">
        <ele>733.62</ele>
        <time>2017-12-23T08:15:23Z</time>
      </trkpt>
      <trkpt lat="44.01897" lon="6.21892">
        <ele>735.07</ele>
        <time>2017-12-23T08:15:29Z</time>
      </trkpt>
      <trkpt lat="44.01919" lon="6.21915">
        <ele>736.03</ele>
        <time>2017-12-23T08:15:57Z</time>
      </trkpt>
      <trkpt lat="44.01936" lon="6.21938">
        <ele>738.91</ele>
        <time>2017-12-23T08:16:20Z</time>
      </trkpt>
      <trkpt lat="44.01948" lon="6.21926">
        <ele>742.76</ele>
        <time>2017-12-23T08:16:36Z</time>
      </trkpt>
      <trkpt lat="44.0195" lon="6.21926">
        <ele>739.87</ele>
        <time>2017-12-23T08:16:38Z</time>
      </trkpt>
      <trkpt lat="44.01951" lon="6.21926">
        <ele>741.31</ele>
        <time>2017-12-23T08:16:39Z</time>
      </trkpt>
      <trkpt lat="44.01955" lon="6.21927">
        <ele>744.2</ele>
        <time>2017-12-23T08:16:41Z</time>
      </trkpt>
      <trkpt lat="44.01958" lon="6.21928">
        <ele>740.83</ele>
        <time>2017-12-23T08:16:43Z</time>
      </trkpt>
      <trkpt lat="44.0196" lon="6.21928">
        <ele>744.2</ele>
        <time>2017-12-23T08:16:47Z</time>
      </trkpt>
      <trkpt lat="44.01971" lon="6.21941">
        <ele>745.64</ele>
        <time>2017-12-23T08:17:09Z</time>
      </trkpt>
      <trkpt lat="44.01987" lon="6.21965">
        <ele>746.12</ele>
        <time>2017-12-23T08:17:32Z</time>
      </trkpt>
      <trkpt lat="44.02008" lon="6.21984">
        <ele>745.16</ele>
        <time>2017-12-23T08:17:52Z</time>
      </trkpt>
      <trkpt lat="44.02013" lon="6.21987">
        <ele>747.08</ele>
        <time>2017-12-23T08:17:57Z</time>
      </trkpt>
      <trkpt lat="44.02017" lon="6.21998">
        <ele>746.6</ele>
        <time>2017-12-23T08:18:17Z</time>
      </trkpt>
      <trkpt lat="44.02025" lon="6.22">
        <ele>745.64</ele>
        <time>2017-12-23T08:18:39Z</time>
      </trkpt>
      <trkpt lat="44.02044" lon="6.22037">
        <ele>747.56</ele>
        <time>2017-12-23T08:19:09Z</time>
      </trkpt>
      <trkpt lat="44.02053" lon="6.22056">
        <ele>748.52</ele>
        <time>2017-12-23T08:19:23Z</time>
      </trkpt>
      <trkpt lat="44.02064" lon="6.22081">
        <ele>748.52</ele>
        <time>2017-12-23T08:19:47Z</time>
      </trkpt>
      <trkpt lat="44.02066" lon="6.22084">
        <ele>749.97</ele>
        <time>2017-12-23T08:19:50Z</time>
      </trkpt>
      <trkpt lat="44.02071" lon="6.22101">
        <ele>750.93</ele>
        <time>2017-12-23T08:20:06Z</time>
      </trkpt>
      <trkpt lat="44.02087" lon="6.22134">
        <ele>752.85</ele>
        <time>2017-12-23T08:20:32Z</time>
      </trkpt>
      <trkpt lat="44.02089" lon="6.22135">
        <ele>751.41</ele>
        <time>2017-12-23T08:20:34Z</time>
      </trkpt>
      <trkpt lat="44.02101" lon="6.22141">
        <ele>754.29</ele>
        <time>2017-12-23T08:20:50Z</time>
      </trkpt>
      <trkpt lat="44.02107" lon="6.22142">
        <ele>753.33</ele>
        <time>2017-12-23T08:20:57Z</time>
      </trkpt>
      <trkpt lat="44.02114" lon="6.22148">
        <ele>754.77</ele>
        <time>2017-12-23T08:21:04Z</time>
      </trkpt>
      <trkpt lat="44.02122" lon="6.22149">
        <ele>755.73</ele>
        <time>2017-12-23T08:21:12Z</time>
      </trkpt>
      <trkpt lat="44.02124" lon="6.22148">
        <ele>754.29</ele>
        <time>2017-12-23T08:21:14Z</time>
      </trkpt>
      <trkpt lat="44.02132" lon="6.22145">
        <ele>758.14</ele>
        <time>2017-12-23T08:21:25Z</time>
      </trkpt>
      <trkpt lat="44.02133" lon="6.22145">
        <ele>754.77</ele>
        <time>2017-12-23T08:21:26Z</time>
      </trkpt>
      <trkpt lat="44.02143" lon="6.22149">
        <ele>758.14</ele>
        <time>2017-12-23T08:21:33Z</time>
      </trkpt>
      <trkpt lat="44.02147" lon="6.22149">
        <ele>757.18</ele>
        <time>2017-12-23T08:21:37Z</time>
      </trkpt>
      <trkpt lat="44.02166" lon="6.22173">
        <ele>759.58</ele>
        <time>2017-12-23T08:21:58Z</time>
      </trkpt>
      <trkpt lat="44.02168" lon="6.22174">
        <ele>761.02</ele>
        <time>2017-12-23T08:22:01Z</time>
      </trkpt>
      <trkpt lat="44.0217" lon="6.22175">
        <ele>759.58</ele>
        <time>2017-12-23T08:22:03Z</time>
      </trkpt>
      <trkpt lat="44.02172" lon="6.22175">
        <ele>761.5</ele>
        <time>2017-12-23T08:22:05Z</time>
      </trkpt>
      <trkpt lat="44.02197" lon="6.22186">
        <ele>763.9</ele>
        <time>2017-12-23T08:22:31Z</time>
      </trkpt>
      <trkpt lat="44.02205" lon="6.222">
        <ele>764.87</ele>
        <time>2017-12-23T08:22:41Z</time>
      </trkpt>
      <trkpt lat="44.02208" lon="6.22204">
        <ele>763.42</ele>
        <time>2017-12-23T08:22:43Z</time>
      </trkpt>
      <trkpt lat="44.02211" lon="6.22208">
        <ele>764.87</ele>
        <time>2017-12-23T08:22:46Z</time>
      </trkpt>
      <trkpt lat="44.02217" lon="6.22221">
        <ele>764.87</ele>
        <time>2017-12-23T08:22:56Z</time>
      </trkpt>
      <trkpt lat="44.02222" lon="6.22231">
        <ele>763.9</ele>
        <time>2017-12-23T08:23:03Z</time>
      </trkpt>
      <trkpt lat="44.02225" lon="6.22235">
        <ele>765.35</ele>
        <time>2017-12-23T08:23:08Z</time>
      </trkpt>
      <trkpt lat="44.02227" lon="6.22238">
        <ele>763.9</ele>
        <time>2017-12-23T08:23:10Z</time>
      </trkpt>
      <trkpt lat="44.02227" lon="6.2224">
        <ele>765.35</ele>
        <time>2017-12-23T08:23:12Z</time>
      </trkpt>
      <trkpt lat="44.02234" lon="6.22279">
        <ele>763.9</ele>
        <time>2017-12-23T08:23:36Z</time>
      </trkpt>
      <trkpt lat="44.02243" lon="6.22286">
        <ele>765.35</ele>
        <time>2017-12-23T08:23:46Z</time>
      </trkpt>
      <trkpt lat="44.02249" lon="6.2229">
        <ele>764.87</ele>
        <time>2017-12-23T08:23:52Z</time>
      </trkpt>
      <trkpt lat="44.0225" lon="6.2229">
        <ele>765.83</ele>
        <time>2017-12-23T08:23:54Z</time>
      </trkpt>
      <trkpt lat="44.02256" lon="6.22291">
        <ele>766.31</ele>
        <time>2017-12-23T08:23:59Z</time>
      </trkpt>
      <trkpt lat="44.02257" lon="6.22292">
        <ele>764.87</ele>
        <time>2017-12-23T08:24:01Z</time>
      </trkpt>
      <trkpt lat="44.02269" lon="6.22292">
        <ele>765.35</ele>
        <time>2017-12-23T08:24:14Z</time>
      </trkpt>
      <trkpt lat="44.02281" lon="6.22315">
        <ele>766.31</ele>
        <time>2017-12-23T08:24:35Z</time>
      </trkpt>
      <trkpt lat="44.02278" lon="6.22318">
        <ele>766.31</ele>
        <time>2017-12-23T08:24:37Z</time>
      </trkpt>
      <trkpt lat="44.0227" lon="6.22345">
        <ele>766.31</ele>
        <time>2017-12-23T08:24:53Z</time>
      </trkpt>
      <trkpt lat="44.02265" lon="6.22352">
        <ele>765.35</ele>
        <time>2017-12-23T08:24:59Z</time>
      </trkpt>
      <trkpt lat="44.02262" lon="6.22355">
        <ele>767.27</ele>
        <time>2017-12-23T08:25:03Z</time>
      </trkpt>
      <trkpt lat="44.02259" lon="6.2236">
        <ele>765.83</ele>
        <time>2017-12-23T08:25:08Z</time>
      </trkpt>
      <trkpt lat="44.02248" lon="6.22369">
        <ele>765.35</ele>
        <time>2017-12-23T08:25:21Z</time>
      </trkpt>
      <trkpt lat="44.02245" lon="6.2237">
        <ele>767.27</ele>
        <time>2017-12-23T08:25:23Z</time>
      </trkpt>
      <trkpt lat="44.02217" lon="6.22375">
        <ele>765.35</ele>
        <time>2017-12-23T08:25:44Z</time>
      </trkpt>
      <trkpt lat="44.02207" lon="6.22392">
        <ele>767.27</ele>
        <time>2017-12-23T08:26:00Z</time>
      </trkpt>
      <trkpt lat="44.02207" lon="6.22393">
        <ele>765.83</ele>
        <time>2017-12-23T08:26:02Z</time>
      </trkpt>
      <trkpt lat="44.02205" lon="6.22403">
        <ele>767.27</ele>
        <time>2017-12-23T08:26:10Z</time>
      </trkpt>
      <trkpt lat="44.02208" lon="6.22418">
        <ele>765.83</ele>
        <time>2017-12-23T08:26:18Z</time>
      </trkpt>
      <trkpt lat="44.02214" lon="6.2244">
        <ele>765.35</ele>
        <time>2017-12-23T08:26:30Z</time>
      </trkpt>
      <trkpt lat="44.02215" lon="6.22445">
        <ele>766.79</ele>
        <time>2017-12-23T08:26:32Z</time>
      </trkpt>
      <trkpt lat="44.02228" lon="6.22478">
        <ele>766.31</ele>
        <time>2017-12-23T08:26:54Z</time>
      </trkpt>
      <trkpt lat="44.02228" lon="6.22484">
        <ele>767.75</ele>
        <time>2017-12-23T08:26:58Z</time>
      </trkpt>
      <trkpt lat="44.02218" lon="6.22502">
        <ele>768.23</ele>
        <time>2017-12-23T08:27:12Z</time>
      </trkpt>
      <trkpt lat="44.02211" lon="6.22536">
        <ele>766.79</ele>
        <time>2017-12-23T08:27:31Z</time>
      </trkpt>
      <trkpt lat="44.02211" lon="6.22541">
        <ele>768.23</ele>
        <time>2017-12-23T08:27:35Z</time>
      </trkpt>
      <trkpt lat="44.02202" lon="6.22563">
        <ele>769.19</ele>
        <time>2017-12-23T08:27:56Z</time>
      </trkpt>
      <trkpt lat="44.02201" lon="6.22568">
        <ele>767.75</ele>
        <time>2017-12-23T08:27:58Z</time>
      </trkpt>
      <trkpt lat="44.02199" lon="6.22586">
        <ele>769.67</ele>
        <time>2017-12-23T08:28:07Z</time>
      </trkpt>
      <trkpt lat="44.02196" lon="6.22596">
        <ele>770.63</ele>
        <time>2017-12-23T08:28:15Z</time>
      </trkpt>
      <trkpt lat="44.02191" lon="6.22614">
        <ele>773.04</ele>
        <time>2017-12-23T08:28:39Z</time>
      </trkpt>
      <trkpt lat="44.02189" lon="6.2262">
        <ele>771.11</ele>
        <time>2017-12-23T08:28:43Z</time>
      </trkpt>
      <trkpt lat="44.02189" lon="6.22631">
        <ele>771.11</ele>
        <time>2017-12-23T08:28:48Z</time>
      </trkpt>
      <trkpt lat="44.02199" lon="6.22665">
        <ele>770.15</ele>
        <time>2017-12-23T08:29:06Z</time>
      </trkpt>
      <trkpt lat="44.02199" lon="6.22669">
        <ele>771.6</ele>
        <time>2017-12-23T08:29:08Z</time>
      </trkpt>
      <trkpt lat="44.02201" lon="6.22678">
        <ele>770.15</ele>
        <time>2017-12-23T08:29:14Z</time>
      </trkpt>
      <trkpt lat="44.02202" lon="6.22687">
        <ele>771.6</ele>
        <time>2017-12-23T08:29:19Z</time>
      </trkpt>
      <trkpt lat="44.02202" lon="6.22691">
        <ele>770.15</ele>
        <time>2017-12-23T08:29:21Z</time>
      </trkpt>
      <trkpt lat="44.02194" lon="6.22719">
        <ele>769.19</ele>
        <time>2017-12-23T08:29:43Z</time>
      </trkpt>
      <trkpt lat="44.02188" lon="6.22727">
        <ele>770.15</ele>
        <time>2017-12-23T08:29:49Z</time>
      </trkpt>
      <trkpt lat="44.02188" lon="6.2273">
        <ele>768.71</ele>
        <time>2017-12-23T08:29:51Z</time>
      </trkpt>
      <trkpt lat="44.02189" lon="6.22741">
        <ele>768.23</ele>
        <time>2017-12-23T08:29:59Z</time>
      </trkpt>
      <trkpt lat="44.0221" lon="6.2278">
        <ele>764.87</ele>
        <time>2017-12-23T08:30:26Z</time>
      </trkpt>
      <trkpt lat="44.02215" lon="6.22792">
        <ele>764.87</ele>
        <time>2017-12-23T08:30:35Z</time>
      </trkpt>
      <trkpt lat="44.02217" lon="6.22796">
        <ele>763.42</ele>
        <time>2017-12-23T08:30:37Z</time>
      </trkpt>
      <trkpt lat="44.02239" lon="6.22829">
        <ele>762.46</ele>
        <time>2017-12-23T08:31:02Z</time>
      </trkpt>
      <trkpt lat="44.02246" lon="6.22834">
        <ele>761.02</ele>
        <time>2017-12-23T08:31:08Z</time>
      </trkpt>
      <trkpt lat="44.02247" lon="6.22836">
        <ele>761.98</ele>
        <time>2017-12-23T08:31:10Z</time>
      </trkpt>
      <trkpt lat="44.02249" lon="6.22839">
        <ele>761.02</ele>
        <time>2017-12-23T08:31:12Z</time>
      </trkpt>
      <trkpt lat="44.02256" lon="6.22862">
        <ele>759.58</ele>
        <time>2017-12-23T08:31:28Z</time>
      </trkpt>
      <trkpt lat="44.02259" lon="6.22896">
        <ele>758.14</ele>
        <time>2017-12-23T08:31:49Z</time>
      </trkpt>
      <trkpt lat="44.02259" lon="6.22915">
        <ele>759.58</ele>
        <time>2017-12-23T08:31:59Z</time>
      </trkpt>
      <trkpt lat="44.02266" lon="6.22955">
        <ele>757.66</ele>
        <time>2017-12-23T08:32:23Z</time>
      </trkpt>
      <trkpt lat="44.02285" lon="6.2297">
        <ele>756.69</ele>
        <time>2017-12-23T08:32:47Z</time>
      </trkpt>
      <trkpt lat="44.0229" lon="6.2297">
        <ele>756.69</ele>
        <time>2017-12-23T08:32:55Z</time>
      </trkpt>
      <trkpt lat="44.02312" lon="6.22976">
        <ele>754.77</ele>
        <time>2017-12-23T08:33:20Z</time>
      </trkpt>
      <trkpt lat="44.02328" lon="6.22986">
        <ele>754.77</ele>
        <time>2017-12-23T08:33:41Z</time>
      </trkpt>
      <trkpt lat="44.02345" lon="6.22992">
        <ele>752.85</ele>
        <time>2017-12-23T08:34:02Z</time>
      </trkpt>
      <trkpt lat="44.02372" lon="6.23011">
        <ele>752.37</ele>
        <time>2017-12-23T08:34:26Z</time>
      </trkpt>
      <trkpt lat="44.02373" lon="6.23013">
        <ele>751.41</ele>
        <time>2017-12-23T08:34:28Z</time>
      </trkpt>
      <trkpt lat="44.02381" lon="6.23062">
        <ele>749.49</ele>
        <time>2017-12-23T08:34:56Z</time>
      </trkpt>
      <trkpt lat="44.024" lon="6.23079">
        <ele>745.64</ele>
        <time>2017-12-23T08:35:15Z</time>
      </trkpt>
      <trkpt lat="44.02405" lon="6.23083">
        <ele>746.12</ele>
        <time>2017-12-23T08:35:20Z</time>
      </trkpt>
      <trkpt lat="44.02408" lon="6.23084">
        <ele>747.56</ele>
        <time>2017-12-23T08:35:22Z</time>
      </trkpt>
      <trkpt lat="44.02438" lon="6.23094">
        <ele>744.68</ele>
        <time>2017-12-23T08:35:45Z</time>
      </trkpt>
      <trkpt lat="44.02451" lon="6.23092">
        <ele>741.31</ele>
        <time>2017-12-23T08:35:58Z</time>
      </trkpt>
      <trkpt lat="44.02469" lon="6.23112">
        <ele>739.87</ele>
        <time>2017-12-23T08:36:19Z</time>
      </trkpt>
      <trkpt lat="44.02483" lon="6.23152">
        <ele>736.99</ele>
        <time>2017-12-23T08:36:45Z</time>
      </trkpt>
      <trkpt lat="44.02506" lon="6.23174">
        <ele>734.58</ele>
        <time>2017-12-23T08:37:09Z</time>
      </trkpt>
      <trkpt lat="44.0251" lon="6.23187">
        <ele>732.66</ele>
        <time>2017-12-23T08:37:19Z</time>
      </trkpt>
      <trkpt lat="44.02507" lon="6.23194">
        <ele>731.7</ele>
        <time>2017-12-23T08:37:26Z</time>
      </trkpt>
      <trkpt lat="44.02504" lon="6.23195">
        <ele>733.62</ele>
        <time>2017-12-23T08:37:28Z</time>
      </trkpt>
      <trkpt lat="44.02503" lon="6.23198">
        <ele>731.7</ele>
        <time>2017-12-23T08:37:30Z</time>
      </trkpt>
      <trkpt lat="44.02502" lon="6.23203">
        <ele>731.22</ele>
        <time>2017-12-23T08:37:34Z</time>
      </trkpt>
      <trkpt lat="44.02513" lon="6.23238">
        <ele>728.34</ele>
        <time>2017-12-23T08:37:56Z</time>
      </trkpt>
      <trkpt lat="44.02532" lon="6.23258">
        <ele>726.41</ele>
        <time>2017-12-23T08:38:17Z</time>
      </trkpt>
      <trkpt lat="44.02536" lon="6.23264">
        <ele>728.34</ele>
        <time>2017-12-23T08:38:26Z</time>
      </trkpt>
      <trkpt lat="44.02537" lon="6.23264">
        <ele>725.45</ele>
        <time>2017-12-23T08:38:27Z</time>
      </trkpt>
      <trkpt lat="44.02537" lon="6.23265">
        <ele>728.82</ele>
        <time>2017-12-23T08:38:28Z</time>
      </trkpt>
      <trkpt lat="44.02549" lon="6.23276">
        <ele>727.86</ele>
        <time>2017-12-23T08:38:53Z</time>
      </trkpt>
      <trkpt lat="44.02549" lon="6.23283">
        <ele>726.41</ele>
        <time>2017-12-23T08:39:02Z</time>
      </trkpt>
      <trkpt lat="44.02549" lon="6.23272">
        <ele>726.89</ele>
        <time>2017-12-23T08:39:32Z</time>
      </trkpt>
      <trkpt lat="44.02537" lon="6.23274">
        <ele>727.86</ele>
        <time>2017-12-23T08:40:01Z</time>
      </trkpt>
      <trkpt lat="44.02543" lon="6.23268">
        <ele>727.86</ele>
        <time>2017-12-23T08:40:35Z</time>
      </trkpt>
      <trkpt lat="44.02543" lon="6.23272">
        <ele>727.86</ele>
        <time>2017-12-23T08:41:05Z</time>
      </trkpt>
      <trkpt lat="44.02552" lon="6.23283">
        <ele>725.93</ele>
        <time>2017-12-23T08:41:28Z</time>
      </trkpt>
      <trkpt lat="44.02561" lon="6.23293">
        <ele>729.3</ele>
        <time>2017-12-23T08:41:38Z</time>
      </trkpt>
      <trkpt lat="44.02563" lon="6.23294">
        <ele>729.3</ele>
        <time>2017-12-23T08:41:42Z</time>
      </trkpt>
      <trkpt lat="44.02573" lon="6.23298">
        <ele>732.66</ele>
        <time>2017-12-23T08:41:58Z</time>
      </trkpt>
      <trkpt lat="44.02578" lon="6.233">
        <ele>733.14</ele>
        <time>2017-12-23T08:42:04Z</time>
      </trkpt>
      <trkpt lat="44.02582" lon="6.23301">
        <ele>734.58</ele>
        <time>2017-12-23T08:42:11Z</time>
      </trkpt>
      <trkpt lat="44.02592" lon="6.23297">
        <ele>737.47</ele>
        <time>2017-12-23T08:42:24Z</time>
      </trkpt>
      <trkpt lat="44.02596" lon="6.23297">
        <ele>737.47</ele>
        <time>2017-12-23T08:42:31Z</time>
      </trkpt>
      <trkpt lat="44.02612" lon="6.23295">
        <ele>741.31</ele>
        <time>2017-12-23T08:42:51Z</time>
      </trkpt>
      <trkpt lat="44.02614" lon="6.23295">
        <ele>741.31</ele>
        <time>2017-12-23T08:42:55Z</time>
      </trkpt>
      <trkpt lat="44.0263" lon="6.23299">
        <ele>744.68</ele>
        <time>2017-12-23T08:43:18Z</time>
      </trkpt>
      <trkpt lat="44.0264" lon="6.233">
        <ele>748.52</ele>
        <time>2017-12-23T08:43:36Z</time>
      </trkpt>
      <trkpt lat="44.02644" lon="6.23302">
        <ele>748.52</ele>
        <time>2017-12-23T08:43:43Z</time>
      </trkpt>
      <trkpt lat="44.02652" lon="6.23304">
        <ele>752.37</ele>
        <time>2017-12-23T08:43:57Z</time>
      </trkpt>
      <trkpt lat="44.02657" lon="6.23304">
        <ele>752.37</ele>
        <time>2017-12-23T08:44:04Z</time>
      </trkpt>
      <trkpt lat="44.02668" lon="6.23302">
        <ele>755.73</ele>
        <time>2017-12-23T08:44:19Z</time>
      </trkpt>
      <trkpt lat="44.02688" lon="6.23297">
        <ele>756.21</ele>
        <time>2017-12-23T08:44:40Z</time>
      </trkpt>
      <trkpt lat="44.02691" lon="6.23295">
        <ele>758.14</ele>
        <time>2017-12-23T08:44:45Z</time>
      </trkpt>
      <trkpt lat="44.02703" lon="6.23291">
        <ele>758.14</ele>
        <time>2017-12-23T08:45:02Z</time>
      </trkpt>
      <trkpt lat="44.02711" lon="6.23296">
        <ele>760.06</ele>
        <time>2017-12-23T08:45:08Z</time>
      </trkpt>
      <trkpt lat="44.0272" lon="6.23303">
        <ele>761.02</ele>
        <time>2017-12-23T08:45:17Z</time>
      </trkpt>
      <trkpt lat="44.02727" lon="6.23307">
        <ele>761.02</ele>
        <time>2017-12-23T08:45:28Z</time>
      </trkpt>
      <trkpt lat="44.02741" lon="6.23306">
        <ele>763.9</ele>
        <time>2017-12-23T08:45:41Z</time>
      </trkpt>
      <trkpt lat="44.02746" lon="6.2331">
        <ele>765.35</ele>
        <time>2017-12-23T08:45:50Z</time>
      </trkpt>
      <trkpt lat="44.02758" lon="6.23316">
        <ele>766.79</ele>
        <time>2017-12-23T08:46:03Z</time>
      </trkpt>
      <trkpt lat="44.02768" lon="6.23319">
        <ele>769.67</ele>
        <time>2017-12-23T08:46:17Z</time>
      </trkpt>
      <trkpt lat="44.02788" lon="6.2333">
        <ele>772.56</ele>
        <time>2017-12-23T08:46:39Z</time>
      </trkpt>
      <trkpt lat="44.02809" lon="6.23342">
        <ele>774.96</ele>
        <time>2017-12-23T08:47:05Z</time>
      </trkpt>
      <trkpt lat="44.02816" lon="6.2335">
        <ele>776.4</ele>
        <time>2017-12-23T08:47:18Z</time>
      </trkpt>
      <trkpt lat="44.02822" lon="6.23354">
        <ele>777.36</ele>
        <time>2017-12-23T08:47:24Z</time>
      </trkpt>
      <trkpt lat="44.02831" lon="6.2336">
        <ele>779.29</ele>
        <time>2017-12-23T08:47:38Z</time>
      </trkpt>
      <trkpt lat="44.02845" lon="6.2336">
        <ele>780.73</ele>
        <time>2017-12-23T08:47:59Z</time>
      </trkpt>
      <trkpt lat="44.02853" lon="6.23363">
        <ele>783.61</ele>
        <time>2017-12-23T08:48:20Z</time>
      </trkpt>
      <trkpt lat="44.02855" lon="6.23364">
        <ele>783.61</ele>
        <time>2017-12-23T08:48:21Z</time>
      </trkpt>
      <trkpt lat="44.02874" lon="6.23376">
        <ele>786.02</ele>
        <time>2017-12-23T08:48:44Z</time>
      </trkpt>
      <trkpt lat="44.02882" lon="6.23376">
        <ele>787.46</ele>
        <time>2017-12-23T08:48:56Z</time>
      </trkpt>
      <trkpt lat="44.02897" lon="6.23369">
        <ele>787.94</ele>
        <time>2017-12-23T08:49:19Z</time>
      </trkpt>
      <trkpt lat="44.02903" lon="6.23368">
        <ele>790.34</ele>
        <time>2017-12-23T08:49:28Z</time>
      </trkpt>
      <trkpt lat="44.02909" lon="6.23366">
        <ele>791.78</ele>
        <time>2017-12-23T08:49:35Z</time>
      </trkpt>
      <trkpt lat="44.02917" lon="6.23367">
        <ele>793.22</ele>
        <time>2017-12-23T08:49:46Z</time>
      </trkpt>
      <trkpt lat="44.02925" lon="6.23371">
        <ele>794.67</ele>
        <time>2017-12-23T08:49:57Z</time>
      </trkpt>
      <trkpt lat="44.02942" lon="6.23378">
        <ele>797.07</ele>
        <time>2017-12-23T08:50:17Z</time>
      </trkpt>
      <trkpt lat="44.02964" lon="6.23388">
        <ele>799.47</ele>
        <time>2017-12-23T08:50:40Z</time>
      </trkpt>
      <trkpt lat="44.02971" lon="6.23392">
        <ele>801.4</ele>
        <time>2017-12-23T08:50:49Z</time>
      </trkpt>
      <trkpt lat="44.02987" lon="6.23397">
        <ele>804.28</ele>
        <time>2017-12-23T08:51:11Z</time>
      </trkpt>
      <trkpt lat="44.03004" lon="6.23405">
        <ele>807.64</ele>
        <time>2017-12-23T08:51:36Z</time>
      </trkpt>
      <trkpt lat="44.03006" lon="6.23405">
        <ele>807.16</ele>
        <time>2017-12-23T08:51:37Z</time>
      </trkpt>
      <trkpt lat="44.03014" lon="6.23408">
        <ele>808.13</ele>
        <time>2017-12-23T08:51:44Z</time>
      </trkpt>
      <trkpt lat="44.03024" lon="6.23412">
        <ele>811.01</ele>
        <time>2017-12-23T08:51:56Z</time>
      </trkpt>
      <trkpt lat="44.03043" lon="6.23419">
        <ele>813.41</ele>
        <time>2017-12-23T08:52:17Z</time>
      </trkpt>
      <trkpt lat="44.03056" lon="6.23418">
        <ele>815.34</ele>
        <time>2017-12-23T08:52:39Z</time>
      </trkpt>
      <trkpt lat="44.03074" lon="6.23429">
        <ele>816.3</ele>
        <time>2017-12-23T08:53:00Z</time>
      </trkpt>
      <trkpt lat="44.03087" lon="6.23439">
        <ele>819.66</ele>
        <time>2017-12-23T08:53:18Z</time>
      </trkpt>
      <trkpt lat="44.03089" lon="6.23438">
        <ele>816.78</ele>
        <time>2017-12-23T08:53:20Z</time>
      </trkpt>
      <trkpt lat="44.0309" lon="6.23438">
        <ele>820.14</ele>
        <time>2017-12-23T08:53:21Z</time>
      </trkpt>
      <trkpt lat="44.03101" lon="6.23444">
        <ele>821.1</ele>
        <time>2017-12-23T08:53:36Z</time>
      </trkpt>
      <trkpt lat="44.03111" lon="6.23461">
        <ele>821.1</ele>
        <time>2017-12-23T08:53:57Z</time>
      </trkpt>
      <trkpt lat="44.03115" lon="6.23464">
        <ele>822.55</ele>
        <time>2017-12-23T08:54:19Z</time>
      </trkpt>
      <trkpt lat="44.03116" lon="6.23463">
        <ele>823.51</ele>
        <time>2017-12-23T08:54:22Z</time>
      </trkpt>
      <trkpt lat="44.03118" lon="6.23461">
        <ele>824.95</ele>
        <time>2017-12-23T08:54:34Z</time>
      </trkpt>
      <trkpt lat="44.03119" lon="6.23471">
        <ele>824.95</ele>
        <time>2017-12-23T08:54:41Z</time>
      </trkpt>
      <trkpt lat="44.0312" lon="6.23479">
        <ele>825.91</ele>
        <time>2017-12-23T08:54:48Z</time>
      </trkpt>
      <trkpt lat="44.03124" lon="6.23497">
        <ele>828.79</ele>
        <time>2017-12-23T08:55:12Z</time>
      </trkpt>
      <trkpt lat="44.03129" lon="6.23517">
        <ele>832.16</ele>
        <time>2017-12-23T08:55:33Z</time>
      </trkpt>
      <trkpt lat="44.03129" lon="6.23518">
        <ele>832.16</ele>
        <time>2017-12-23T08:55:34Z</time>
      </trkpt>
      <trkpt lat="44.03142" lon="6.23539">
        <ele>834.56</ele>
        <time>2017-12-23T08:55:55Z</time>
      </trkpt>
      <trkpt lat="44.03146" lon="6.23544">
        <ele>835.04</ele>
        <time>2017-12-23T08:56:01Z</time>
      </trkpt>
      <trkpt lat="44.03148" lon="6.23552">
        <ele>836</ele>
        <time>2017-12-23T08:56:09Z</time>
      </trkpt>
      <trkpt lat="44.03149" lon="6.23553">
        <ele>835.04</ele>
        <time>2017-12-23T08:56:11Z</time>
      </trkpt>
      <trkpt lat="44.03152" lon="6.23556">
        <ele>836.48</ele>
        <time>2017-12-23T08:56:15Z</time>
      </trkpt>
      <trkpt lat="44.03173" lon="6.23561">
        <ele>839.37</ele>
        <time>2017-12-23T08:56:37Z</time>
      </trkpt>
      <trkpt lat="44.0319" lon="6.23562">
        <ele>842.73</ele>
        <time>2017-12-23T08:56:57Z</time>
      </trkpt>
      <trkpt lat="44.03201" lon="6.23574">
        <ele>846.1</ele>
        <time>2017-12-23T08:57:16Z</time>
      </trkpt>
      <trkpt lat="44.03219" lon="6.23577">
        <ele>848.5</ele>
        <time>2017-12-23T08:57:36Z</time>
      </trkpt>
      <trkpt lat="44.0322" lon="6.23577">
        <ele>848.5</ele>
        <time>2017-12-23T08:57:37Z</time>
      </trkpt>
      <trkpt lat="44.03232" lon="6.23586">
        <ele>850.9</ele>
        <time>2017-12-23T08:57:53Z</time>
      </trkpt>
      <trkpt lat="44.03243" lon="6.23605">
        <ele>854.27</ele>
        <time>2017-12-23T08:58:17Z</time>
      </trkpt>
      <trkpt lat="44.03246" lon="6.23608">
        <ele>853.79</ele>
        <time>2017-12-23T08:58:21Z</time>
      </trkpt>
      <trkpt lat="44.03256" lon="6.23622">
        <ele>857.15</ele>
        <time>2017-12-23T08:58:39Z</time>
      </trkpt>
      <trkpt lat="44.03264" lon="6.23632">
        <ele>857.63</ele>
        <time>2017-12-23T08:58:49Z</time>
      </trkpt>
      <trkpt lat="44.03278" lon="6.23636">
        <ele>860.04</ele>
        <time>2017-12-23T08:59:11Z</time>
      </trkpt>
      <trkpt lat="44.03292" lon="6.23645">
        <ele>862.44</ele>
        <time>2017-12-23T08:59:28Z</time>
      </trkpt>
      <trkpt lat="44.03305" lon="6.23655">
        <ele>864.36</ele>
        <time>2017-12-23T08:59:45Z</time>
      </trkpt>
      <trkpt lat="44.03319" lon="6.23663">
        <ele>867.73</ele>
        <time>2017-12-23T09:00:06Z</time>
      </trkpt>
      <trkpt lat="44.03336" lon="6.23671">
        <ele>868.21</ele>
        <time>2017-12-23T09:00:29Z</time>
      </trkpt>
      <trkpt lat="44.03341" lon="6.23676">
        <ele>871.57</ele>
        <time>2017-12-23T09:00:38Z</time>
      </trkpt>
      <trkpt lat="44.03344" lon="6.23685">
        <ele>872.05</ele>
        <time>2017-12-23T09:00:47Z</time>
      </trkpt>
      <trkpt lat="44.0335" lon="6.23698">
        <ele>873.98</ele>
        <time>2017-12-23T09:01:01Z</time>
      </trkpt>
      <trkpt lat="44.03361" lon="6.23719">
        <ele>876.86</ele>
        <time>2017-12-23T09:01:22Z</time>
      </trkpt>
      <trkpt lat="44.03369" lon="6.23723">
        <ele>877.34</ele>
        <time>2017-12-23T09:01:33Z</time>
      </trkpt>
      <trkpt lat="44.03381" lon="6.23728">
        <ele>880.71</ele>
        <time>2017-12-23T09:01:50Z</time>
      </trkpt>
      <trkpt lat="44.03399" lon="6.2373">
        <ele>882.15</ele>
        <time>2017-12-23T09:02:12Z</time>
      </trkpt>
      <trkpt lat="44.03405" lon="6.23729">
        <ele>885.03</ele>
        <time>2017-12-23T09:02:17Z</time>
      </trkpt>
      <trkpt lat="44.03416" lon="6.23719">
        <ele>886.95</ele>
        <time>2017-12-23T09:02:37Z</time>
      </trkpt>
      <trkpt lat="44.0343" lon="6.23711">
        <ele>890.8</ele>
        <time>2017-12-23T09:03:03Z</time>
      </trkpt>
      <trkpt lat="44.0344" lon="6.23716">
        <ele>891.76</ele>
        <time>2017-12-23T09:03:16Z</time>
      </trkpt>
      <trkpt lat="44.03444" lon="6.23722">
        <ele>892.24</ele>
        <time>2017-12-23T09:03:24Z</time>
      </trkpt>
      <trkpt lat="44.03458" lon="6.2373">
        <ele>893.2</ele>
        <time>2017-12-23T09:03:36Z</time>
      </trkpt>
      <trkpt lat="44.03466" lon="6.23752">
        <ele>895.61</ele>
        <time>2017-12-23T09:04:01Z</time>
      </trkpt>
      <trkpt lat="44.03465" lon="6.23766">
        <ele>896.57</ele>
        <time>2017-12-23T09:04:16Z</time>
      </trkpt>
      <trkpt lat="44.03464" lon="6.23794">
        <ele>897.05</ele>
        <time>2017-12-23T09:04:38Z</time>
      </trkpt>
      <trkpt lat="44.03463" lon="6.23805">
        <ele>900.41</ele>
        <time>2017-12-23T09:04:46Z</time>
      </trkpt>
      <trkpt lat="44.0346" lon="6.23829">
        <ele>901.37</ele>
        <time>2017-12-23T09:05:00Z</time>
      </trkpt>
      <trkpt lat="44.0346" lon="6.23841">
        <ele>902.82</ele>
        <time>2017-12-23T09:05:10Z</time>
      </trkpt>
      <trkpt lat="44.0346" lon="6.23854">
        <ele>906.18</ele>
        <time>2017-12-23T09:05:25Z</time>
      </trkpt>
      <trkpt lat="44.03459" lon="6.2386">
        <ele>906.18</ele>
        <time>2017-12-23T09:05:29Z</time>
      </trkpt>
      <trkpt lat="44.03453" lon="6.23893">
        <ele>907.62</ele>
        <time>2017-12-23T09:05:52Z</time>
      </trkpt>
      <trkpt lat="44.03451" lon="6.23924">
        <ele>907.62</ele>
        <time>2017-12-23T09:06:14Z</time>
      </trkpt>
      <trkpt lat="44.03451" lon="6.23935">
        <ele>909.54</ele>
        <time>2017-12-23T09:06:25Z</time>
      </trkpt>
      <trkpt lat="44.03448" lon="6.2397">
        <ele>909.54</ele>
        <time>2017-12-23T09:06:50Z</time>
      </trkpt>
      <trkpt lat="44.0345" lon="6.23975">
        <ele>910.99</ele>
        <time>2017-12-23T09:06:53Z</time>
      </trkpt>
      <trkpt lat="44.0345" lon="6.23985">
        <ele>912.43</ele>
        <time>2017-12-23T09:07:01Z</time>
      </trkpt>
      <trkpt lat="44.0345" lon="6.23989">
        <ele>912.91</ele>
        <time>2017-12-23T09:07:11Z</time>
      </trkpt>
      <trkpt lat="44.03449" lon="6.24028">
        <ele>913.87</ele>
        <time>2017-12-23T09:07:33Z</time>
      </trkpt>
      <trkpt lat="44.03449" lon="6.24032">
        <ele>915.79</ele>
        <time>2017-12-23T09:07:35Z</time>
      </trkpt>
      <trkpt lat="44.0345" lon="6.24049">
        <ele>915.31</ele>
        <time>2017-12-23T09:07:48Z</time>
      </trkpt>
      <trkpt lat="44.0345" lon="6.24053">
        <ele>916.27</ele>
        <time>2017-12-23T09:07:52Z</time>
      </trkpt>
      <trkpt lat="44.0345" lon="6.24069">
        <ele>918.68</ele>
        <time>2017-12-23T09:08:05Z</time>
      </trkpt>
      <trkpt lat="44.03453" lon="6.24081">
        <ele>918.2</ele>
        <time>2017-12-23T09:08:10Z</time>
      </trkpt>
      <trkpt lat="44.03455" lon="6.24092">
        <ele>919.16</ele>
        <time>2017-12-23T09:08:16Z</time>
      </trkpt>
      <trkpt lat="44.03468" lon="6.24103">
        <ele>921.56</ele>
        <time>2017-12-23T09:08:39Z</time>
      </trkpt>
      <trkpt lat="44.03474" lon="6.24106">
        <ele>925.41</ele>
        <time>2017-12-23T09:08:52Z</time>
      </trkpt>
      <trkpt lat="44.03494" lon="6.24112">
        <ele>926.37</ele>
        <time>2017-12-23T09:09:14Z</time>
      </trkpt>
      <trkpt lat="44.03496" lon="6.2411">
        <ele>929.73</ele>
        <time>2017-12-23T09:09:20Z</time>
      </trkpt>
      <trkpt lat="44.03499" lon="6.24114">
        <ele>928.77</ele>
        <time>2017-12-23T09:09:27Z</time>
      </trkpt>
      <trkpt lat="44.03502" lon="6.24115">
        <ele>930.21</ele>
        <time>2017-12-23T09:09:49Z</time>
      </trkpt>
      <trkpt lat="44.03501" lon="6.24122">
        <ele>928.29</ele>
        <time>2017-12-23T09:10:17Z</time>
      </trkpt>
      <trkpt lat="44.03509" lon="6.24124">
        <ele>928.29</ele>
        <time>2017-12-23T09:10:41Z</time>
      </trkpt>
      <trkpt lat="44.03508" lon="6.24116">
        <ele>928.29</ele>
        <time>2017-12-23T09:11:03Z</time>
      </trkpt>
      <trkpt lat="44.03505" lon="6.24126">
        <ele>928.29</ele>
        <time>2017-12-23T09:11:30Z</time>
      </trkpt>
      <trkpt lat="44.03512" lon="6.24126">
        <ele>928.29</ele>
        <time>2017-12-23T09:11:57Z</time>
      </trkpt>
      <trkpt lat="44.03501" lon="6.24115">
        <ele>928.29</ele>
        <time>2017-12-23T09:12:15Z</time>
      </trkpt>
      <trkpt lat="44.03496" lon="6.24111">
        <ele>930.21</ele>
        <time>2017-12-23T09:12:23Z</time>
      </trkpt>
      <trkpt lat="44.03502" lon="6.24113">
        <ele>930.21</ele>
        <time>2017-12-23T09:12:48Z</time>
      </trkpt>
      <trkpt lat="44.035" lon="6.24123">
        <ele>928.77</ele>
        <time>2017-12-23T09:13:09Z</time>
      </trkpt>
      <trkpt lat="44.03499" lon="6.24124">
        <ele>929.25</ele>
        <time>2017-12-23T09:13:36Z</time>
      </trkpt>
      <trkpt lat="44.03503" lon="6.24113">
        <ele>929.73</ele>
        <time>2017-12-23T09:13:57Z</time>
      </trkpt>
      <trkpt lat="44.03507" lon="6.24121">
        <ele>929.25</ele>
        <time>2017-12-23T09:14:07Z</time>
      </trkpt>
      <trkpt lat="44.03506" lon="6.24118">
        <ele>929.25</ele>
        <time>2017-12-23T09:14:29Z</time>
      </trkpt>
      <trkpt lat="44.03505" lon="6.24118">
        <ele>931.17</ele>
        <time>2017-12-23T09:14:31Z</time>
      </trkpt>
      <trkpt lat="44.03506" lon="6.24119">
        <ele>929.25</ele>
        <time>2017-12-23T09:14:34Z</time>
      </trkpt>
      <trkpt lat="44.03506" lon="6.24108">
        <ele>929.73</ele>
        <time>2017-12-23T09:15:05Z</time>
      </trkpt>
      <trkpt lat="44.03511" lon="6.24116">
        <ele>929.25</ele>
        <time>2017-12-23T09:15:33Z</time>
      </trkpt>
      <trkpt lat="44.03502" lon="6.24113">
        <ele>929.25</ele>
        <time>2017-12-23T09:15:55Z</time>
      </trkpt>
      <trkpt lat="44.03502" lon="6.24114">
        <ele>929.25</ele>
        <time>2017-12-23T09:16:20Z</time>
      </trkpt>
      <trkpt lat="44.03502" lon="6.24115">
        <ele>924.93</ele>
        <time>2017-12-23T09:16:25Z</time>
      </trkpt>
      <trkpt lat="44.03502" lon="6.24114">
        <ele>935.02</ele>
        <time>2017-12-23T09:16:26Z</time>
      </trkpt>
      <trkpt lat="44.03502" lon="6.24114">
        <ele>930.21</ele>
        <time>2017-12-23T09:16:27Z</time>
      </trkpt>
      <trkpt lat="44.03501" lon="6.24119">
        <ele>929.73</ele>
        <time>2017-12-23T09:16:47Z</time>
      </trkpt>
      <trkpt lat="44.03504" lon="6.2412">
        <ele>930.69</ele>
        <time>2017-12-23T09:16:50Z</time>
      </trkpt>
      <trkpt lat="44.03508" lon="6.24122">
        <ele>932.62</ele>
        <time>2017-12-23T09:17:03Z</time>
      </trkpt>
      <trkpt lat="44.03511" lon="6.24123">
        <ele>933.1</ele>
        <time>2017-12-23T09:17:09Z</time>
      </trkpt>
      <trkpt lat="44.03519" lon="6.24122">
        <ele>935.5</ele>
        <time>2017-12-23T09:17:26Z</time>
      </trkpt>
      <trkpt lat="44.03527" lon="6.24126">
        <ele>936.46</ele>
        <time>2017-12-23T09:17:35Z</time>
      </trkpt>
      <trkpt lat="44.0353" lon="6.24128">
        <ele>938.38</ele>
        <time>2017-12-23T09:17:38Z</time>
      </trkpt>
      <trkpt lat="44.03534" lon="6.24132">
        <ele>937.9</ele>
        <time>2017-12-23T09:17:44Z</time>
      </trkpt>
      <trkpt lat="44.03552" lon="6.24138">
        <ele>944.15</ele>
        <time>2017-12-23T09:18:05Z</time>
      </trkpt>
      <trkpt lat="44.03555" lon="6.24138">
        <ele>944.15</ele>
        <time>2017-12-23T09:18:12Z</time>
      </trkpt>
      <trkpt lat="44.03559" lon="6.24147">
        <ele>947.52</ele>
        <time>2017-12-23T09:18:24Z</time>
      </trkpt>
      <trkpt lat="44.03562" lon="6.24149">
        <ele>947.04</ele>
        <time>2017-12-23T09:18:28Z</time>
      </trkpt>
      <trkpt lat="44.03571" lon="6.24148">
        <ele>948.48</ele>
        <time>2017-12-23T09:18:40Z</time>
      </trkpt>
      <trkpt lat="44.03581" lon="6.24149">
        <ele>952.32</ele>
        <time>2017-12-23T09:18:55Z</time>
      </trkpt>
      <trkpt lat="44.03592" lon="6.24154">
        <ele>955.69</ele>
        <time>2017-12-23T09:19:18Z</time>
      </trkpt>
      <trkpt lat="44.03593" lon="6.24154">
        <ele>955.69</ele>
        <time>2017-12-23T09:19:19Z</time>
      </trkpt>
      <trkpt lat="44.03611" lon="6.24152">
        <ele>959.05</ele>
        <time>2017-12-23T09:19:37Z</time>
      </trkpt>
      <trkpt lat="44.03616" lon="6.24149">
        <ele>960.01</ele>
        <time>2017-12-23T09:19:44Z</time>
      </trkpt>
      <trkpt lat="44.03623" lon="6.24141">
        <ele>964.34</ele>
        <time>2017-12-23T09:20:05Z</time>
      </trkpt>
      <trkpt lat="44.03626" lon="6.24141">
        <ele>964.82</ele>
        <time>2017-12-23T09:20:12Z</time>
      </trkpt>
      <trkpt lat="44.03627" lon="6.2414">
        <ele>965.78</ele>
        <time>2017-12-23T09:20:18Z</time>
      </trkpt>
      <trkpt lat="44.03634" lon="6.24139">
        <ele>968.67</ele>
        <time>2017-12-23T09:20:32Z</time>
      </trkpt>
      <trkpt lat="44.03635" lon="6.2414">
        <ele>967.7</ele>
        <time>2017-12-23T09:20:33Z</time>
      </trkpt>
      <trkpt lat="44.03644" lon="6.24135">
        <ele>969.63</ele>
        <time>2017-12-23T09:20:42Z</time>
      </trkpt>
      <trkpt lat="44.03653" lon="6.2413">
        <ele>972.99</ele>
        <time>2017-12-23T09:20:55Z</time>
      </trkpt>
      <trkpt lat="44.03657" lon="6.24125">
        <ele>973.47</ele>
        <time>2017-12-23T09:21:02Z</time>
      </trkpt>
      <trkpt lat="44.03666" lon="6.24141">
        <ele>976.36</ele>
        <time>2017-12-23T09:21:24Z</time>
      </trkpt>
      <trkpt lat="44.0368" lon="6.24166">
        <ele>977.8</ele>
        <time>2017-12-23T09:21:49Z</time>
      </trkpt>
      <trkpt lat="44.03681" lon="6.24169">
        <ele>979.24</ele>
        <time>2017-12-23T09:21:52Z</time>
      </trkpt>
      <trkpt lat="44.03687" lon="6.2419">
        <ele>983.57</ele>
        <time>2017-12-23T09:22:09Z</time>
      </trkpt>
      <trkpt lat="44.03689" lon="6.2419">
        <ele>984.05</ele>
        <time>2017-12-23T09:22:16Z</time>
      </trkpt>
      <trkpt lat="44.03697" lon="6.24178">
        <ele>986.93</ele>
        <time>2017-12-23T09:22:29Z</time>
      </trkpt>
      <trkpt lat="44.03698" lon="6.2416">
        <ele>986.93</ele>
        <time>2017-12-23T09:22:41Z</time>
      </trkpt>
      <trkpt lat="44.03697" lon="6.24153">
        <ele>985.49</ele>
        <time>2017-12-23T09:22:46Z</time>
      </trkpt>
      <trkpt lat="44.03696" lon="6.2415">
        <ele>987.41</ele>
        <time>2017-12-23T09:22:48Z</time>
      </trkpt>
      <trkpt lat="44.03698" lon="6.24138">
        <ele>987.89</ele>
        <time>2017-12-23T09:22:59Z</time>
      </trkpt>
      <trkpt lat="44.03699" lon="6.24134">
        <ele>989.81</ele>
        <time>2017-12-23T09:23:06Z</time>
      </trkpt>
      <trkpt lat="44.03698" lon="6.24131">
        <ele>988.85</ele>
        <time>2017-12-23T09:23:08Z</time>
      </trkpt>
      <trkpt lat="44.03697" lon="6.24125">
        <ele>992.22</ele>
        <time>2017-12-23T09:23:12Z</time>
      </trkpt>
      <trkpt lat="44.03699" lon="6.24115">
        <ele>991.74</ele>
        <time>2017-12-23T09:23:19Z</time>
      </trkpt>
      <trkpt lat="44.03719" lon="6.24092">
        <ele>994.62</ele>
        <time>2017-12-23T09:23:43Z</time>
      </trkpt>
      <trkpt lat="44.03732" lon="6.24079">
        <ele>996.54</ele>
        <time>2017-12-23T09:23:58Z</time>
      </trkpt>
      <trkpt lat="44.03734" lon="6.24076">
        <ele>998.47</ele>
        <time>2017-12-23T09:24:08Z</time>
      </trkpt>
      <trkpt lat="44.03742" lon="6.24075">
        <ele>1001.83</ele>
        <time>2017-12-23T09:24:20Z</time>
      </trkpt>
      <trkpt lat="44.03752" lon="6.24068">
        <ele>1003.75</ele>
        <time>2017-12-23T09:24:42Z</time>
      </trkpt>
      <trkpt lat="44.03758" lon="6.2407">
        <ele>1006.64</ele>
        <time>2017-12-23T09:24:56Z</time>
      </trkpt>
      <trkpt lat="44.03758" lon="6.24074">
        <ele>1008.08</ele>
        <time>2017-12-23T09:25:12Z</time>
      </trkpt>
      <trkpt lat="44.03758" lon="6.24081">
        <ele>1009.04</ele>
        <time>2017-12-23T09:25:21Z</time>
      </trkpt>
      <trkpt lat="44.03755" lon="6.241">
        <ele>1012.41</ele>
        <time>2017-12-23T09:25:36Z</time>
      </trkpt>
      <trkpt lat="44.03755" lon="6.24106">
        <ele>1011.93</ele>
        <time>2017-12-23T09:25:43Z</time>
      </trkpt>
      <trkpt lat="44.03759" lon="6.24116">
        <ele>1014.81</ele>
        <time>2017-12-23T09:25:53Z</time>
      </trkpt>
      <trkpt lat="44.03761" lon="6.24121">
        <ele>1014.81</ele>
        <time>2017-12-23T09:26:00Z</time>
      </trkpt>
      <trkpt lat="44.03755" lon="6.24137">
        <ele>1017.69</ele>
        <time>2017-12-23T09:26:22Z</time>
      </trkpt>
      <trkpt lat="44.03755" lon="6.24138">
        <ele>1017.69</ele>
        <time>2017-12-23T09:26:23Z</time>
      </trkpt>
      <trkpt lat="44.03743" lon="6.24148">
        <ele>1020.1</ele>
        <time>2017-12-23T09:26:37Z</time>
      </trkpt>
      <trkpt lat="44.03743" lon="6.24156">
        <ele>1022.02</ele>
        <time>2017-12-23T09:26:46Z</time>
      </trkpt>
      <trkpt lat="44.03742" lon="6.2417">
        <ele>1022.98</ele>
        <time>2017-12-23T09:26:57Z</time>
      </trkpt>
      <trkpt lat="44.03744" lon="6.24182">
        <ele>1023.94</ele>
        <time>2017-12-23T09:27:08Z</time>
      </trkpt>
      <trkpt lat="44.03743" lon="6.24191">
        <ele>1022.98</ele>
        <time>2017-12-23T09:27:15Z</time>
      </trkpt>
      <trkpt lat="44.03738" lon="6.24203">
        <ele>1026.83</ele>
        <time>2017-12-23T09:27:25Z</time>
      </trkpt>
      <trkpt lat="44.03738" lon="6.24204">
        <ele>1025.38</ele>
        <time>2017-12-23T09:27:28Z</time>
      </trkpt>
      <trkpt lat="44.03737" lon="6.24204">
        <ele>1026.83</ele>
        <time>2017-12-23T09:27:32Z</time>
      </trkpt>
      <trkpt lat="44.03738" lon="6.24209">
        <ele>1031.15</ele>
        <time>2017-12-23T09:27:45Z</time>
      </trkpt>
      <trkpt lat="44.03739" lon="6.24209">
        <ele>1027.79</ele>
        <time>2017-12-23T09:27:46Z</time>
      </trkpt>
      <trkpt lat="44.03741" lon="6.24212">
        <ele>1029.23</ele>
        <time>2017-12-23T09:27:49Z</time>
      </trkpt>
      <trkpt lat="44.03743" lon="6.24214">
        <ele>1030.67</ele>
        <time>2017-12-23T09:27:52Z</time>
      </trkpt>
      <trkpt lat="44.03751" lon="6.24244">
        <ele>1034.52</ele>
        <time>2017-12-23T09:28:14Z</time>
      </trkpt>
      <trkpt lat="44.03756" lon="6.2426">
        <ele>1033.55</ele>
        <time>2017-12-23T09:28:35Z</time>
      </trkpt>
      <trkpt lat="44.03757" lon="6.2426">
        <ele>1035</ele>
        <time>2017-12-23T09:28:37Z</time>
      </trkpt>
      <trkpt lat="44.0376" lon="6.24266">
        <ele>1037.4</ele>
        <time>2017-12-23T09:28:44Z</time>
      </trkpt>
      <trkpt lat="44.03767" lon="6.24293">
        <ele>1039.8</ele>
        <time>2017-12-23T09:29:11Z</time>
      </trkpt>
      <trkpt lat="44.03753" lon="6.24312">
        <ele>1040.76</ele>
        <time>2017-12-23T09:29:28Z</time>
      </trkpt>
      <trkpt lat="44.03749" lon="6.24316">
        <ele>1042.69</ele>
        <time>2017-12-23T09:29:32Z</time>
      </trkpt>
      <trkpt lat="44.03745" lon="6.24319">
        <ele>1044.61</ele>
        <time>2017-12-23T09:29:52Z</time>
      </trkpt>
      <trkpt lat="44.03739" lon="6.24324">
        <ele>1044.61</ele>
        <time>2017-12-23T09:30:03Z</time>
      </trkpt>
      <trkpt lat="44.03723" lon="6.24329">
        <ele>1047.97</ele>
        <time>2017-12-23T09:30:21Z</time>
      </trkpt>
      <trkpt lat="44.03705" lon="6.24339">
        <ele>1049.9</ele>
        <time>2017-12-23T09:30:42Z</time>
      </trkpt>
      <trkpt lat="44.03706" lon="6.2435">
        <ele>1052.3</ele>
        <time>2017-12-23T09:30:49Z</time>
      </trkpt>
      <trkpt lat="44.03702" lon="6.24359">
        <ele>1053.26</ele>
        <time>2017-12-23T09:31:00Z</time>
      </trkpt>
      <trkpt lat="44.03698" lon="6.24368">
        <ele>1057.11</ele>
        <time>2017-12-23T09:31:15Z</time>
      </trkpt>
      <trkpt lat="44.037" lon="6.24373">
        <ele>1053.26</ele>
        <time>2017-12-23T09:31:26Z</time>
      </trkpt>
      <trkpt lat="44.037" lon="6.24373">
        <ele>1059.03</ele>
        <time>2017-12-23T09:31:27Z</time>
      </trkpt>
      <trkpt lat="44.03701" lon="6.24379">
        <ele>1059.51</ele>
        <time>2017-12-23T09:31:39Z</time>
      </trkpt>
      <trkpt lat="44.0371" lon="6.24397">
        <ele>1062.39</ele>
        <time>2017-12-23T09:31:59Z</time>
      </trkpt>
      <trkpt lat="44.03714" lon="6.24407">
        <ele>1063.84</ele>
        <time>2017-12-23T09:32:14Z</time>
      </trkpt>
      <trkpt lat="44.0372" lon="6.24415">
        <ele>1066.72</ele>
        <time>2017-12-23T09:32:25Z</time>
      </trkpt>
      <trkpt lat="44.03726" lon="6.24418">
        <ele>1066.72</ele>
        <time>2017-12-23T09:32:32Z</time>
      </trkpt>
      <trkpt lat="44.03726" lon="6.24421">
        <ele>1065.76</ele>
        <time>2017-12-23T09:32:42Z</time>
      </trkpt>
      <trkpt lat="44.03726" lon="6.24426">
        <ele>1069.12</ele>
        <time>2017-12-23T09:32:47Z</time>
      </trkpt>
      <trkpt lat="44.03736" lon="6.24433">
        <ele>1069.6</ele>
        <time>2017-12-23T09:33:07Z</time>
      </trkpt>
      <trkpt lat="44.03735" lon="6.24454">
        <ele>1072.97</ele>
        <time>2017-12-23T09:33:20Z</time>
      </trkpt>
      <trkpt lat="44.03737" lon="6.24464">
        <ele>1072.97</ele>
        <time>2017-12-23T09:33:28Z</time>
      </trkpt>
      <trkpt lat="44.03739" lon="6.24479">
        <ele>1075.85</ele>
        <time>2017-12-23T09:33:46Z</time>
      </trkpt>
      <trkpt lat="44.0374" lon="6.24479">
        <ele>1075.85</ele>
        <time>2017-12-23T09:33:47Z</time>
      </trkpt>
      <trkpt lat="44.03752" lon="6.24474">
        <ele>1078.74</ele>
        <time>2017-12-23T09:34:02Z</time>
      </trkpt>
      <trkpt lat="44.03765" lon="6.24486">
        <ele>1081.14</ele>
        <time>2017-12-23T09:34:25Z</time>
      </trkpt>
      <trkpt lat="44.03764" lon="6.24493">
        <ele>1084.99</ele>
        <time>2017-12-23T09:34:44Z</time>
      </trkpt>
      <trkpt lat="44.03763" lon="6.24498">
        <ele>1086.91</ele>
        <time>2017-12-23T09:34:55Z</time>
      </trkpt>
      <trkpt lat="44.03771" lon="6.2451">
        <ele>1088.35</ele>
        <time>2017-12-23T09:35:19Z</time>
      </trkpt>
      <trkpt lat="44.03773" lon="6.24513">
        <ele>1089.79</ele>
        <time>2017-12-23T09:35:23Z</time>
      </trkpt>
      <trkpt lat="44.03774" lon="6.24524">
        <ele>1092.2</ele>
        <time>2017-12-23T09:35:36Z</time>
      </trkpt>
      <trkpt lat="44.03778" lon="6.24531">
        <ele>1093.64</ele>
        <time>2017-12-23T09:35:48Z</time>
      </trkpt>
      <trkpt lat="44.03777" lon="6.24546">
        <ele>1096.04</ele>
        <time>2017-12-23T09:36:06Z</time>
      </trkpt>
      <trkpt lat="44.03777" lon="6.24548">
        <ele>1096.04</ele>
        <time>2017-12-23T09:36:07Z</time>
      </trkpt>
      <trkpt lat="44.03785" lon="6.24557">
        <ele>1098.44</ele>
        <time>2017-12-23T09:36:31Z</time>
      </trkpt>
      <trkpt lat="44.0379" lon="6.24554">
        <ele>1100.37</ele>
        <time>2017-12-23T09:36:37Z</time>
      </trkpt>
      <trkpt lat="44.03798" lon="6.24565">
        <ele>1103.25</ele>
        <time>2017-12-23T09:36:51Z</time>
      </trkpt>
      <trkpt lat="44.03797" lon="6.2457">
        <ele>1103.25</ele>
        <time>2017-12-23T09:36:57Z</time>
      </trkpt>
      <trkpt lat="44.03805" lon="6.24576">
        <ele>1105.17</ele>
        <time>2017-12-23T09:37:17Z</time>
      </trkpt>
      <trkpt lat="44.03802" lon="6.24578">
        <ele>1106.13</ele>
        <time>2017-12-23T09:37:45Z</time>
      </trkpt>
      <trkpt lat="44.03809" lon="6.24584">
        <ele>1106.61</ele>
        <time>2017-12-23T09:38:06Z</time>
      </trkpt>
      <trkpt lat="44.03809" lon="6.24586">
        <ele>1109.98</ele>
        <time>2017-12-23T09:38:11Z</time>
      </trkpt>
      <trkpt lat="44.03818" lon="6.24587">
        <ele>1113.34</ele>
        <time>2017-12-23T09:38:33Z</time>
      </trkpt>
      <trkpt lat="44.03819" lon="6.24587">
        <ele>1114.31</ele>
        <time>2017-12-23T09:38:44Z</time>
      </trkpt>
      <trkpt lat="44.03825" lon="6.24591">
        <ele>1117.67</ele>
        <time>2017-12-23T09:38:55Z</time>
      </trkpt>
      <trkpt lat="44.03829" lon="6.24593">
        <ele>1117.19</ele>
        <time>2017-12-23T09:39:00Z</time>
      </trkpt>
      <trkpt lat="44.03828" lon="6.24593">
        <ele>1117.19</ele>
        <time>2017-12-23T09:39:04Z</time>
      </trkpt>
      <trkpt lat="44.03843" lon="6.246">
        <ele>1118.15</ele>
        <time>2017-12-23T09:39:24Z</time>
      </trkpt>
      <trkpt lat="44.03843" lon="6.24603">
        <ele>1121.03</ele>
        <time>2017-12-23T09:39:27Z</time>
      </trkpt>
      <trkpt lat="44.03846" lon="6.24606">
        <ele>1120.07</ele>
        <time>2017-12-23T09:39:50Z</time>
      </trkpt>
      <trkpt lat="44.03842" lon="6.24616">
        <ele>1120.07</ele>
        <time>2017-12-23T09:40:12Z</time>
      </trkpt>
      <trkpt lat="44.03834" lon="6.24616">
        <ele>1120.07</ele>
        <time>2017-12-23T09:40:36Z</time>
      </trkpt>
      <trkpt lat="44.0384" lon="6.24616">
        <ele>1121.03</ele>
        <time>2017-12-23T09:41:00Z</time>
      </trkpt>
      <trkpt lat="44.03845" lon="6.24604">
        <ele>1124.4</ele>
        <time>2017-12-23T09:41:09Z</time>
      </trkpt>
      <trkpt lat="44.03847" lon="6.246">
        <ele>1124.4</ele>
        <time>2017-12-23T09:41:15Z</time>
      </trkpt>
      <trkpt lat="44.03844" lon="6.246">
        <ele>1126.32</ele>
        <time>2017-12-23T09:41:23Z</time>
      </trkpt>
      <trkpt lat="44.03852" lon="6.24607">
        <ele>1127.76</ele>
        <time>2017-12-23T09:41:33Z</time>
      </trkpt>
      <trkpt lat="44.03863" lon="6.24603">
        <ele>1130.65</ele>
        <time>2017-12-23T09:41:44Z</time>
      </trkpt>
      <trkpt lat="44.03869" lon="6.24611">
        <ele>1132.57</ele>
        <time>2017-12-23T09:42:04Z</time>
      </trkpt>
      <trkpt lat="44.03867" lon="6.24607">
        <ele>1135.94</ele>
        <time>2017-12-23T09:42:18Z</time>
      </trkpt>
      <trkpt lat="44.03867" lon="6.24603">
        <ele>1135.94</ele>
        <time>2017-12-23T09:42:23Z</time>
      </trkpt>
      <trkpt lat="44.03872" lon="6.24599">
        <ele>1135.45</ele>
        <time>2017-12-23T09:42:28Z</time>
      </trkpt>
      <trkpt lat="44.03882" lon="6.24583">
        <ele>1138.34</ele>
        <time>2017-12-23T09:42:40Z</time>
      </trkpt>
      <trkpt lat="44.03884" lon="6.24581">
        <ele>1141.7</ele>
        <time>2017-12-23T09:42:54Z</time>
      </trkpt>
      <trkpt lat="44.03885" lon="6.24581">
        <ele>1141.7</ele>
        <time>2017-12-23T09:43:00Z</time>
      </trkpt>
      <trkpt lat="44.0389" lon="6.2458">
        <ele>1142.66</ele>
        <time>2017-12-23T09:43:11Z</time>
      </trkpt>
      <trkpt lat="44.03892" lon="6.24582">
        <ele>1144.11</ele>
        <time>2017-12-23T09:43:18Z</time>
      </trkpt>
      <trkpt lat="44.03894" lon="6.24598">
        <ele>1147.47</ele>
        <time>2017-12-23T09:43:33Z</time>
      </trkpt>
      <trkpt lat="44.03889" lon="6.24589">
        <ele>1151.32</ele>
        <time>2017-12-23T09:43:53Z</time>
      </trkpt>
      <trkpt lat="44.03887" lon="6.24585">
        <ele>1151.8</ele>
        <time>2017-12-23T09:43:59Z</time>
      </trkpt>
      <trkpt lat="44.03882" lon="6.24573">
        <ele>1153.24</ele>
        <time>2017-12-23T09:44:07Z</time>
      </trkpt>
      <trkpt lat="44.03888" lon="6.24554">
        <ele>1153.24</ele>
        <time>2017-12-23T09:44:29Z</time>
      </trkpt>
      <trkpt lat="44.03889" lon="6.24548">
        <ele>1156.12</ele>
        <time>2017-12-23T09:44:39Z</time>
      </trkpt>
      <trkpt lat="44.03896" lon="6.24529">
        <ele>1159.01</ele>
        <time>2017-12-23T09:44:59Z</time>
      </trkpt>
      <trkpt lat="44.03896" lon="6.24515">
        <ele>1160.93</ele>
        <time>2017-12-23T09:45:14Z</time>
      </trkpt>
      <trkpt lat="44.03895" lon="6.24512">
        <ele>1162.37</ele>
        <time>2017-12-23T09:45:20Z</time>
      </trkpt>
      <trkpt lat="44.03908" lon="6.24506">
        <ele>1164.77</ele>
        <time>2017-12-23T09:45:38Z</time>
      </trkpt>
      <trkpt lat="44.03914" lon="6.2452">
        <ele>1168.14</ele>
        <time>2017-12-23T09:45:56Z</time>
      </trkpt>
      <trkpt lat="44.03916" lon="6.24536">
        <ele>1169.58</ele>
        <time>2017-12-23T09:46:12Z</time>
      </trkpt>
      <trkpt lat="44.03917" lon="6.24539">
        <ele>1171.02</ele>
        <time>2017-12-23T09:46:15Z</time>
      </trkpt>
      <trkpt lat="44.03924" lon="6.24528">
        <ele>1173.43</ele>
        <time>2017-12-23T09:46:38Z</time>
      </trkpt>
      <trkpt lat="44.03926" lon="6.24525">
        <ele>1175.83</ele>
        <time>2017-12-23T09:46:47Z</time>
      </trkpt>
      <trkpt lat="44.03928" lon="6.24521">
        <ele>1176.79</ele>
        <time>2017-12-23T09:46:56Z</time>
      </trkpt>
      <trkpt lat="44.03923" lon="6.24512">
        <ele>1180.16</ele>
        <time>2017-12-23T09:47:12Z</time>
      </trkpt>
      <trkpt lat="44.03937" lon="6.24515">
        <ele>1182.08</ele>
        <time>2017-12-23T09:47:36Z</time>
      </trkpt>
      <trkpt lat="44.03943" lon="6.24521">
        <ele>1183.52</ele>
        <time>2017-12-23T09:47:46Z</time>
      </trkpt>
      <trkpt lat="44.03946" lon="6.24531">
        <ele>1185.44</ele>
        <time>2017-12-23T09:48:02Z</time>
      </trkpt>
      <trkpt lat="44.03947" lon="6.24526">
        <ele>1188.81</ele>
        <time>2017-12-23T09:48:19Z</time>
      </trkpt>
      <trkpt lat="44.03948" lon="6.24523">
        <ele>1191.69</ele>
        <time>2017-12-23T09:48:39Z</time>
      </trkpt>
      <trkpt lat="44.03951" lon="6.2451">
        <ele>1192.17</ele>
        <time>2017-12-23T09:49:04Z</time>
      </trkpt>
      <trkpt lat="44.03953" lon="6.24502">
        <ele>1195.54</ele>
        <time>2017-12-23T09:49:12Z</time>
      </trkpt>
      <trkpt lat="44.03962" lon="6.24501">
        <ele>1196.5</ele>
        <time>2017-12-23T09:49:37Z</time>
      </trkpt>
      <trkpt lat="44.03962" lon="6.24502">
        <ele>1197.46</ele>
        <time>2017-12-23T09:49:39Z</time>
      </trkpt>
      <trkpt lat="44.03961" lon="6.24498">
        <ele>1197.94</ele>
        <time>2017-12-23T09:49:56Z</time>
      </trkpt>
      <trkpt lat="44.03964" lon="6.24503">
        <ele>1201.79</ele>
        <time>2017-12-23T09:50:08Z</time>
      </trkpt>
      <trkpt lat="44.0397" lon="6.24513">
        <ele>1203.71</ele>
        <time>2017-12-23T09:50:23Z</time>
      </trkpt>
      <trkpt lat="44.03975" lon="6.2452">
        <ele>1207.07</ele>
        <time>2017-12-23T09:50:46Z</time>
      </trkpt>
      <trkpt lat="44.03978" lon="6.2452">
        <ele>1207.55</ele>
        <time>2017-12-23T09:50:52Z</time>
      </trkpt>
      <trkpt lat="44.03985" lon="6.24531">
        <ele>1211.4</ele>
        <time>2017-12-23T09:51:08Z</time>
      </trkpt>
      <trkpt lat="44.03996" lon="6.24542">
        <ele>1214.76</ele>
        <time>2017-12-23T09:51:30Z</time>
      </trkpt>
      <trkpt lat="44.03999" lon="6.24538">
        <ele>1214.76</ele>
        <time>2017-12-23T09:51:51Z</time>
      </trkpt>
      <trkpt lat="44.04003" lon="6.24533">
        <ele>1218.61</ele>
        <time>2017-12-23T09:52:01Z</time>
      </trkpt>
      <trkpt lat="44.04008" lon="6.2454">
        <ele>1221.01</ele>
        <time>2017-12-23T09:52:22Z</time>
      </trkpt>
      <trkpt lat="44.04009" lon="6.24545">
        <ele>1224.38</ele>
        <time>2017-12-23T09:52:38Z</time>
      </trkpt>
      <trkpt lat="44.04019" lon="6.24545">
        <ele>1225.34</ele>
        <time>2017-12-23T09:52:50Z</time>
      </trkpt>
      <trkpt lat="44.04023" lon="6.24554">
        <ele>1225.82</ele>
        <time>2017-12-23T09:53:14Z</time>
      </trkpt>
      <trkpt lat="44.04027" lon="6.24558">
        <ele>1229.18</ele>
        <time>2017-12-23T09:53:32Z</time>
      </trkpt>
      <trkpt lat="44.04042" lon="6.24563">
        <ele>1232.55</ele>
        <time>2017-12-23T09:53:53Z</time>
      </trkpt>
      <trkpt lat="44.04043" lon="6.24564">
        <ele>1232.55</ele>
        <time>2017-12-23T09:53:54Z</time>
      </trkpt>
      <trkpt lat="44.04038" lon="6.24575">
        <ele>1233.99</ele>
        <time>2017-12-23T09:54:07Z</time>
      </trkpt>
      <trkpt lat="44.04039" lon="6.24579">
        <ele>1234.95</ele>
        <time>2017-12-23T09:54:20Z</time>
      </trkpt>
      <trkpt lat="44.04041" lon="6.24582">
        <ele>1236.39</ele>
        <time>2017-12-23T09:54:35Z</time>
      </trkpt>
      <trkpt lat="44.04046" lon="6.24592">
        <ele>1238.32</ele>
        <time>2017-12-23T09:54:52Z</time>
      </trkpt>
      <trkpt lat="44.04052" lon="6.24597">
        <ele>1241.2</ele>
        <time>2017-12-23T09:55:07Z</time>
      </trkpt>
      <trkpt lat="44.04057" lon="6.24603">
        <ele>1242.64</ele>
        <time>2017-12-23T09:55:20Z</time>
      </trkpt>
      <trkpt lat="44.04063" lon="6.24608">
        <ele>1245.53</ele>
        <time>2017-12-23T09:55:34Z</time>
      </trkpt>
      <trkpt lat="44.04068" lon="6.24616">
        <ele>1246.49</ele>
        <time>2017-12-23T09:55:50Z</time>
      </trkpt>
      <trkpt lat="44.04073" lon="6.2462">
        <ele>1248.89</ele>
        <time>2017-12-23T09:56:03Z</time>
      </trkpt>
      <trkpt lat="44.04079" lon="6.24627">
        <ele>1251.29</ele>
        <time>2017-12-23T09:56:17Z</time>
      </trkpt>
      <trkpt lat="44.04079" lon="6.24634">
        <ele>1251.77</ele>
        <time>2017-12-23T09:56:36Z</time>
      </trkpt>
      <trkpt lat="44.0408" lon="6.24641">
        <ele>1254.66</ele>
        <time>2017-12-23T09:56:51Z</time>
      </trkpt>
      <trkpt lat="44.0408" lon="6.24641">
        <ele>1254.66</ele>
        <time>2017-12-23T09:56:52Z</time>
      </trkpt>
      <trkpt lat="44.04079" lon="6.24641">
        <ele>1255.14</ele>
        <time>2017-12-23T09:57:14Z</time>
      </trkpt>
      <trkpt lat="44.04083" lon="6.24651">
        <ele>1256.58</ele>
        <time>2017-12-23T09:57:30Z</time>
      </trkpt>
      <trkpt lat="44.0409" lon="6.2466">
        <ele>1258.98</ele>
        <time>2017-12-23T09:57:45Z</time>
      </trkpt>
      <trkpt lat="44.04092" lon="6.24667">
        <ele>1260.43</ele>
        <time>2017-12-23T09:58:01Z</time>
      </trkpt>
      <trkpt lat="44.041" lon="6.24674">
        <ele>1262.83</ele>
        <time>2017-12-23T09:58:15Z</time>
      </trkpt>
      <trkpt lat="44.04106" lon="6.24679">
        <ele>1263.79</ele>
        <time>2017-12-23T09:58:30Z</time>
      </trkpt>
      <trkpt lat="44.0411" lon="6.24687">
        <ele>1266.67</ele>
        <time>2017-12-23T09:58:46Z</time>
      </trkpt>
      <trkpt lat="44.04114" lon="6.24693">
        <ele>1269.08</ele>
        <time>2017-12-23T09:58:59Z</time>
      </trkpt>
      <trkpt lat="44.04116" lon="6.24699">
        <ele>1270.52</ele>
        <time>2017-12-23T09:59:13Z</time>
      </trkpt>
      <trkpt lat="44.0412" lon="6.24707">
        <ele>1272.92</ele>
        <time>2017-12-23T09:59:27Z</time>
      </trkpt>
      <trkpt lat="44.04121" lon="6.24709">
        <ele>1273.88</ele>
        <time>2017-12-23T09:59:41Z</time>
      </trkpt>
      <trkpt lat="44.04124" lon="6.2472">
        <ele>1274.85</ele>
        <time>2017-12-23T09:59:57Z</time>
      </trkpt>
      <trkpt lat="44.04127" lon="6.24734">
        <ele>1276.77</ele>
        <time>2017-12-23T10:00:12Z</time>
      </trkpt>
      <trkpt lat="44.04133" lon="6.24739">
        <ele>1279.17</ele>
        <time>2017-12-23T10:00:25Z</time>
      </trkpt>
      <trkpt lat="44.04132" lon="6.24738">
        <ele>1281.09</ele>
        <time>2017-12-23T10:00:33Z</time>
      </trkpt>
      <trkpt lat="44.04133" lon="6.2474">
        <ele>1281.57</ele>
        <time>2017-12-23T10:00:54Z</time>
      </trkpt>
      <trkpt lat="44.04136" lon="6.24748">
        <ele>1283.5</ele>
        <time>2017-12-23T10:01:07Z</time>
      </trkpt>
      <trkpt lat="44.0414" lon="6.24756">
        <ele>1285.42</ele>
        <time>2017-12-23T10:01:29Z</time>
      </trkpt>
      <trkpt lat="44.04145" lon="6.24759">
        <ele>1288.3</ele>
        <time>2017-12-23T10:01:43Z</time>
      </trkpt>
      <trkpt lat="44.04146" lon="6.2476">
        <ele>1289.27</ele>
        <time>2017-12-23T10:02:03Z</time>
      </trkpt>
      <trkpt lat="44.04148" lon="6.24765">
        <ele>1290.71</ele>
        <time>2017-12-23T10:02:21Z</time>
      </trkpt>
      <trkpt lat="44.04155" lon="6.24772">
        <ele>1293.11</ele>
        <time>2017-12-23T10:02:34Z</time>
      </trkpt>
      <trkpt lat="44.04158" lon="6.24778">
        <ele>1294.55</ele>
        <time>2017-12-23T10:02:47Z</time>
      </trkpt>
      <trkpt lat="44.04162" lon="6.2478">
        <ele>1295.51</ele>
        <time>2017-12-23T10:03:06Z</time>
      </trkpt>
      <trkpt lat="44.04167" lon="6.24789">
        <ele>1298.4</ele>
        <time>2017-12-23T10:03:22Z</time>
      </trkpt>
      <trkpt lat="44.0417" lon="6.2479">
        <ele>1299.36</ele>
        <time>2017-12-23T10:03:33Z</time>
      </trkpt>
      <trkpt lat="44.04173" lon="6.24794">
        <ele>1300.32</ele>
        <time>2017-12-23T10:03:48Z</time>
      </trkpt>
      <trkpt lat="44.04177" lon="6.24801">
        <ele>1303.69</ele>
        <time>2017-12-23T10:03:59Z</time>
      </trkpt>
      <trkpt lat="44.04181" lon="6.24801">
        <ele>1304.17</ele>
        <time>2017-12-23T10:04:17Z</time>
      </trkpt>
      <trkpt lat="44.0418" lon="6.24795">
        <ele>1305.13</ele>
        <time>2017-12-23T10:04:31Z</time>
      </trkpt>
      <trkpt lat="44.0418" lon="6.24789">
        <ele>1306.09</ele>
        <time>2017-12-23T10:05:03Z</time>
      </trkpt>
      <trkpt lat="44.04184" lon="6.24794">
        <ele>1307.05</ele>
        <time>2017-12-23T10:05:22Z</time>
      </trkpt>
      <trkpt lat="44.04187" lon="6.24799">
        <ele>1309.93</ele>
        <time>2017-12-23T10:05:30Z</time>
      </trkpt>
      <trkpt lat="44.04193" lon="6.24804">
        <ele>1311.38</ele>
        <time>2017-12-23T10:05:45Z</time>
      </trkpt>
      <trkpt lat="44.04197" lon="6.24801">
        <ele>1314.26</ele>
        <time>2017-12-23T10:05:58Z</time>
      </trkpt>
      <trkpt lat="44.04194" lon="6.24793">
        <ele>1316.18</ele>
        <time>2017-12-23T10:06:11Z</time>
      </trkpt>
      <trkpt lat="44.04199" lon="6.24788">
        <ele>1318.1</ele>
        <time>2017-12-23T10:06:27Z</time>
      </trkpt>
      <trkpt lat="44.04205" lon="6.24793">
        <ele>1320.03</ele>
        <time>2017-12-23T10:06:44Z</time>
      </trkpt>
      <trkpt lat="44.0421" lon="6.24792">
        <ele>1320.99</ele>
        <time>2017-12-23T10:07:04Z</time>
      </trkpt>
      <trkpt lat="44.04213" lon="6.24792">
        <ele>1321.95</ele>
        <time>2017-12-23T10:07:25Z</time>
      </trkpt>
      <trkpt lat="44.04213" lon="6.24786">
        <ele>1324.83</ele>
        <time>2017-12-23T10:07:38Z</time>
      </trkpt>
      <trkpt lat="44.04218" lon="6.24784">
        <ele>1326.76</ele>
        <time>2017-12-23T10:07:56Z</time>
      </trkpt>
      <trkpt lat="44.04223" lon="6.24784">
        <ele>1329.64</ele>
        <time>2017-12-23T10:08:19Z</time>
      </trkpt>
      <trkpt lat="44.04225" lon="6.24787">
        <ele>1330.12</ele>
        <time>2017-12-23T10:08:34Z</time>
      </trkpt>
      <trkpt lat="44.04231" lon="6.2479">
        <ele>1333.01</ele>
        <time>2017-12-23T10:08:50Z</time>
      </trkpt>
      <trkpt lat="44.04234" lon="6.24793">
        <ele>1334.45</ele>
        <time>2017-12-23T10:09:07Z</time>
      </trkpt>
      <trkpt lat="44.04236" lon="6.24787">
        <ele>1337.33</ele>
        <time>2017-12-23T10:09:18Z</time>
      </trkpt>
      <trkpt lat="44.04236" lon="6.24777">
        <ele>1339.25</ele>
        <time>2017-12-23T10:09:31Z</time>
      </trkpt>
      <trkpt lat="44.04237" lon="6.2477">
        <ele>1340.7</ele>
        <time>2017-12-23T10:09:43Z</time>
      </trkpt>
      <trkpt lat="44.04233" lon="6.24759">
        <ele>1342.14</ele>
        <time>2017-12-23T10:10:00Z</time>
      </trkpt>
      <trkpt lat="44.04232" lon="6.24758">
        <ele>1342.14</ele>
        <time>2017-12-23T10:10:01Z</time>
      </trkpt>
      <trkpt lat="44.0423" lon="6.24746">
        <ele>1343.1</ele>
        <time>2017-12-23T10:10:15Z</time>
      </trkpt>
      <trkpt lat="44.04233" lon="6.24746">
        <ele>1344.54</ele>
        <time>2017-12-23T10:10:35Z</time>
      </trkpt>
      <trkpt lat="44.04237" lon="6.2475">
        <ele>1345.5</ele>
        <time>2017-12-23T10:10:42Z</time>
      </trkpt>
      <trkpt lat="44.04246" lon="6.24755">
        <ele>1347.91</ele>
        <time>2017-12-23T10:10:56Z</time>
      </trkpt>
      <trkpt lat="44.0425" lon="6.2476">
        <ele>1350.31</ele>
        <time>2017-12-23T10:11:15Z</time>
      </trkpt>
      <trkpt lat="44.04256" lon="6.24766">
        <ele>1352.23</ele>
        <time>2017-12-23T10:11:31Z</time>
      </trkpt>
      <trkpt lat="44.04263" lon="6.24776">
        <ele>1353.67</ele>
        <time>2017-12-23T10:11:46Z</time>
      </trkpt>
      <trkpt lat="44.04264" lon="6.24782">
        <ele>1355.6</ele>
        <time>2017-12-23T10:12:03Z</time>
      </trkpt>
      <trkpt lat="44.04269" lon="6.24789">
        <ele>1357.04</ele>
        <time>2017-12-23T10:12:22Z</time>
      </trkpt>
      <trkpt lat="44.04281" lon="6.2479">
        <ele>1358.48</ele>
        <time>2017-12-23T10:12:38Z</time>
      </trkpt>
      <trkpt lat="44.04289" lon="6.24788">
        <ele>1361.36</ele>
        <time>2017-12-23T10:12:52Z</time>
      </trkpt>
      <trkpt lat="44.04294" lon="6.24792">
        <ele>1362.33</ele>
        <time>2017-12-23T10:13:11Z</time>
      </trkpt>
      <trkpt lat="44.04304" lon="6.24801">
        <ele>1365.69</ele>
        <time>2017-12-23T10:13:28Z</time>
      </trkpt>
      <trkpt lat="44.0431" lon="6.24801">
        <ele>1367.13</ele>
        <time>2017-12-23T10:13:44Z</time>
      </trkpt>
      <trkpt lat="44.04315" lon="6.24795">
        <ele>1368.57</ele>
        <time>2017-12-23T10:13:57Z</time>
      </trkpt>
      <trkpt lat="44.04319" lon="6.24787">
        <ele>1371.46</ele>
        <time>2017-12-23T10:14:11Z</time>
      </trkpt>
      <trkpt lat="44.04324" lon="6.24783">
        <ele>1371.94</ele>
        <time>2017-12-23T10:14:31Z</time>
      </trkpt>
      <trkpt lat="44.04327" lon="6.24779">
        <ele>1374.82</ele>
        <time>2017-12-23T10:14:48Z</time>
      </trkpt>
      <trkpt lat="44.0433" lon="6.2477">
        <ele>1376.26</ele>
        <time>2017-12-23T10:15:03Z</time>
      </trkpt>
      <trkpt lat="44.04333" lon="6.24763">
        <ele>1378.67</ele>
        <time>2017-12-23T10:15:19Z</time>
      </trkpt>
      <trkpt lat="44.04335" lon="6.24752">
        <ele>1381.55</ele>
        <time>2017-12-23T10:15:34Z</time>
      </trkpt>
      <trkpt lat="44.04346" lon="6.24744">
        <ele>1383.47</ele>
        <time>2017-12-23T10:15:50Z</time>
      </trkpt>
      <trkpt lat="44.04353" lon="6.24731">
        <ele>1383.47</ele>
        <time>2017-12-23T10:16:05Z</time>
      </trkpt>
      <trkpt lat="44.04355" lon="6.24721">
        <ele>1383.47</ele>
        <time>2017-12-23T10:16:18Z</time>
      </trkpt>
      <trkpt lat="44.04354" lon="6.24721">
        <ele>1383.47</ele>
        <time>2017-12-23T10:16:52Z</time>
      </trkpt>
      <trkpt lat="44.04357" lon="6.24721">
        <ele>1383.47</ele>
        <time>2017-12-23T10:17:07Z</time>
      </trkpt>
      <trkpt lat="44.04357" lon="6.24718">
        <ele>1383.96</ele>
        <time>2017-12-23T10:17:29Z</time>
      </trkpt>
      <trkpt lat="44.04357" lon="6.24717">
        <ele>1384.44</ele>
        <time>2017-12-23T10:18:00Z</time>
      </trkpt>
      <trkpt lat="44.04357" lon="6.24718">
        <ele>1384.92</ele>
        <time>2017-12-23T10:18:24Z</time>
      </trkpt>
      <trkpt lat="44.04356" lon="6.24716">
        <ele>1384.92</ele>
        <time>2017-12-23T10:18:53Z</time>
      </trkpt>
      <trkpt lat="44.04352" lon="6.24716">
        <ele>1384.92</ele>
        <time>2017-12-23T10:19:09Z</time>
      </trkpt>
      <trkpt lat="44.04348" lon="6.24708">
        <ele>1385.88</ele>
        <time>2017-12-23T10:19:23Z</time>
      </trkpt>
      <trkpt lat="44.04339" lon="6.24699">
        <ele>1386.84</ele>
        <time>2017-12-23T10:19:38Z</time>
      </trkpt>
      <trkpt lat="44.04331" lon="6.24691">
        <ele>1389.24</ele>
        <time>2017-12-23T10:19:53Z</time>
      </trkpt>
      <trkpt lat="44.04329" lon="6.24689">
        <ele>1390.2</ele>
        <time>2017-12-23T10:19:59Z</time>
      </trkpt>
      <trkpt lat="44.04317" lon="6.24686">
        <ele>1392.61</ele>
        <time>2017-12-23T10:20:17Z</time>
      </trkpt>
      <trkpt lat="44.04311" lon="6.24679">
        <ele>1395.49</ele>
        <time>2017-12-23T10:20:33Z</time>
      </trkpt>
      <trkpt lat="44.04307" lon="6.24674">
        <ele>1397.89</ele>
        <time>2017-12-23T10:20:47Z</time>
      </trkpt>
      <trkpt lat="44.04306" lon="6.24671">
        <ele>1399.34</ele>
        <time>2017-12-23T10:20:53Z</time>
      </trkpt>
      <trkpt lat="44.04306" lon="6.24663">
        <ele>1401.26</ele>
        <time>2017-12-23T10:21:07Z</time>
      </trkpt>
      <trkpt lat="44.04312" lon="6.24653">
        <ele>1402.7</ele>
        <time>2017-12-23T10:21:21Z</time>
      </trkpt>
      <trkpt lat="44.04314" lon="6.24644">
        <ele>1404.62</ele>
        <time>2017-12-23T10:21:36Z</time>
      </trkpt>
      <trkpt lat="44.04318" lon="6.24633">
        <ele>1407.99</ele>
        <time>2017-12-23T10:21:52Z</time>
      </trkpt>
      <trkpt lat="44.04318" lon="6.24624">
        <ele>1409.43</ele>
        <time>2017-12-23T10:22:06Z</time>
      </trkpt>
      <trkpt lat="44.04323" lon="6.24617">
        <ele>1411.35</ele>
        <time>2017-12-23T10:22:21Z</time>
      </trkpt>
      <trkpt lat="44.04329" lon="6.24607">
        <ele>1413.28</ele>
        <time>2017-12-23T10:22:36Z</time>
      </trkpt>
      <trkpt lat="44.04332" lon="6.24597">
        <ele>1416.16</ele>
        <time>2017-12-23T10:22:52Z</time>
      </trkpt>
      <trkpt lat="44.04333" lon="6.24591">
        <ele>1417.12</ele>
        <time>2017-12-23T10:23:07Z</time>
      </trkpt>
      <trkpt lat="44.04338" lon="6.24585">
        <ele>1419.52</ele>
        <time>2017-12-23T10:23:23Z</time>
      </trkpt>
      <trkpt lat="44.04344" lon="6.24577">
        <ele>1420.97</ele>
        <time>2017-12-23T10:23:38Z</time>
      </trkpt>
      <trkpt lat="44.0435" lon="6.24569">
        <ele>1423.85</ele>
        <time>2017-12-23T10:23:54Z</time>
      </trkpt>
      <trkpt lat="44.04353" lon="6.24561">
        <ele>1426.25</ele>
        <time>2017-12-23T10:24:09Z</time>
      </trkpt>
      <trkpt lat="44.04358" lon="6.24552">
        <ele>1428.66</ele>
        <time>2017-12-23T10:24:25Z</time>
      </trkpt>
      <trkpt lat="44.04363" lon="6.24544">
        <ele>1431.06</ele>
        <time>2017-12-23T10:24:41Z</time>
      </trkpt>
      <trkpt lat="44.04368" lon="6.24536">
        <ele>1433.46</ele>
        <time>2017-12-23T10:24:58Z</time>
      </trkpt>
      <trkpt lat="44.0437" lon="6.24527">
        <ele>1434.91</ele>
        <time>2017-12-23T10:25:13Z</time>
      </trkpt>
      <trkpt lat="44.04372" lon="6.24523">
        <ele>1437.31</ele>
        <time>2017-12-23T10:25:26Z</time>
      </trkpt>
      <trkpt lat="44.04377" lon="6.24516">
        <ele>1438.75</ele>
        <time>2017-12-23T10:25:43Z</time>
      </trkpt>
      <trkpt lat="44.04381" lon="6.24508">
        <ele>1440.19</ele>
        <time>2017-12-23T10:25:55Z</time>
      </trkpt>
      <trkpt lat="44.04382" lon="6.24501">
        <ele>1442.6</ele>
        <time>2017-12-23T10:26:09Z</time>
      </trkpt>
      <trkpt lat="44.04383" lon="6.24498">
        <ele>1444.04</ele>
        <time>2017-12-23T10:26:28Z</time>
      </trkpt>
      <trkpt lat="44.04386" lon="6.24491">
        <ele>1445.96</ele>
        <time>2017-12-23T10:26:43Z</time>
      </trkpt>
      <trkpt lat="44.04389" lon="6.24482">
        <ele>1448.36</ele>
        <time>2017-12-23T10:27:01Z</time>
      </trkpt>
      <trkpt lat="44.04392" lon="6.24476">
        <ele>1449.32</ele>
        <time>2017-12-23T10:27:17Z</time>
      </trkpt>
      <trkpt lat="44.04393" lon="6.2447">
        <ele>1451.25</ele>
        <time>2017-12-23T10:27:33Z</time>
      </trkpt>
      <trkpt lat="44.04396" lon="6.24466">
        <ele>1453.17</ele>
        <time>2017-12-23T10:27:46Z</time>
      </trkpt>
      <trkpt lat="44.04397" lon="6.24468">
        <ele>1452.21</ele>
        <time>2017-12-23T10:28:12Z</time>
      </trkpt>
      <trkpt lat="44.04396" lon="6.24465">
        <ele>1452.21</ele>
        <time>2017-12-23T10:28:37Z</time>
      </trkpt>
      <trkpt lat="44.04398" lon="6.24461">
        <ele>1454.13</ele>
        <time>2017-12-23T10:28:56Z</time>
      </trkpt>
      <trkpt lat="44.04401" lon="6.24452">
        <ele>1457.02</ele>
        <time>2017-12-23T10:29:11Z</time>
      </trkpt>
      <trkpt lat="44.04405" lon="6.24445">
        <ele>1458.46</ele>
        <time>2017-12-23T10:29:23Z</time>
      </trkpt>
      <trkpt lat="44.04411" lon="6.24437">
        <ele>1460.38</ele>
        <time>2017-12-23T10:29:38Z</time>
      </trkpt>
      <trkpt lat="44.04412" lon="6.24434">
        <ele>1461.82</ele>
        <time>2017-12-23T10:29:42Z</time>
      </trkpt>
      <trkpt lat="44.0441" lon="6.24427">
        <ele>1464.23</ele>
        <time>2017-12-23T10:29:56Z</time>
      </trkpt>
      <trkpt lat="44.04414" lon="6.24421">
        <ele>1466.15</ele>
        <time>2017-12-23T10:30:10Z</time>
      </trkpt>
      <trkpt lat="44.04409" lon="6.24419">
        <ele>1467.59</ele>
        <time>2017-12-23T10:30:26Z</time>
      </trkpt>
      <trkpt lat="44.04409" lon="6.24411">
        <ele>1468.55</ele>
        <time>2017-12-23T10:30:45Z</time>
      </trkpt>
      <trkpt lat="44.04408" lon="6.2441">
        <ele>1469.03</ele>
        <time>2017-12-23T10:31:03Z</time>
      </trkpt>
      <trkpt lat="44.04409" lon="6.24413">
        <ele>1469.51</ele>
        <time>2017-12-23T10:31:32Z</time>
      </trkpt>
      <trkpt lat="44.04409" lon="6.2441">
        <ele>1469.51</ele>
        <time>2017-12-23T10:31:56Z</time>
      </trkpt>
      <trkpt lat="44.04407" lon="6.24407">
        <ele>1469.51</ele>
        <time>2017-12-23T10:32:18Z</time>
      </trkpt>
      <trkpt lat="44.04406" lon="6.24406">
        <ele>1469.99</ele>
        <time>2017-12-23T10:32:49Z</time>
      </trkpt>
      <trkpt lat="44.04405" lon="6.24407">
        <ele>1469.99</ele>
        <time>2017-12-23T10:33:22Z</time>
      </trkpt>
      <trkpt lat="44.04408" lon="6.24407">
        <ele>1470.47</ele>
        <time>2017-12-23T10:34:01Z</time>
      </trkpt>
      <trkpt lat="44.04405" lon="6.24403">
        <ele>1470.95</ele>
        <time>2017-12-23T10:34:25Z</time>
      </trkpt>
      <trkpt lat="44.04403" lon="6.24403">
        <ele>1470.47</ele>
        <time>2017-12-23T10:34:34Z</time>
      </trkpt>
      <trkpt lat="44.04397" lon="6.24402">
        <ele>1471.92</ele>
        <time>2017-12-23T10:34:40Z</time>
      </trkpt>
      <trkpt lat="44.04381" lon="6.24397">
        <ele>1471.92</ele>
        <time>2017-12-23T10:34:54Z</time>
      </trkpt>
      <trkpt lat="44.04375" lon="6.24397">
        <ele>1471.92</ele>
        <time>2017-12-23T10:35:00Z</time>
      </trkpt>
      <trkpt lat="44.0437" lon="6.24398">
        <ele>1472.4</ele>
        <time>2017-12-23T10:35:06Z</time>
      </trkpt>
      <trkpt lat="44.04356" lon="6.24401">
        <ele>1474.8</ele>
        <time>2017-12-23T10:35:26Z</time>
      </trkpt>
      <trkpt lat="44.04356" lon="6.24413">
        <ele>1474.8</ele>
        <time>2017-12-23T10:35:48Z</time>
      </trkpt>
      <trkpt lat="44.04354" lon="6.24405">
        <ele>1475.76</ele>
        <time>2017-12-23T10:36:15Z</time>
      </trkpt>
      <trkpt lat="44.04363" lon="6.24393">
        <ele>1474.32</ele>
        <time>2017-12-23T10:36:33Z</time>
      </trkpt>
      <trkpt lat="44.0437" lon="6.24377">
        <ele>1472.4</ele>
        <time>2017-12-23T10:36:49Z</time>
      </trkpt>
      <trkpt lat="44.04373" lon="6.24372">
        <ele>1472.4</ele>
        <time>2017-12-23T10:37:00Z</time>
      </trkpt>
      <trkpt lat="44.04373" lon="6.24371">
        <ele>1472.4</ele>
        <time>2017-12-23T10:37:01Z</time>
      </trkpt>
      <trkpt lat="44.04373" lon="6.24348">
        <ele>1472.4</ele>
        <time>2017-12-23T10:37:18Z</time>
      </trkpt>
      <trkpt lat="44.04372" lon="6.24339">
        <ele>1473.84</ele>
        <time>2017-12-23T10:37:25Z</time>
      </trkpt>
      <trkpt lat="44.04377" lon="6.24305">
        <ele>1471.92</ele>
        <time>2017-12-23T10:37:49Z</time>
      </trkpt>
      <trkpt lat="44.0437" lon="6.24274">
        <ele>1470.95</ele>
        <time>2017-12-23T10:38:15Z</time>
      </trkpt>
      <trkpt lat="44.04362" lon="6.24262">
        <ele>1470.95</ele>
        <time>2017-12-23T10:38:29Z</time>
      </trkpt>
      <trkpt lat="44.0436" lon="6.24262">
        <ele>1470.47</ele>
        <time>2017-12-23T10:38:31Z</time>
      </trkpt>
      <trkpt lat="44.04358" lon="6.24261">
        <ele>1469.51</ele>
        <time>2017-12-23T10:38:33Z</time>
      </trkpt>
      <trkpt lat="44.04341" lon="6.24258">
        <ele>1466.15</ele>
        <time>2017-12-23T10:38:53Z</time>
      </trkpt>
      <trkpt lat="44.04349" lon="6.24232">
        <ele>1465.67</ele>
        <time>2017-12-23T10:39:16Z</time>
      </trkpt>
      <trkpt lat="44.0434" lon="6.24212">
        <ele>1463.26</ele>
        <time>2017-12-23T10:39:35Z</time>
      </trkpt>
      <trkpt lat="44.04331" lon="6.24201">
        <ele>1462.78</ele>
        <time>2017-12-23T10:39:45Z</time>
      </trkpt>
      <trkpt lat="44.04323" lon="6.24197">
        <ele>1461.34</ele>
        <time>2017-12-23T10:40:05Z</time>
      </trkpt>
      <trkpt lat="44.04323" lon="6.24204">
        <ele>1460.86</ele>
        <time>2017-12-23T10:40:26Z</time>
      </trkpt>
      <trkpt lat="44.04321" lon="6.24208">
        <ele>1458.46</ele>
        <time>2017-12-23T10:40:47Z</time>
      </trkpt>
      <trkpt lat="44.0432" lon="6.24208">
        <ele>1458.46</ele>
        <time>2017-12-23T10:40:48Z</time>
      </trkpt>
      <trkpt lat="44.04313" lon="6.24212">
        <ele>1459.9</ele>
        <time>2017-12-23T10:41:04Z</time>
      </trkpt>
      <trkpt lat="44.04307" lon="6.24212">
        <ele>1463.26</ele>
        <time>2017-12-23T10:41:15Z</time>
      </trkpt>
      <trkpt lat="44.04306" lon="6.24211">
        <ele>1463.26</ele>
        <time>2017-12-23T10:41:16Z</time>
      </trkpt>
      <trkpt lat="44.04305" lon="6.24212">
        <ele>1461.82</ele>
        <time>2017-12-23T10:41:18Z</time>
      </trkpt>
      <trkpt lat="44.043" lon="6.2422">
        <ele>1464.23</ele>
        <time>2017-12-23T10:41:45Z</time>
      </trkpt>
      <trkpt lat="44.043" lon="6.24228">
        <ele>1464.71</ele>
        <time>2017-12-23T10:42:10Z</time>
      </trkpt>
      <trkpt lat="44.04302" lon="6.24225">
        <ele>1465.19</ele>
        <time>2017-12-23T10:42:40Z</time>
      </trkpt>
      <trkpt lat="44.04301" lon="6.2423">
        <ele>1465.19</ele>
        <time>2017-12-23T10:43:07Z</time>
      </trkpt>
      <trkpt lat="44.04301" lon="6.24231">
        <ele>1465.19</ele>
        <time>2017-12-23T10:43:20Z</time>
      </trkpt>
      <trkpt lat="44.04301" lon="6.24219">
        <ele>1464.71</ele>
        <time>2017-12-23T10:47:29Z</time>
      </trkpt>
      <trkpt lat="44.04305" lon="6.24224">
        <ele>1464.23</ele>
        <time>2017-12-23T10:47:50Z</time>
      </trkpt>
      <trkpt lat="44.04308" lon="6.24223">
        <ele>1465.67</ele>
        <time>2017-12-23T10:48:21Z</time>
      </trkpt>
      <trkpt lat="44.04305" lon="6.24216">
        <ele>1465.67</ele>
        <time>2017-12-23T10:48:58Z</time>
      </trkpt>
      <trkpt lat="44.04302" lon="6.24218">
        <ele>1464.23</ele>
        <time>2017-12-23T10:49:25Z</time>
      </trkpt>
      <trkpt lat="44.04305" lon="6.24217">
        <ele>1463.74</ele>
        <time>2017-12-23T10:49:45Z</time>
      </trkpt>
      <trkpt lat="44.04308" lon="6.24213">
        <ele>1462.3</ele>
        <time>2017-12-23T10:49:54Z</time>
      </trkpt>
      <trkpt lat="44.04318" lon="6.24213">
        <ele>1459.42</ele>
        <time>2017-12-23T10:50:19Z</time>
      </trkpt>
      <trkpt lat="44.04324" lon="6.24209">
        <ele>1461.34</ele>
        <time>2017-12-23T10:50:27Z</time>
      </trkpt>
      <trkpt lat="44.04323" lon="6.24205">
        <ele>1463.74</ele>
        <time>2017-12-23T10:50:33Z</time>
      </trkpt>
      <trkpt lat="44.04323" lon="6.24205">
        <ele>1462.3</ele>
        <time>2017-12-23T10:50:36Z</time>
      </trkpt>
      <trkpt lat="44.04327" lon="6.24202">
        <ele>1463.74</ele>
        <time>2017-12-23T10:50:49Z</time>
      </trkpt>
      <trkpt lat="44.04343" lon="6.2419">
        <ele>1464.23</ele>
        <time>2017-12-23T10:51:12Z</time>
      </trkpt>
      <trkpt lat="44.04344" lon="6.24186">
        <ele>1465.67</ele>
        <time>2017-12-23T10:51:16Z</time>
      </trkpt>
      <trkpt lat="44.04349" lon="6.24159">
        <ele>1465.19</ele>
        <time>2017-12-23T10:51:39Z</time>
      </trkpt>
      <trkpt lat="44.04352" lon="6.24154">
        <ele>1462.78</ele>
        <time>2017-12-23T10:51:44Z</time>
      </trkpt>
      <trkpt lat="44.04353" lon="6.24153">
        <ele>1462.78</ele>
        <time>2017-12-23T10:51:45Z</time>
      </trkpt>
      <trkpt lat="44.04368" lon="6.2412">
        <ele>1462.3</ele>
        <time>2017-12-23T10:52:10Z</time>
      </trkpt>
      <trkpt lat="44.04359" lon="6.24109">
        <ele>1465.19</ele>
        <time>2017-12-23T10:52:20Z</time>
      </trkpt>
      <trkpt lat="44.04355" lon="6.24094">
        <ele>1465.67</ele>
        <time>2017-12-23T10:52:33Z</time>
      </trkpt>
      <trkpt lat="44.04356" lon="6.24078">
        <ele>1466.15</ele>
        <time>2017-12-23T10:52:45Z</time>
      </trkpt>
      <trkpt lat="44.04353" lon="6.24066">
        <ele>1467.11</ele>
        <time>2017-12-23T10:52:54Z</time>
      </trkpt>
      <trkpt lat="44.04352" lon="6.24058">
        <ele>1465.67</ele>
        <time>2017-12-23T10:53:01Z</time>
      </trkpt>
      <trkpt lat="44.04344" lon="6.24025">
        <ele>1467.11</ele>
        <time>2017-12-23T10:53:24Z</time>
      </trkpt>
      <trkpt lat="44.04346" lon="6.23997">
        <ele>1470.47</ele>
        <time>2017-12-23T10:53:46Z</time>
      </trkpt>
      <trkpt lat="44.04348" lon="6.23993">
        <ele>1467.11</ele>
        <time>2017-12-23T10:53:49Z</time>
      </trkpt>
      <trkpt lat="44.04346" lon="6.2399">
        <ele>1471.44</ele>
        <time>2017-12-23T10:53:53Z</time>
      </trkpt>
      <trkpt lat="44.04342" lon="6.23975">
        <ele>1472.88</ele>
        <time>2017-12-23T10:54:10Z</time>
      </trkpt>
      <trkpt lat="44.04343" lon="6.23963">
        <ele>1473.84</ele>
        <time>2017-12-23T10:54:21Z</time>
      </trkpt>
      <trkpt lat="44.04343" lon="6.23954">
        <ele>1473.36</ele>
        <time>2017-12-23T10:54:28Z</time>
      </trkpt>
      <trkpt lat="44.04347" lon="6.23943">
        <ele>1476.24</ele>
        <time>2017-12-23T10:54:40Z</time>
      </trkpt>
      <trkpt lat="44.04347" lon="6.23943">
        <ele>1474.8</ele>
        <time>2017-12-23T10:54:42Z</time>
      </trkpt>
      <trkpt lat="44.04348" lon="6.23952">
        <ele>1474.8</ele>
        <time>2017-12-23T10:55:02Z</time>
      </trkpt>
      <trkpt lat="44.04348" lon="6.2394">
        <ele>1474.8</ele>
        <time>2017-12-23T10:55:26Z</time>
      </trkpt>
      <trkpt lat="44.04346" lon="6.23941">
        <ele>1474.8</ele>
        <time>2017-12-23T10:55:48Z</time>
      </trkpt>
      <trkpt lat="44.04346" lon="6.23942">
        <ele>1474.8</ele>
        <time>2017-12-23T10:56:15Z</time>
      </trkpt>
      <trkpt lat="44.04346" lon="6.23941">
        <ele>1474.8</ele>
        <time>2017-12-23T10:56:38Z</time>
      </trkpt>
      <trkpt lat="44.04345" lon="6.23942">
        <ele>1474.8</ele>
        <time>2017-12-23T10:56:48Z</time>
      </trkpt>
      <trkpt lat="44.04346" lon="6.2394">
        <ele>1474.8</ele>
        <time>2017-12-23T10:57:11Z</time>
      </trkpt>
      <trkpt lat="44.04347" lon="6.23937">
        <ele>1474.8</ele>
        <time>2017-12-23T10:57:16Z</time>
      </trkpt>
      <trkpt lat="44.04348" lon="6.23934">
        <ele>1475.28</ele>
        <time>2017-12-23T10:57:20Z</time>
      </trkpt>
      <trkpt lat="44.04351" lon="6.23923">
        <ele>1475.28</ele>
        <time>2017-12-23T10:57:29Z</time>
      </trkpt>
      <trkpt lat="44.04353" lon="6.23917">
        <ele>1474.8</ele>
        <time>2017-12-23T10:57:33Z</time>
      </trkpt>
      <trkpt lat="44.04354" lon="6.23912">
        <ele>1476.72</ele>
        <time>2017-12-23T10:57:36Z</time>
      </trkpt>
      <trkpt lat="44.04361" lon="6.23888">
        <ele>1477.68</ele>
        <time>2017-12-23T10:57:56Z</time>
      </trkpt>
      <trkpt lat="44.04368" lon="6.23875">
        <ele>1478.16</ele>
        <time>2017-12-23T10:58:11Z</time>
      </trkpt>
      <trkpt lat="44.0437" lon="6.23874">
        <ele>1480.09</ele>
        <time>2017-12-23T10:58:15Z</time>
      </trkpt>
      <trkpt lat="44.04371" lon="6.23859">
        <ele>1482.97</ele>
        <time>2017-12-23T10:58:34Z</time>
      </trkpt>
      <trkpt lat="44.0438" lon="6.23849">
        <ele>1485.37</ele>
        <time>2017-12-23T10:58:53Z</time>
      </trkpt>
      <trkpt lat="44.04384" lon="6.23842">
        <ele>1486.82</ele>
        <time>2017-12-23T10:59:10Z</time>
      </trkpt>
      <trkpt lat="44.04383" lon="6.23836">
        <ele>1488.26</ele>
        <time>2017-12-23T10:59:19Z</time>
      </trkpt>
      <trkpt lat="44.04386" lon="6.23817">
        <ele>1491.14</ele>
        <time>2017-12-23T10:59:42Z</time>
      </trkpt>
      <trkpt lat="44.04393" lon="6.23793">
        <ele>1494.99</ele>
        <time>2017-12-23T11:00:06Z</time>
      </trkpt>
      <trkpt lat="44.04394" lon="6.23792">
        <ele>1494.99</ele>
        <time>2017-12-23T11:00:07Z</time>
      </trkpt>
      <trkpt lat="44.04395" lon="6.2379">
        <ele>1494.99</ele>
        <time>2017-12-23T11:00:09Z</time>
      </trkpt>
      <trkpt lat="44.04398" lon="6.23774">
        <ele>1497.39</ele>
        <time>2017-12-23T11:00:21Z</time>
      </trkpt>
      <trkpt lat="44.044" lon="6.23767">
        <ele>1497.39</ele>
        <time>2017-12-23T11:00:29Z</time>
      </trkpt>
      <trkpt lat="44.04407" lon="6.23745">
        <ele>1499.31</ele>
        <time>2017-12-23T11:00:50Z</time>
      </trkpt>
      <trkpt lat="44.04407" lon="6.23735">
        <ele>1500.27</ele>
        <time>2017-12-23T11:00:56Z</time>
      </trkpt>
      <trkpt lat="44.04407" lon="6.23733">
        <ele>1500.27</ele>
        <time>2017-12-23T11:00:57Z</time>
      </trkpt>
      <trkpt lat="44.04413" lon="6.23714">
        <ele>1501.72</ele>
        <time>2017-12-23T11:01:14Z</time>
      </trkpt>
      <trkpt lat="44.04415" lon="6.23681">
        <ele>1504.12</ele>
        <time>2017-12-23T11:01:37Z</time>
      </trkpt>
      <trkpt lat="44.04422" lon="6.23646">
        <ele>1504.12</ele>
        <time>2017-12-23T11:02:01Z</time>
      </trkpt>
      <trkpt lat="44.04423" lon="6.23624">
        <ele>1506.04</ele>
        <time>2017-12-23T11:02:21Z</time>
      </trkpt>
      <trkpt lat="44.04425" lon="6.23605">
        <ele>1506.52</ele>
        <time>2017-12-23T11:02:37Z</time>
      </trkpt>
      <trkpt lat="44.04425" lon="6.23602">
        <ele>1505.56</ele>
        <time>2017-12-23T11:02:39Z</time>
      </trkpt>
      <trkpt lat="44.04431" lon="6.2357">
        <ele>1507.97</ele>
        <time>2017-12-23T11:03:04Z</time>
      </trkpt>
      <trkpt lat="44.04437" lon="6.2354">
        <ele>1507</ele>
        <time>2017-12-23T11:03:30Z</time>
      </trkpt>
      <trkpt lat="44.04436" lon="6.23535">
        <ele>1506.04</ele>
        <time>2017-12-23T11:03:51Z</time>
      </trkpt>
      <trkpt lat="44.04438" lon="6.23537">
        <ele>1506.52</ele>
        <time>2017-12-23T11:04:19Z</time>
      </trkpt>
      <trkpt lat="44.04438" lon="6.23533">
        <ele>1506.04</ele>
        <time>2017-12-23T11:04:41Z</time>
      </trkpt>
      <trkpt lat="44.04443" lon="6.23542">
        <ele>1502.68</ele>
        <time>2017-12-23T11:04:58Z</time>
      </trkpt>
      <trkpt lat="44.04443" lon="6.23543">
        <ele>1502.68</ele>
        <time>2017-12-23T11:04:59Z</time>
      </trkpt>
      <trkpt lat="44.04451" lon="6.23548">
        <ele>1500.27</ele>
        <time>2017-12-23T11:05:24Z</time>
      </trkpt>
      <trkpt lat="44.04456" lon="6.23549">
        <ele>1496.91</ele>
        <time>2017-12-23T11:05:39Z</time>
      </trkpt>
      <trkpt lat="44.04456" lon="6.23549">
        <ele>1498.83</ele>
        <time>2017-12-23T11:05:53Z</time>
      </trkpt>
      <trkpt lat="44.04455" lon="6.23551">
        <ele>1496.91</ele>
        <time>2017-12-23T11:06:08Z</time>
      </trkpt>
      <trkpt lat="44.04455" lon="6.23551">
        <ele>1498.35</ele>
        <time>2017-12-23T11:06:10Z</time>
      </trkpt>
      <trkpt lat="44.04454" lon="6.23563">
        <ele>1497.87</ele>
        <time>2017-12-23T11:06:25Z</time>
      </trkpt>
      <trkpt lat="44.04454" lon="6.23564">
        <ele>1496.91</ele>
        <time>2017-12-23T11:06:27Z</time>
      </trkpt>
      <trkpt lat="44.04459" lon="6.23575">
        <ele>1493.06</ele>
        <time>2017-12-23T11:06:46Z</time>
      </trkpt>
      <trkpt lat="44.04461" lon="6.23578">
        <ele>1494.03</ele>
        <time>2017-12-23T11:06:52Z</time>
      </trkpt>
      <trkpt lat="44.04462" lon="6.23579">
        <ele>1492.58</ele>
        <time>2017-12-23T11:06:54Z</time>
      </trkpt>
      <trkpt lat="44.04469" lon="6.23575">
        <ele>1489.22</ele>
        <time>2017-12-23T11:07:10Z</time>
      </trkpt>
      <trkpt lat="44.04476" lon="6.23568">
        <ele>1486.82</ele>
        <time>2017-12-23T11:07:33Z</time>
      </trkpt>
      <trkpt lat="44.0448" lon="6.23567">
        <ele>1485.85</ele>
        <time>2017-12-23T11:07:54Z</time>
      </trkpt>
      <trkpt lat="44.0448" lon="6.23567">
        <ele>1482.49</ele>
        <time>2017-12-23T11:08:10Z</time>
      </trkpt>
      <trkpt lat="44.04479" lon="6.23567">
        <ele>1486.34</ele>
        <time>2017-12-23T11:08:11Z</time>
      </trkpt>
      <trkpt lat="44.0448" lon="6.23567">
        <ele>1483.45</ele>
        <time>2017-12-23T11:08:14Z</time>
      </trkpt>
      <trkpt lat="44.04481" lon="6.23567">
        <ele>1484.89</ele>
        <time>2017-12-23T11:08:16Z</time>
      </trkpt>
      <trkpt lat="44.04481" lon="6.23566">
        <ele>1483.45</ele>
        <time>2017-12-23T11:08:18Z</time>
      </trkpt>
      <trkpt lat="44.04487" lon="6.23565">
        <ele>1480.57</ele>
        <time>2017-12-23T11:08:38Z</time>
      </trkpt>
      <trkpt lat="44.04488" lon="6.23563">
        <ele>1482.97</ele>
        <time>2017-12-23T11:08:43Z</time>
      </trkpt>
      <trkpt lat="44.04485" lon="6.2357">
        <ele>1480.57</ele>
        <time>2017-12-23T11:09:10Z</time>
      </trkpt>
      <trkpt lat="44.0449" lon="6.23561">
        <ele>1476.72</ele>
        <time>2017-12-23T11:09:23Z</time>
      </trkpt>
      <trkpt lat="44.04491" lon="6.2356">
        <ele>1480.09</ele>
        <time>2017-12-23T11:09:25Z</time>
      </trkpt>
      <trkpt lat="44.04492" lon="6.2356">
        <ele>1477.68</ele>
        <time>2017-12-23T11:09:27Z</time>
      </trkpt>
      <trkpt lat="44.04499" lon="6.23563">
        <ele>1474.32</ele>
        <time>2017-12-23T11:09:48Z</time>
      </trkpt>
      <trkpt lat="44.04502" lon="6.23562">
        <ele>1470.47</ele>
        <time>2017-12-23T11:09:59Z</time>
      </trkpt>
      <trkpt lat="44.04509" lon="6.23563">
        <ele>1469.99</ele>
        <time>2017-12-23T11:10:13Z</time>
      </trkpt>
      <trkpt lat="44.04511" lon="6.23561">
        <ele>1466.15</ele>
        <time>2017-12-23T11:10:29Z</time>
      </trkpt>
      <trkpt lat="44.04515" lon="6.23558">
        <ele>1462.78</ele>
        <time>2017-12-23T11:10:38Z</time>
      </trkpt>
      <trkpt lat="44.04518" lon="6.23555">
        <ele>1461.82</ele>
        <time>2017-12-23T11:10:44Z</time>
      </trkpt>
      <trkpt lat="44.04526" lon="6.23553">
        <ele>1457.5</ele>
        <time>2017-12-23T11:11:00Z</time>
      </trkpt>
      <trkpt lat="44.04529" lon="6.23551">
        <ele>1454.61</ele>
        <time>2017-12-23T11:11:16Z</time>
      </trkpt>
      <trkpt lat="44.04533" lon="6.23545">
        <ele>1451.25</ele>
        <time>2017-12-23T11:11:30Z</time>
      </trkpt>
      <trkpt lat="44.04535" lon="6.23545">
        <ele>1450.77</ele>
        <time>2017-12-23T11:11:39Z</time>
      </trkpt>
      <trkpt lat="44.04542" lon="6.23542">
        <ele>1448.84</ele>
        <time>2017-12-23T11:11:50Z</time>
      </trkpt>
      <trkpt lat="44.04543" lon="6.23534">
        <ele>1445.48</ele>
        <time>2017-12-23T11:12:02Z</time>
      </trkpt>
      <trkpt lat="44.04543" lon="6.23534">
        <ele>1445.48</ele>
        <time>2017-12-23T11:12:03Z</time>
      </trkpt>
      <trkpt lat="44.04543" lon="6.2353">
        <ele>1442.6</ele>
        <time>2017-12-23T11:12:18Z</time>
      </trkpt>
      <trkpt lat="44.04555" lon="6.23528">
        <ele>1437.79</ele>
        <time>2017-12-23T11:12:34Z</time>
      </trkpt>
      <trkpt lat="44.04564" lon="6.23525">
        <ele>1434.42</ele>
        <time>2017-12-23T11:12:50Z</time>
      </trkpt>
      <trkpt lat="44.04565" lon="6.23524">
        <ele>1433.94</ele>
        <time>2017-12-23T11:12:52Z</time>
      </trkpt>
      <trkpt lat="44.04571" lon="6.23526">
        <ele>1430.58</ele>
        <time>2017-12-23T11:13:06Z</time>
      </trkpt>
      <trkpt lat="44.04573" lon="6.23523">
        <ele>1428.66</ele>
        <time>2017-12-23T11:13:14Z</time>
      </trkpt>
      <trkpt lat="44.04574" lon="6.23523">
        <ele>1430.1</ele>
        <time>2017-12-23T11:13:16Z</time>
      </trkpt>
      <trkpt lat="44.04577" lon="6.23525">
        <ele>1428.66</ele>
        <time>2017-12-23T11:13:21Z</time>
      </trkpt>
      <trkpt lat="44.04578" lon="6.2352">
        <ele>1425.77</ele>
        <time>2017-12-23T11:13:33Z</time>
      </trkpt>
      <trkpt lat="44.04582" lon="6.23517">
        <ele>1423.85</ele>
        <time>2017-12-23T11:13:46Z</time>
      </trkpt>
      <trkpt lat="44.04587" lon="6.23507">
        <ele>1420.49</ele>
        <time>2017-12-23T11:14:01Z</time>
      </trkpt>
      <trkpt lat="44.04592" lon="6.23504">
        <ele>1418.56</ele>
        <time>2017-12-23T11:14:05Z</time>
      </trkpt>
      <trkpt lat="44.04594" lon="6.23503">
        <ele>1420</ele>
        <time>2017-12-23T11:14:07Z</time>
      </trkpt>
      <trkpt lat="44.04597" lon="6.23501">
        <ele>1418.56</ele>
        <time>2017-12-23T11:14:09Z</time>
      </trkpt>
      <trkpt lat="44.04599" lon="6.23498">
        <ele>1418.56</ele>
        <time>2017-12-23T11:14:12Z</time>
      </trkpt>
      <trkpt lat="44.04608" lon="6.23478">
        <ele>1417.12</ele>
        <time>2017-12-23T11:14:26Z</time>
      </trkpt>
      <trkpt lat="44.04611" lon="6.23477">
        <ele>1415.2</ele>
        <time>2017-12-23T11:14:29Z</time>
      </trkpt>
      <trkpt lat="44.04613" lon="6.23476">
        <ele>1417.12</ele>
        <time>2017-12-23T11:14:31Z</time>
      </trkpt>
      <trkpt lat="44.04625" lon="6.23467">
        <ele>1412.31</ele>
        <time>2017-12-23T11:14:43Z</time>
      </trkpt>
      <trkpt lat="44.04626" lon="6.23467">
        <ele>1412.31</ele>
        <time>2017-12-23T11:14:44Z</time>
      </trkpt>
      <trkpt lat="44.04641" lon="6.23474">
        <ele>1410.87</ele>
        <time>2017-12-23T11:15:00Z</time>
      </trkpt>
      <trkpt lat="44.04644" lon="6.23476">
        <ele>1409.43</ele>
        <time>2017-12-23T11:15:05Z</time>
      </trkpt>
      <trkpt lat="44.04658" lon="6.23472">
        <ele>1408.47</ele>
        <time>2017-12-23T11:15:21Z</time>
      </trkpt>
      <trkpt lat="44.0466" lon="6.23471">
        <ele>1407.51</ele>
        <time>2017-12-23T11:15:23Z</time>
      </trkpt>
      <trkpt lat="44.0467" lon="6.23472">
        <ele>1408.95</ele>
        <time>2017-12-23T11:15:30Z</time>
      </trkpt>
      <trkpt lat="44.04675" lon="6.23476">
        <ele>1408.95</ele>
        <time>2017-12-23T11:15:35Z</time>
      </trkpt>
      <trkpt lat="44.04678" lon="6.23478">
        <ele>1407.51</ele>
        <time>2017-12-23T11:15:38Z</time>
      </trkpt>
      <trkpt lat="44.04688" lon="6.23486">
        <ele>1407.03</ele>
        <time>2017-12-23T11:15:48Z</time>
      </trkpt>
      <trkpt lat="44.04695" lon="6.23493">
        <ele>1407.03</ele>
        <time>2017-12-23T11:15:58Z</time>
      </trkpt>
      <trkpt lat="44.04717" lon="6.23496">
        <ele>1406.07</ele>
        <time>2017-12-23T11:16:21Z</time>
      </trkpt>
      <trkpt lat="44.04721" lon="6.23496">
        <ele>1406.07</ele>
        <time>2017-12-23T11:16:40Z</time>
      </trkpt>
      <trkpt lat="44.0472" lon="6.23492">
        <ele>1406.07</ele>
        <time>2017-12-23T11:17:02Z</time>
      </trkpt>
      <trkpt lat="44.0474" lon="6.23501">
        <ele>1407.03</ele>
        <time>2017-12-23T11:17:22Z</time>
      </trkpt>
      <trkpt lat="44.0475" lon="6.23507">
        <ele>1406.55</ele>
        <time>2017-12-23T11:17:30Z</time>
      </trkpt>
      <trkpt lat="44.04757" lon="6.23511">
        <ele>1407.51</ele>
        <time>2017-12-23T11:17:36Z</time>
      </trkpt>
      <trkpt lat="44.0476" lon="6.23514">
        <ele>1406.07</ele>
        <time>2017-12-23T11:17:39Z</time>
      </trkpt>
      <trkpt lat="44.04771" lon="6.2352">
        <ele>1407.51</ele>
        <time>2017-12-23T11:17:48Z</time>
      </trkpt>
      <trkpt lat="44.04779" lon="6.23529">
        <ele>1406.07</ele>
        <time>2017-12-23T11:17:57Z</time>
      </trkpt>
      <trkpt lat="44.04807" lon="6.23549">
        <ele>1404.62</ele>
        <time>2017-12-23T11:18:22Z</time>
      </trkpt>
      <trkpt lat="44.04814" lon="6.23556">
        <ele>1405.1</ele>
        <time>2017-12-23T11:18:34Z</time>
      </trkpt>
      <trkpt lat="44.04822" lon="6.23566">
        <ele>1405.58</ele>
        <time>2017-12-23T11:18:49Z</time>
      </trkpt>
      <trkpt lat="44.04827" lon="6.23579">
        <ele>1405.58</ele>
        <time>2017-12-23T11:18:58Z</time>
      </trkpt>
      <trkpt lat="44.04829" lon="6.23582">
        <ele>1407.03</ele>
        <time>2017-12-23T11:19:02Z</time>
      </trkpt>
      <trkpt lat="44.04835" lon="6.23587">
        <ele>1406.07</ele>
        <time>2017-12-23T11:19:10Z</time>
      </trkpt>
      <trkpt lat="44.0485" lon="6.23595">
        <ele>1406.07</ele>
        <time>2017-12-23T11:19:21Z</time>
      </trkpt>
      <trkpt lat="44.04872" lon="6.23619">
        <ele>1405.58</ele>
        <time>2017-12-23T11:19:47Z</time>
      </trkpt>
      <trkpt lat="44.04889" lon="6.23633">
        <ele>1405.1</ele>
        <time>2017-12-23T11:20:11Z</time>
      </trkpt>
      <trkpt lat="44.04912" lon="6.23648">
        <ele>1404.14</ele>
        <time>2017-12-23T11:20:32Z</time>
      </trkpt>
      <trkpt lat="44.04914" lon="6.23648">
        <ele>1403.18</ele>
        <time>2017-12-23T11:20:34Z</time>
      </trkpt>
      <trkpt lat="44.04918" lon="6.23645">
        <ele>1404.62</ele>
        <time>2017-12-23T11:20:42Z</time>
      </trkpt>
      <trkpt lat="44.04938" lon="6.23636">
        <ele>1405.58</ele>
        <time>2017-12-23T11:21:02Z</time>
      </trkpt>
      <trkpt lat="44.0496" lon="6.2365">
        <ele>1407.03</ele>
        <time>2017-12-23T11:21:21Z</time>
      </trkpt>
      <trkpt lat="44.04982" lon="6.23663">
        <ele>1408.47</ele>
        <time>2017-12-23T11:21:40Z</time>
      </trkpt>
      <trkpt lat="44.04984" lon="6.23664">
        <ele>1407.03</ele>
        <time>2017-12-23T11:21:42Z</time>
      </trkpt>
      <trkpt lat="44.04996" lon="6.23671">
        <ele>1407.03</ele>
        <time>2017-12-23T11:21:56Z</time>
      </trkpt>
      <trkpt lat="44.05021" lon="6.23685">
        <ele>1403.18</ele>
        <time>2017-12-23T11:22:20Z</time>
      </trkpt>
      <trkpt lat="44.05026" lon="6.23687">
        <ele>1403.66</ele>
        <time>2017-12-23T11:22:24Z</time>
      </trkpt>
      <trkpt lat="44.05045" lon="6.23697">
        <ele>1400.78</ele>
        <time>2017-12-23T11:22:48Z</time>
      </trkpt>
      <trkpt lat="44.05063" lon="6.23697">
        <ele>1397.89</ele>
        <time>2017-12-23T11:23:04Z</time>
      </trkpt>
      <trkpt lat="44.05066" lon="6.237">
        <ele>1398.86</ele>
        <time>2017-12-23T11:23:08Z</time>
      </trkpt>
      <trkpt lat="44.05078" lon="6.23712">
        <ele>1396.93</ele>
        <time>2017-12-23T11:23:21Z</time>
      </trkpt>
      <trkpt lat="44.05092" lon="6.2372">
        <ele>1396.93</ele>
        <time>2017-12-23T11:23:34Z</time>
      </trkpt>
      <trkpt lat="44.05104" lon="6.23724">
        <ele>1397.41</ele>
        <time>2017-12-23T11:23:44Z</time>
      </trkpt>
      <trkpt lat="44.05127" lon="6.23731">
        <ele>1395.49</ele>
        <time>2017-12-23T11:24:08Z</time>
      </trkpt>
      <trkpt lat="44.05134" lon="6.23737">
        <ele>1392.61</ele>
        <time>2017-12-23T11:24:26Z</time>
      </trkpt>
      <trkpt lat="44.05137" lon="6.23752">
        <ele>1389.24</ele>
        <time>2017-12-23T11:24:44Z</time>
      </trkpt>
      <trkpt lat="44.05139" lon="6.23753">
        <ele>1387.8</ele>
        <time>2017-12-23T11:24:49Z</time>
      </trkpt>
      <trkpt lat="44.05155" lon="6.23757">
        <ele>1384.44</ele>
        <time>2017-12-23T11:25:09Z</time>
      </trkpt>
      <trkpt lat="44.05154" lon="6.23763">
        <ele>1387.8</ele>
        <time>2017-12-23T11:25:16Z</time>
      </trkpt>
      <trkpt lat="44.0516" lon="6.23781">
        <ele>1387.8</ele>
        <time>2017-12-23T11:25:32Z</time>
      </trkpt>
      <trkpt lat="44.05173" lon="6.23794">
        <ele>1389.72</ele>
        <time>2017-12-23T11:25:50Z</time>
      </trkpt>
      <trkpt lat="44.0518" lon="6.23798">
        <ele>1391.17</ele>
        <time>2017-12-23T11:25:59Z</time>
      </trkpt>
      <trkpt lat="44.05195" lon="6.2381">
        <ele>1395.49</ele>
        <time>2017-12-23T11:26:18Z</time>
      </trkpt>
      <trkpt lat="44.05205" lon="6.23812">
        <ele>1395.97</ele>
        <time>2017-12-23T11:26:30Z</time>
      </trkpt>
      <trkpt lat="44.05212" lon="6.23811">
        <ele>1396.45</ele>
        <time>2017-12-23T11:26:50Z</time>
      </trkpt>
      <trkpt lat="44.05213" lon="6.23813">
        <ele>1397.89</ele>
        <time>2017-12-23T11:26:54Z</time>
      </trkpt>
      <trkpt lat="44.05216" lon="6.23822">
        <ele>1399.82</ele>
        <time>2017-12-23T11:27:04Z</time>
      </trkpt>
      <trkpt lat="44.05217" lon="6.23827">
        <ele>1400.3</ele>
        <time>2017-12-23T11:27:17Z</time>
      </trkpt>
      <trkpt lat="44.05216" lon="6.2383">
        <ele>1403.18</ele>
        <time>2017-12-23T11:27:29Z</time>
      </trkpt>
      <trkpt lat="44.05214" lon="6.23849">
        <ele>1405.58</ele>
        <time>2017-12-23T11:27:54Z</time>
      </trkpt>
      <trkpt lat="44.05212" lon="6.2386">
        <ele>1405.58</ele>
        <time>2017-12-23T11:28:04Z</time>
      </trkpt>
      <trkpt lat="44.05209" lon="6.23874">
        <ele>1408.95</ele>
        <time>2017-12-23T11:28:19Z</time>
      </trkpt>
      <trkpt lat="44.05207" lon="6.23886">
        <ele>1412.79</ele>
        <time>2017-12-23T11:28:37Z</time>
      </trkpt>
      <trkpt lat="44.05206" lon="6.23889">
        <ele>1409.43</ele>
        <time>2017-12-23T11:28:41Z</time>
      </trkpt>
      <trkpt lat="44.05206" lon="6.23889">
        <ele>1413.76</ele>
        <time>2017-12-23T11:28:42Z</time>
      </trkpt>
      <trkpt lat="44.05206" lon="6.2389">
        <ele>1411.83</ele>
        <time>2017-12-23T11:28:43Z</time>
      </trkpt>
      <trkpt lat="44.05208" lon="6.23898">
        <ele>1414.72</ele>
        <time>2017-12-23T11:29:06Z</time>
      </trkpt>
      <trkpt lat="44.05205" lon="6.23906">
        <ele>1416.16</ele>
        <time>2017-12-23T11:29:28Z</time>
      </trkpt>
      <trkpt lat="44.05205" lon="6.23908">
        <ele>1420</ele>
        <time>2017-12-23T11:29:32Z</time>
      </trkpt>
      <trkpt lat="44.05205" lon="6.23909">
        <ele>1417.12</ele>
        <time>2017-12-23T11:29:33Z</time>
      </trkpt>
      <trkpt lat="44.05207" lon="6.23916">
        <ele>1420</ele>
        <time>2017-12-23T11:29:42Z</time>
      </trkpt>
      <trkpt lat="44.05201" lon="6.23936">
        <ele>1420.97</ele>
        <time>2017-12-23T11:30:07Z</time>
      </trkpt>
      <trkpt lat="44.05201" lon="6.23938">
        <ele>1420.97</ele>
        <time>2017-12-23T11:30:08Z</time>
      </trkpt>
      <trkpt lat="44.05197" lon="6.23957">
        <ele>1425.77</ele>
        <time>2017-12-23T11:30:27Z</time>
      </trkpt>
      <trkpt lat="44.05197" lon="6.23958">
        <ele>1422.41</ele>
        <time>2017-12-23T11:30:28Z</time>
      </trkpt>
      <trkpt lat="44.05196" lon="6.23962">
        <ele>1426.25</ele>
        <time>2017-12-23T11:30:41Z</time>
      </trkpt>
      <trkpt lat="44.05196" lon="6.23965">
        <ele>1426.73</ele>
        <time>2017-12-23T11:30:49Z</time>
      </trkpt>
      <trkpt lat="44.05195" lon="6.23973">
        <ele>1427.7</ele>
        <time>2017-12-23T11:31:00Z</time>
      </trkpt>
      <trkpt lat="44.05193" lon="6.23985">
        <ele>1432.02</ele>
        <time>2017-12-23T11:31:16Z</time>
      </trkpt>
      <trkpt lat="44.05194" lon="6.23998">
        <ele>1432.02</ele>
        <time>2017-12-23T11:31:39Z</time>
      </trkpt>
      <trkpt lat="44.0519" lon="6.24005">
        <ele>1435.39</ele>
        <time>2017-12-23T11:31:50Z</time>
      </trkpt>
      <trkpt lat="44.0519" lon="6.24019">
        <ele>1437.31</ele>
        <time>2017-12-23T11:32:05Z</time>
      </trkpt>
      <trkpt lat="44.0519" lon="6.24029">
        <ele>1438.75</ele>
        <time>2017-12-23T11:32:30Z</time>
      </trkpt>
      <trkpt lat="44.0519" lon="6.24042">
        <ele>1441.63</ele>
        <time>2017-12-23T11:32:45Z</time>
      </trkpt>
      <trkpt lat="44.05187" lon="6.24062">
        <ele>1443.08</ele>
        <time>2017-12-23T11:33:11Z</time>
      </trkpt>
      <trkpt lat="44.05187" lon="6.24063">
        <ele>1444.52</ele>
        <time>2017-12-23T11:33:17Z</time>
      </trkpt>
      <trkpt lat="44.05192" lon="6.24072">
        <ele>1447.88</ele>
        <time>2017-12-23T11:33:37Z</time>
      </trkpt>
      <trkpt lat="44.05188" lon="6.24086">
        <ele>1446.92</ele>
        <time>2017-12-23T11:34:00Z</time>
      </trkpt>
      <trkpt lat="44.05189" lon="6.24093">
        <ele>1450.77</ele>
        <time>2017-12-23T11:34:12Z</time>
      </trkpt>
      <trkpt lat="44.05191" lon="6.241">
        <ele>1451.25</ele>
        <time>2017-12-23T11:34:35Z</time>
      </trkpt>
      <trkpt lat="44.05191" lon="6.24106">
        <ele>1455.57</ele>
        <time>2017-12-23T11:34:43Z</time>
      </trkpt>
      <trkpt lat="44.05193" lon="6.24118">
        <ele>1455.57</ele>
        <time>2017-12-23T11:35:00Z</time>
      </trkpt>
      <trkpt lat="44.05194" lon="6.2412">
        <ele>1455.57</ele>
        <time>2017-12-23T11:35:11Z</time>
      </trkpt>
      <trkpt lat="44.05194" lon="6.24121">
        <ele>1458.46</ele>
        <time>2017-12-23T11:35:16Z</time>
      </trkpt>
      <trkpt lat="44.05194" lon="6.24121">
        <ele>1456.53</ele>
        <time>2017-12-23T11:35:19Z</time>
      </trkpt>
      <trkpt lat="44.05196" lon="6.24132">
        <ele>1459.42</ele>
        <time>2017-12-23T11:35:43Z</time>
      </trkpt>
      <trkpt lat="44.05203" lon="6.24137">
        <ele>1460.86</ele>
        <time>2017-12-23T11:35:55Z</time>
      </trkpt>
      <trkpt lat="44.05218" lon="6.24129">
        <ele>1463.26</ele>
        <time>2017-12-23T11:36:19Z</time>
      </trkpt>
      <trkpt lat="44.05227" lon="6.24116">
        <ele>1466.63</ele>
        <time>2017-12-23T11:36:39Z</time>
      </trkpt>
      <trkpt lat="44.05232" lon="6.24099">
        <ele>1469.51</ele>
        <time>2017-12-23T11:37:01Z</time>
      </trkpt>
      <trkpt lat="44.05233" lon="6.24099">
        <ele>1469.51</ele>
        <time>2017-12-23T11:37:02Z</time>
      </trkpt>
      <trkpt lat="44.05247" lon="6.24087">
        <ele>1470.47</ele>
        <time>2017-12-23T11:37:24Z</time>
      </trkpt>
      <trkpt lat="44.05248" lon="6.24081">
        <ele>1474.8</ele>
        <time>2017-12-23T11:37:34Z</time>
      </trkpt>
      <trkpt lat="44.05253" lon="6.24064">
        <ele>1475.28</ele>
        <time>2017-12-23T11:37:55Z</time>
      </trkpt>
      <trkpt lat="44.05254" lon="6.24063">
        <ele>1476.24</ele>
        <time>2017-12-23T11:38:03Z</time>
      </trkpt>
      <trkpt lat="44.05259" lon="6.24051">
        <ele>1475.76</ele>
        <time>2017-12-23T11:38:24Z</time>
      </trkpt>
      <trkpt lat="44.05268" lon="6.2405">
        <ele>1479.13</ele>
        <time>2017-12-23T11:38:38Z</time>
      </trkpt>
      <trkpt lat="44.05274" lon="6.24046">
        <ele>1481.53</ele>
        <time>2017-12-23T11:38:50Z</time>
      </trkpt>
      <trkpt lat="44.0528" lon="6.2404">
        <ele>1482.97</ele>
        <time>2017-12-23T11:39:09Z</time>
      </trkpt>
      <trkpt lat="44.05288" lon="6.24032">
        <ele>1486.34</ele>
        <time>2017-12-23T11:39:29Z</time>
      </trkpt>
      <trkpt lat="44.05288" lon="6.24032">
        <ele>1486.34</ele>
        <time>2017-12-23T11:39:30Z</time>
      </trkpt>
      <trkpt lat="44.05291" lon="6.24031">
        <ele>1486.82</ele>
        <time>2017-12-23T11:39:38Z</time>
      </trkpt>
      <trkpt lat="44.05304" lon="6.24024">
        <ele>1489.7</ele>
        <time>2017-12-23T11:39:59Z</time>
      </trkpt>
      <trkpt lat="44.05307" lon="6.24023">
        <ele>1491.14</ele>
        <time>2017-12-23T11:40:17Z</time>
      </trkpt>
      <trkpt lat="44.05314" lon="6.24016">
        <ele>1493.06</ele>
        <time>2017-12-23T11:40:30Z</time>
      </trkpt>
      <trkpt lat="44.05315" lon="6.24015">
        <ele>1491.62</ele>
        <time>2017-12-23T11:40:33Z</time>
      </trkpt>
      <trkpt lat="44.05316" lon="6.24016">
        <ele>1493.06</ele>
        <time>2017-12-23T11:40:35Z</time>
      </trkpt>
      <trkpt lat="44.05325" lon="6.24011">
        <ele>1495.95</ele>
        <time>2017-12-23T11:40:56Z</time>
      </trkpt>
      <trkpt lat="44.05334" lon="6.24">
        <ele>1498.83</ele>
        <time>2017-12-23T11:41:18Z</time>
      </trkpt>
      <trkpt lat="44.0534" lon="6.23999">
        <ele>1502.2</ele>
        <time>2017-12-23T11:41:34Z</time>
      </trkpt>
      <trkpt lat="44.05341" lon="6.24">
        <ele>1498.83</ele>
        <time>2017-12-23T11:41:35Z</time>
      </trkpt>
      <trkpt lat="44.05342" lon="6.23999">
        <ele>1501.72</ele>
        <time>2017-12-23T11:41:36Z</time>
      </trkpt>
      <trkpt lat="44.05344" lon="6.24">
        <ele>1501.24</ele>
        <time>2017-12-23T11:41:49Z</time>
      </trkpt>
      <trkpt lat="44.05346" lon="6.23997">
        <ele>1502.68</ele>
        <time>2017-12-23T11:41:54Z</time>
      </trkpt>
      <trkpt lat="44.05359" lon="6.2399">
        <ele>1504.6</ele>
        <time>2017-12-23T11:42:17Z</time>
      </trkpt>
      <trkpt lat="44.05372" lon="6.23988">
        <ele>1507.48</ele>
        <time>2017-12-23T11:42:39Z</time>
      </trkpt>
      <trkpt lat="44.05381" lon="6.23983">
        <ele>1509.41</ele>
        <time>2017-12-23T11:42:59Z</time>
      </trkpt>
      <trkpt lat="44.05388" lon="6.23978">
        <ele>1511.81</ele>
        <time>2017-12-23T11:43:21Z</time>
      </trkpt>
      <trkpt lat="44.05389" lon="6.23978">
        <ele>1510.37</ele>
        <time>2017-12-23T11:43:42Z</time>
      </trkpt>
      <trkpt lat="44.05389" lon="6.23979">
        <ele>1510.37</ele>
        <time>2017-12-23T11:43:43Z</time>
      </trkpt>
      <trkpt lat="44.05379" lon="6.23977">
        <ele>1511.81</ele>
        <time>2017-12-23T11:44:08Z</time>
      </trkpt>
      <trkpt lat="44.05385" lon="6.23966">
        <ele>1511.81</ele>
        <time>2017-12-23T11:44:36Z</time>
      </trkpt>
      <trkpt lat="44.05377" lon="6.23974">
        <ele>1510.37</ele>
        <time>2017-12-23T11:44:49Z</time>
      </trkpt>
      <trkpt lat="44.0538" lon="6.23974">
        <ele>1510.37</ele>
        <time>2017-12-23T11:45:20Z</time>
      </trkpt>
      <trkpt lat="44.05378" lon="6.23972">
        <ele>1509.89</ele>
        <time>2017-12-23T11:45:51Z</time>
      </trkpt>
      <trkpt lat="44.05376" lon="6.23965">
        <ele>1509.41</ele>
        <time>2017-12-23T11:46:17Z</time>
      </trkpt>
      <trkpt lat="44.05375" lon="6.23962">
        <ele>1512.29</ele>
        <time>2017-12-23T11:46:23Z</time>
      </trkpt>
      <trkpt lat="44.05375" lon="6.23962">
        <ele>1509.41</ele>
        <time>2017-12-23T11:46:26Z</time>
      </trkpt>
      <trkpt lat="44.05369" lon="6.23965">
        <ele>1505.56</ele>
        <time>2017-12-23T11:46:44Z</time>
      </trkpt>
      <trkpt lat="44.05364" lon="6.23955">
        <ele>1503.64</ele>
        <time>2017-12-23T11:47:01Z</time>
      </trkpt>
      <trkpt lat="44.05362" lon="6.23942">
        <ele>1499.79</ele>
        <time>2017-12-23T11:47:19Z</time>
      </trkpt>
      <trkpt lat="44.05357" lon="6.23942">
        <ele>1497.39</ele>
        <time>2017-12-23T11:47:41Z</time>
      </trkpt>
      <trkpt lat="44.05351" lon="6.23948">
        <ele>1496.91</ele>
        <time>2017-12-23T11:48:01Z</time>
      </trkpt>
      <trkpt lat="44.05351" lon="6.23946">
        <ele>1496.91</ele>
        <time>2017-12-23T11:48:22Z</time>
      </trkpt>
      <trkpt lat="44.05352" lon="6.23944">
        <ele>1497.87</ele>
        <time>2017-12-23T11:48:45Z</time>
      </trkpt>
      <trkpt lat="44.05351" lon="6.23945">
        <ele>1497.39</ele>
        <time>2017-12-23T11:49:08Z</time>
      </trkpt>
      <trkpt lat="44.05351" lon="6.23944">
        <ele>1497.39</ele>
        <time>2017-12-23T11:49:30Z</time>
      </trkpt>
      <trkpt lat="44.05351" lon="6.23944">
        <ele>1496.43</ele>
        <time>2017-12-23T11:49:58Z</time>
      </trkpt>
      <trkpt lat="44.0535" lon="6.23943">
        <ele>1496.43</ele>
        <time>2017-12-23T11:50:44Z</time>
      </trkpt>
      <trkpt lat="44.0535" lon="6.23943">
        <ele>1496.91</ele>
        <time>2017-12-23T11:51:22Z</time>
      </trkpt>
      <trkpt lat="44.0535" lon="6.23944">
        <ele>1496.91</ele>
        <time>2017-12-23T11:52:13Z</time>
      </trkpt>
      <trkpt lat="44.05351" lon="6.23943">
        <ele>1496.91</ele>
        <time>2017-12-23T11:53:02Z</time>
      </trkpt>
      <trkpt lat="44.05351" lon="6.23944">
        <ele>1496.91</ele>
        <time>2017-12-23T11:53:44Z</time>
      </trkpt>
      <trkpt lat="44.05351" lon="6.23944">
        <ele>1497.39</ele>
        <time>2017-12-23T11:54:25Z</time>
      </trkpt>
      <trkpt lat="44.05351" lon="6.23944">
        <ele>1497.39</ele>
        <time>2017-12-23T11:55:18Z</time>
      </trkpt>
      <trkpt lat="44.05351" lon="6.23944">
        <ele>1497.39</ele>
        <time>2017-12-23T11:56:02Z</time>
      </trkpt>
      <trkpt lat="44.0535" lon="6.23944">
        <ele>1497.39</ele>
        <time>2017-12-23T11:56:44Z</time>
      </trkpt>
      <trkpt lat="44.0535" lon="6.23944">
        <ele>1497.87</ele>
        <time>2017-12-23T11:57:24Z</time>
      </trkpt>
      <trkpt lat="44.0535" lon="6.23945">
        <ele>1497.87</ele>
        <time>2017-12-23T11:58:02Z</time>
      </trkpt>
      <trkpt lat="44.0535" lon="6.23944">
        <ele>1497.87</ele>
        <time>2017-12-23T11:58:41Z</time>
      </trkpt>
      <trkpt lat="44.05351" lon="6.23943">
        <ele>1497.87</ele>
        <time>2017-12-23T11:59:20Z</time>
      </trkpt>
      <trkpt lat="44.05351" lon="6.23943">
        <ele>1497.87</ele>
        <time>2017-12-23T11:59:56Z</time>
      </trkpt>
      <trkpt lat="44.05351" lon="6.23943">
        <ele>1497.87</ele>
        <time>2017-12-23T12:00:43Z</time>
      </trkpt>
      <trkpt lat="44.05351" lon="6.23943">
        <ele>1498.35</ele>
        <time>2017-12-23T12:01:22Z</time>
      </trkpt>
      <trkpt lat="44.05351" lon="6.23943">
        <ele>1498.35</ele>
        <time>2017-12-23T12:02:09Z</time>
      </trkpt>
      <trkpt lat="44.05351" lon="6.23943">
        <ele>1499.31</ele>
        <time>2017-12-23T12:02:51Z</time>
      </trkpt>
      <trkpt lat="44.05351" lon="6.23943">
        <ele>1499.31</ele>
        <time>2017-12-23T12:03:36Z</time>
      </trkpt>
      <trkpt lat="44.05351" lon="6.23943">
        <ele>1499.31</ele>
        <time>2017-12-23T12:04:22Z</time>
      </trkpt>
      <trkpt lat="44.05351" lon="6.23944">
        <ele>1499.79</ele>
        <time>2017-12-23T12:05:08Z</time>
      </trkpt>
      <trkpt lat="44.05351" lon="6.23944">
        <ele>1499.79</ele>
        <time>2017-12-23T12:06:00Z</time>
      </trkpt>
      <trkpt lat="44.05351" lon="6.23943">
        <ele>1499.79</ele>
        <time>2017-12-23T12:06:46Z</time>
      </trkpt>
      <trkpt lat="44.05351" lon="6.23943">
        <ele>1499.79</ele>
        <time>2017-12-23T12:07:25Z</time>
      </trkpt>
      <trkpt lat="44.05351" lon="6.23944">
        <ele>1499.79</ele>
        <time>2017-12-23T12:08:00Z</time>
      </trkpt>
      <trkpt lat="44.05351" lon="6.23944">
        <ele>1499.79</ele>
        <time>2017-12-23T12:08:41Z</time>
      </trkpt>
      <trkpt lat="44.05351" lon="6.23944">
        <ele>1499.79</ele>
        <time>2017-12-23T12:09:12Z</time>
      </trkpt>
      <trkpt lat="44.05351" lon="6.23943">
        <ele>1500.27</ele>
        <time>2017-12-23T12:09:53Z</time>
      </trkpt>
      <trkpt lat="44.05351" lon="6.23943">
        <ele>1500.27</ele>
        <time>2017-12-23T12:10:26Z</time>
      </trkpt>
      <trkpt lat="44.05351" lon="6.23943">
        <ele>1500.27</ele>
        <time>2017-12-23T12:11:02Z</time>
      </trkpt>
      <trkpt lat="44.05351" lon="6.23942">
        <ele>1500.76</ele>
        <time>2017-12-23T12:11:35Z</time>
      </trkpt>
      <trkpt lat="44.05351" lon="6.23943">
        <ele>1500.76</ele>
        <time>2017-12-23T12:12:06Z</time>
      </trkpt>
      <trkpt lat="44.05351" lon="6.23942">
        <ele>1500.76</ele>
        <time>2017-12-23T12:12:42Z</time>
      </trkpt>
      <trkpt lat="44.05351" lon="6.23942">
        <ele>1500.76</ele>
        <time>2017-12-23T12:13:11Z</time>
      </trkpt>
      <trkpt lat="44.05351" lon="6.23943">
        <ele>1500.76</ele>
        <time>2017-12-23T12:13:51Z</time>
      </trkpt>
      <trkpt lat="44.05351" lon="6.23943">
        <ele>1501.24</ele>
        <time>2017-12-23T12:14:40Z</time>
      </trkpt>
      <trkpt lat="44.05351" lon="6.23943">
        <ele>1501.24</ele>
        <time>2017-12-23T12:15:24Z</time>
      </trkpt>
      <trkpt lat="44.05351" lon="6.23943">
        <ele>1501.24</ele>
        <time>2017-12-23T12:16:01Z</time>
      </trkpt>
      <trkpt lat="44.05351" lon="6.23943">
        <ele>1501.24</ele>
        <time>2017-12-23T12:16:30Z</time>
      </trkpt>
      <trkpt lat="44.05351" lon="6.23943">
        <ele>1501.24</ele>
        <time>2017-12-23T12:17:04Z</time>
      </trkpt>
      <trkpt lat="44.05351" lon="6.23942">
        <ele>1501.24</ele>
        <time>2017-12-23T12:17:37Z</time>
      </trkpt>
      <trkpt lat="44.05351" lon="6.23943">
        <ele>1501.72</ele>
        <time>2017-12-23T12:18:09Z</time>
      </trkpt>
      <trkpt lat="44.05351" lon="6.23941">
        <ele>1501.72</ele>
        <time>2017-12-23T12:18:34Z</time>
      </trkpt>
      <trkpt lat="44.0535" lon="6.23944">
        <ele>1501.72</ele>
        <time>2017-12-23T12:18:58Z</time>
      </trkpt>
      <trkpt lat="44.05351" lon="6.23944">
        <ele>1501.72</ele>
        <time>2017-12-23T12:19:23Z</time>
      </trkpt>
      <trkpt lat="44.05351" lon="6.23943">
        <ele>1501.72</ele>
        <time>2017-12-23T12:19:50Z</time>
      </trkpt>
      <trkpt lat="44.05351" lon="6.23944">
        <ele>1501.72</ele>
        <time>2017-12-23T12:20:32Z</time>
      </trkpt>
      <trkpt lat="44.05351" lon="6.23944">
        <ele>1501.72</ele>
        <time>2017-12-23T12:21:02Z</time>
      </trkpt>
      <trkpt lat="44.05351" lon="6.23943">
        <ele>1501.72</ele>
        <time>2017-12-23T12:21:38Z</time>
      </trkpt>
      <trkpt lat="44.05351" lon="6.23943">
        <ele>1501.72</ele>
        <time>2017-12-23T12:22:14Z</time>
      </trkpt>
      <trkpt lat="44.05351" lon="6.23943">
        <ele>1501.72</ele>
        <time>2017-12-23T12:22:45Z</time>
      </trkpt>
      <trkpt lat="44.05351" lon="6.23943">
        <ele>1501.72</ele>
        <time>2017-12-23T12:23:18Z</time>
      </trkpt>
      <trkpt lat="44.05351" lon="6.23944">
        <ele>1502.2</ele>
        <time>2017-12-23T12:23:54Z</time>
      </trkpt>
      <trkpt lat="44.0535" lon="6.23944">
        <ele>1502.2</ele>
        <time>2017-12-23T12:24:31Z</time>
      </trkpt>
      <trkpt lat="44.05351" lon="6.23944">
        <ele>1502.2</ele>
        <time>2017-12-23T12:25:03Z</time>
      </trkpt>
      <trkpt lat="44.0535" lon="6.23943">
        <ele>1502.2</ele>
        <time>2017-12-23T12:25:41Z</time>
      </trkpt>
      <trkpt lat="44.0535" lon="6.23943">
        <ele>1502.68</ele>
        <time>2017-12-23T12:26:18Z</time>
      </trkpt>
      <trkpt lat="44.05351" lon="6.23942">
        <ele>1502.68</ele>
        <time>2017-12-23T12:26:52Z</time>
      </trkpt>
      <trkpt lat="44.05351" lon="6.23942">
        <ele>1502.68</ele>
        <time>2017-12-23T12:27:31Z</time>
      </trkpt>
      <trkpt lat="44.05351" lon="6.23943">
        <ele>1502.68</ele>
        <time>2017-12-23T12:28:14Z</time>
      </trkpt>
      <trkpt lat="44.0535" lon="6.23945">
        <ele>1502.68</ele>
        <time>2017-12-23T12:28:37Z</time>
      </trkpt>
      <trkpt lat="44.0535" lon="6.23944">
        <ele>1499.31</ele>
        <time>2017-12-23T12:28:56Z</time>
      </trkpt>
      <trkpt lat="44.0535" lon="6.23944">
        <ele>1505.08</ele>
        <time>2017-12-23T12:28:57Z</time>
      </trkpt>
      <trkpt lat="44.0535" lon="6.23944">
        <ele>1501.24</ele>
        <time>2017-12-23T12:29:13Z</time>
      </trkpt>
      <trkpt lat="44.0535" lon="6.23943">
        <ele>1504.12</ele>
        <time>2017-12-23T12:29:14Z</time>
      </trkpt>
      <trkpt lat="44.05351" lon="6.23942">
        <ele>1501.72</ele>
        <time>2017-12-23T12:29:42Z</time>
      </trkpt>
      <trkpt lat="44.05351" lon="6.23942">
        <ele>1503.16</ele>
        <time>2017-12-23T12:29:45Z</time>
      </trkpt>
      <trkpt lat="44.05351" lon="6.23942">
        <ele>1501.72</ele>
        <time>2017-12-23T12:29:47Z</time>
      </trkpt>
      <trkpt lat="44.05351" lon="6.23942">
        <ele>1502.2</ele>
        <time>2017-12-23T12:30:15Z</time>
      </trkpt>
      <trkpt lat="44.0535" lon="6.23944">
        <ele>1502.2</ele>
        <time>2017-12-23T12:30:44Z</time>
      </trkpt>
      <trkpt lat="44.0535" lon="6.23944">
        <ele>1502.2</ele>
        <time>2017-12-23T12:31:12Z</time>
      </trkpt>
      <trkpt lat="44.05351" lon="6.23943">
        <ele>1502.2</ele>
        <time>2017-12-23T12:31:48Z</time>
      </trkpt>
      <trkpt lat="44.05351" lon="6.23943">
        <ele>1502.2</ele>
        <time>2017-12-23T12:32:32Z</time>
      </trkpt>
      <trkpt lat="44.05351" lon="6.23942">
        <ele>1502.2</ele>
        <time>2017-12-23T12:33:20Z</time>
      </trkpt>
      <trkpt lat="44.05351" lon="6.23943">
        <ele>1502.2</ele>
        <time>2017-12-23T12:33:47Z</time>
      </trkpt>
      <trkpt lat="44.05351" lon="6.23943">
        <ele>1503.64</ele>
        <time>2017-12-23T12:33:49Z</time>
      </trkpt>
      <trkpt lat="44.05351" lon="6.23944">
        <ele>1503.64</ele>
        <time>2017-12-23T12:34:20Z</time>
      </trkpt>
      <trkpt lat="44.0535" lon="6.23944">
        <ele>1503.64</ele>
        <time>2017-12-23T12:34:51Z</time>
      </trkpt>
      <trkpt lat="44.05349" lon="6.23944">
        <ele>1503.64</ele>
        <time>2017-12-23T12:35:22Z</time>
      </trkpt>
      <trkpt lat="44.0535" lon="6.23944">
        <ele>1503.64</ele>
        <time>2017-12-23T12:35:58Z</time>
      </trkpt>
      <trkpt lat="44.0535" lon="6.23946">
        <ele>1503.16</ele>
        <time>2017-12-23T12:36:17Z</time>
      </trkpt>
      <trkpt lat="44.05348" lon="6.23948">
        <ele>1503.16</ele>
        <time>2017-12-23T12:36:48Z</time>
      </trkpt>
      <trkpt lat="44.05349" lon="6.23946">
        <ele>1503.16</ele>
        <time>2017-12-23T12:37:22Z</time>
      </trkpt>
      <trkpt lat="44.05352" lon="6.23948">
        <ele>1503.16</ele>
        <time>2017-12-23T12:37:52Z</time>
      </trkpt>
      <trkpt lat="44.05351" lon="6.23944">
        <ele>1503.16</ele>
        <time>2017-12-23T12:38:20Z</time>
      </trkpt>
      <trkpt lat="44.05349" lon="6.23945">
        <ele>1503.16</ele>
        <time>2017-12-23T12:38:55Z</time>
      </trkpt>
      <trkpt lat="44.0535" lon="6.23945">
        <ele>1503.16</ele>
        <time>2017-12-23T12:39:30Z</time>
      </trkpt>
      <trkpt lat="44.05352" lon="6.23946">
        <ele>1503.16</ele>
        <time>2017-12-23T12:40:00Z</time>
      </trkpt>
      <trkpt lat="44.05351" lon="6.23946">
        <ele>1504.6</ele>
        <time>2017-12-23T12:40:10Z</time>
      </trkpt>
      <trkpt lat="44.05358" lon="6.23943">
        <ele>1506.52</ele>
        <time>2017-12-23T12:40:33Z</time>
      </trkpt>
      <trkpt lat="44.05359" lon="6.23957">
        <ele>1509.41</ele>
        <time>2017-12-23T12:40:50Z</time>
      </trkpt>
      <trkpt lat="44.05355" lon="6.23972">
        <ele>1510.37</ele>
        <time>2017-12-23T12:41:11Z</time>
      </trkpt>
      <trkpt lat="44.05356" lon="6.23974">
        <ele>1511.81</ele>
        <time>2017-12-23T12:41:15Z</time>
      </trkpt>
      <trkpt lat="44.05357" lon="6.23978">
        <ele>1510.37</ele>
        <time>2017-12-23T12:41:22Z</time>
      </trkpt>
      <trkpt lat="44.05348" lon="6.23995">
        <ele>1507.97</ele>
        <time>2017-12-23T12:41:44Z</time>
      </trkpt>
      <trkpt lat="44.05343" lon="6.23994">
        <ele>1504.6</ele>
        <time>2017-12-23T12:42:05Z</time>
      </trkpt>
      <trkpt lat="44.05335" lon="6.23993">
        <ele>1503.16</ele>
        <time>2017-12-23T12:42:25Z</time>
      </trkpt>
      <trkpt lat="44.05324" lon="6.24011">
        <ele>1499.79</ele>
        <time>2017-12-23T12:42:47Z</time>
      </trkpt>
      <trkpt lat="44.05314" lon="6.24016">
        <ele>1496.43</ele>
        <time>2017-12-23T12:43:00Z</time>
      </trkpt>
      <trkpt lat="44.053" lon="6.24024">
        <ele>1493.06</ele>
        <time>2017-12-23T12:43:18Z</time>
      </trkpt>
      <trkpt lat="44.05287" lon="6.24032">
        <ele>1489.7</ele>
        <time>2017-12-23T12:43:35Z</time>
      </trkpt>
      <trkpt lat="44.05277" lon="6.24044">
        <ele>1486.82</ele>
        <time>2017-12-23T12:43:54Z</time>
      </trkpt>
      <trkpt lat="44.0527" lon="6.2405">
        <ele>1485.37</ele>
        <time>2017-12-23T12:44:03Z</time>
      </trkpt>
      <trkpt lat="44.05262" lon="6.24056">
        <ele>1482.97</ele>
        <time>2017-12-23T12:44:11Z</time>
      </trkpt>
      <trkpt lat="44.05251" lon="6.24066">
        <ele>1480.57</ele>
        <time>2017-12-23T12:44:24Z</time>
      </trkpt>
      <trkpt lat="44.05244" lon="6.24073">
        <ele>1476.72</ele>
        <time>2017-12-23T12:44:43Z</time>
      </trkpt>
      <trkpt lat="44.05223" lon="6.24095">
        <ele>1474.32</ele>
        <time>2017-12-23T12:45:05Z</time>
      </trkpt>
      <trkpt lat="44.05212" lon="6.24111">
        <ele>1471.44</ele>
        <time>2017-12-23T12:45:24Z</time>
      </trkpt>
      <trkpt lat="44.05209" lon="6.24118">
        <ele>1470.95</ele>
        <time>2017-12-23T12:45:34Z</time>
      </trkpt>
      <trkpt lat="44.05206" lon="6.24118">
        <ele>1469.51</ele>
        <time>2017-12-23T12:45:38Z</time>
      </trkpt>
      <trkpt lat="44.052" lon="6.24124">
        <ele>1466.63</ele>
        <time>2017-12-23T12:45:56Z</time>
      </trkpt>
      <trkpt lat="44.05197" lon="6.24129">
        <ele>1463.26</ele>
        <time>2017-12-23T12:46:02Z</time>
      </trkpt>
      <trkpt lat="44.05197" lon="6.24129">
        <ele>1467.59</ele>
        <time>2017-12-23T12:46:03Z</time>
      </trkpt>
      <trkpt lat="44.05196" lon="6.24125">
        <ele>1464.71</ele>
        <time>2017-12-23T12:46:13Z</time>
      </trkpt>
      <trkpt lat="44.05198" lon="6.2411">
        <ele>1461.34</ele>
        <time>2017-12-23T12:46:28Z</time>
      </trkpt>
      <trkpt lat="44.05193" lon="6.24098">
        <ele>1457.98</ele>
        <time>2017-12-23T12:46:43Z</time>
      </trkpt>
      <trkpt lat="44.05192" lon="6.24088">
        <ele>1455.09</ele>
        <time>2017-12-23T12:46:56Z</time>
      </trkpt>
      <trkpt lat="44.05194" lon="6.24073">
        <ele>1451.73</ele>
        <time>2017-12-23T12:47:13Z</time>
      </trkpt>
      <trkpt lat="44.05192" lon="6.24053">
        <ele>1449.32</ele>
        <time>2017-12-23T12:47:31Z</time>
      </trkpt>
      <trkpt lat="44.05191" lon="6.24033">
        <ele>1446.44</ele>
        <time>2017-12-23T12:47:49Z</time>
      </trkpt>
      <trkpt lat="44.05191" lon="6.24019">
        <ele>1443.08</ele>
        <time>2017-12-23T12:48:02Z</time>
      </trkpt>
      <trkpt lat="44.05198" lon="6.23996">
        <ele>1439.71</ele>
        <time>2017-12-23T12:48:23Z</time>
      </trkpt>
      <trkpt lat="44.05199" lon="6.23981">
        <ele>1436.35</ele>
        <time>2017-12-23T12:48:42Z</time>
      </trkpt>
      <trkpt lat="44.052" lon="6.23957">
        <ele>1432.98</ele>
        <time>2017-12-23T12:48:58Z</time>
      </trkpt>
      <trkpt lat="44.05203" lon="6.23947">
        <ele>1431.06</ele>
        <time>2017-12-23T12:49:08Z</time>
      </trkpt>
      <trkpt lat="44.05201" lon="6.23928">
        <ele>1427.21</ele>
        <time>2017-12-23T12:49:23Z</time>
      </trkpt>
      <trkpt lat="44.05202" lon="6.23912">
        <ele>1423.85</ele>
        <time>2017-12-23T12:49:39Z</time>
      </trkpt>
      <trkpt lat="44.05203" lon="6.23892">
        <ele>1420.49</ele>
        <time>2017-12-23T12:49:55Z</time>
      </trkpt>
      <trkpt lat="44.05205" lon="6.23877">
        <ele>1417.12</ele>
        <time>2017-12-23T12:50:08Z</time>
      </trkpt>
      <trkpt lat="44.05209" lon="6.23858">
        <ele>1413.76</ele>
        <time>2017-12-23T12:50:26Z</time>
      </trkpt>
      <trkpt lat="44.05212" lon="6.23849">
        <ele>1414.24</ele>
        <time>2017-12-23T12:50:34Z</time>
      </trkpt>
      <trkpt lat="44.05212" lon="6.23845">
        <ele>1412.79</ele>
        <time>2017-12-23T12:50:36Z</time>
      </trkpt>
      <trkpt lat="44.05213" lon="6.23829">
        <ele>1409.91</ele>
        <time>2017-12-23T12:50:48Z</time>
      </trkpt>
      <trkpt lat="44.05214" lon="6.23828">
        <ele>1409.91</ele>
        <time>2017-12-23T12:50:49Z</time>
      </trkpt>
      <trkpt lat="44.05216" lon="6.23816">
        <ele>1406.55</ele>
        <time>2017-12-23T12:51:02Z</time>
      </trkpt>
      <trkpt lat="44.05216" lon="6.23814">
        <ele>1406.55</ele>
        <time>2017-12-23T12:51:03Z</time>
      </trkpt>
      <trkpt lat="44.05215" lon="6.23815">
        <ele>1406.07</ele>
        <time>2017-12-23T12:51:24Z</time>
      </trkpt>
      <trkpt lat="44.05214" lon="6.2381">
        <ele>1404.62</ele>
        <time>2017-12-23T12:51:29Z</time>
      </trkpt>
      <trkpt lat="44.05201" lon="6.238">
        <ele>1401.74</ele>
        <time>2017-12-23T12:51:41Z</time>
      </trkpt>
      <trkpt lat="44.05186" lon="6.23794">
        <ele>1398.37</ele>
        <time>2017-12-23T12:51:56Z</time>
      </trkpt>
      <trkpt lat="44.05175" lon="6.2379">
        <ele>1396.45</ele>
        <time>2017-12-23T12:52:05Z</time>
      </trkpt>
      <trkpt lat="44.05162" lon="6.23778">
        <ele>1393.57</ele>
        <time>2017-12-23T12:52:29Z</time>
      </trkpt>
      <trkpt lat="44.05159" lon="6.23771">
        <ele>1395.01</ele>
        <time>2017-12-23T12:52:35Z</time>
      </trkpt>
      <trkpt lat="44.05152" lon="6.23764">
        <ele>1395.01</ele>
        <time>2017-12-23T12:52:42Z</time>
      </trkpt>
      <trkpt lat="44.05143" lon="6.2374">
        <ele>1398.86</ele>
        <time>2017-12-23T12:52:56Z</time>
      </trkpt>
      <trkpt lat="44.05143" lon="6.23739">
        <ele>1394.05</ele>
        <time>2017-12-23T12:52:57Z</time>
      </trkpt>
      <trkpt lat="44.05142" lon="6.23738">
        <ele>1398.37</ele>
        <time>2017-12-23T12:52:58Z</time>
      </trkpt>
      <trkpt lat="44.05141" lon="6.23736">
        <ele>1395.01</ele>
        <time>2017-12-23T12:53:00Z</time>
      </trkpt>
      <trkpt lat="44.05141" lon="6.23735">
        <ele>1399.34</ele>
        <time>2017-12-23T12:53:01Z</time>
      </trkpt>
      <trkpt lat="44.05141" lon="6.23733">
        <ele>1395.97</ele>
        <time>2017-12-23T12:53:03Z</time>
      </trkpt>
      <trkpt lat="44.05141" lon="6.23732">
        <ele>1400.3</ele>
        <time>2017-12-23T12:53:04Z</time>
      </trkpt>
      <trkpt lat="44.05141" lon="6.23731">
        <ele>1396.93</ele>
        <time>2017-12-23T12:53:05Z</time>
      </trkpt>
      <trkpt lat="44.0514" lon="6.2373">
        <ele>1400.3</ele>
        <time>2017-12-23T12:53:07Z</time>
      </trkpt>
      <trkpt lat="44.05135" lon="6.23726">
        <ele>1394.05</ele>
        <time>2017-12-23T12:53:17Z</time>
      </trkpt>
      <trkpt lat="44.05135" lon="6.23726">
        <ele>1404.62</ele>
        <time>2017-12-23T12:53:18Z</time>
      </trkpt>
      <trkpt lat="44.05134" lon="6.23726">
        <ele>1400.78</ele>
        <time>2017-12-23T12:53:19Z</time>
      </trkpt>
      <trkpt lat="44.05129" lon="6.23719">
        <ele>1404.14</ele>
        <time>2017-12-23T12:53:29Z</time>
      </trkpt>
      <trkpt lat="44.05117" lon="6.23716">
        <ele>1404.14</ele>
        <time>2017-12-23T12:53:48Z</time>
      </trkpt>
      <trkpt lat="44.05112" lon="6.23719">
        <ele>1405.58</ele>
        <time>2017-12-23T12:53:54Z</time>
      </trkpt>
      <trkpt lat="44.05109" lon="6.23721">
        <ele>1404.14</ele>
        <time>2017-12-23T12:53:57Z</time>
      </trkpt>
      <trkpt lat="44.05105" lon="6.23722">
        <ele>1405.1</ele>
        <time>2017-12-23T12:54:16Z</time>
      </trkpt>
      <trkpt lat="44.05103" lon="6.23722">
        <ele>1403.66</ele>
        <time>2017-12-23T12:54:18Z</time>
      </trkpt>
      <trkpt lat="44.05098" lon="6.23721">
        <ele>1406.07</ele>
        <time>2017-12-23T12:54:23Z</time>
      </trkpt>
      <trkpt lat="44.05091" lon="6.23718">
        <ele>1406.07</ele>
        <time>2017-12-23T12:54:29Z</time>
      </trkpt>
      <trkpt lat="44.05088" lon="6.23717">
        <ele>1404.62</ele>
        <time>2017-12-23T12:54:31Z</time>
      </trkpt>
      <trkpt lat="44.05083" lon="6.23714">
        <ele>1405.1</ele>
        <time>2017-12-23T12:54:36Z</time>
      </trkpt>
      <trkpt lat="44.05079" lon="6.23711">
        <ele>1403.18</ele>
        <time>2017-12-23T12:54:39Z</time>
      </trkpt>
      <trkpt lat="44.05074" lon="6.23707">
        <ele>1405.58</ele>
        <time>2017-12-23T12:54:45Z</time>
      </trkpt>
      <trkpt lat="44.05068" lon="6.23703">
        <ele>1403.18</ele>
        <time>2017-12-23T12:54:50Z</time>
      </trkpt>
      <trkpt lat="44.05067" lon="6.23703">
        <ele>1406.55</ele>
        <time>2017-12-23T12:54:51Z</time>
      </trkpt>
      <trkpt lat="44.05062" lon="6.23702">
        <ele>1403.66</ele>
        <time>2017-12-23T12:54:55Z</time>
      </trkpt>
      <trkpt lat="44.05061" lon="6.23702">
        <ele>1407.51</ele>
        <time>2017-12-23T12:54:56Z</time>
      </trkpt>
      <trkpt lat="44.05058" lon="6.23698">
        <ele>1404.62</ele>
        <time>2017-12-23T12:54:59Z</time>
      </trkpt>
      <trkpt lat="44.05056" lon="6.23696">
        <ele>1407.99</ele>
        <time>2017-12-23T12:55:01Z</time>
      </trkpt>
      <trkpt lat="44.05052" lon="6.23696">
        <ele>1404.62</ele>
        <time>2017-12-23T12:55:04Z</time>
      </trkpt>
      <trkpt lat="44.05052" lon="6.23695">
        <ele>1409.43</ele>
        <time>2017-12-23T12:55:05Z</time>
      </trkpt>
      <trkpt lat="44.0503" lon="6.23677">
        <ele>1411.83</ele>
        <time>2017-12-23T12:55:27Z</time>
      </trkpt>
      <trkpt lat="44.05027" lon="6.23677">
        <ele>1409.43</ele>
        <time>2017-12-23T12:55:30Z</time>
      </trkpt>
      <trkpt lat="44.05012" lon="6.23668">
        <ele>1412.79</ele>
        <time>2017-12-23T12:55:46Z</time>
      </trkpt>
      <trkpt lat="44.05004" lon="6.23663">
        <ele>1412.31</ele>
        <time>2017-12-23T12:55:54Z</time>
      </trkpt>
      <trkpt lat="44.04991" lon="6.23656">
        <ele>1412.31</ele>
        <time>2017-12-23T12:56:07Z</time>
      </trkpt>
      <trkpt lat="44.0497" lon="6.23646">
        <ele>1412.79</ele>
        <time>2017-12-23T12:56:27Z</time>
      </trkpt>
      <trkpt lat="44.04955" lon="6.23642">
        <ele>1411.35</ele>
        <time>2017-12-23T12:56:39Z</time>
      </trkpt>
      <trkpt lat="44.04936" lon="6.23628">
        <ele>1414.24</ele>
        <time>2017-12-23T12:56:55Z</time>
      </trkpt>
      <trkpt lat="44.04936" lon="6.23627">
        <ele>1412.31</ele>
        <time>2017-12-23T12:56:56Z</time>
      </trkpt>
      <trkpt lat="44.04931" lon="6.23626">
        <ele>1415.68</ele>
        <time>2017-12-23T12:57:05Z</time>
      </trkpt>
      <trkpt lat="44.04923" lon="6.23629">
        <ele>1419.04</ele>
        <time>2017-12-23T12:57:17Z</time>
      </trkpt>
      <trkpt lat="44.04923" lon="6.23629">
        <ele>1415.68</ele>
        <time>2017-12-23T12:57:18Z</time>
      </trkpt>
      <trkpt lat="44.04917" lon="6.23621">
        <ele>1420</ele>
        <time>2017-12-23T12:57:28Z</time>
      </trkpt>
      <trkpt lat="44.04899" lon="6.23603">
        <ele>1418.56</ele>
        <time>2017-12-23T12:57:45Z</time>
      </trkpt>
      <trkpt lat="44.04886" lon="6.23592">
        <ele>1417.12</ele>
        <time>2017-12-23T12:57:55Z</time>
      </trkpt>
      <trkpt lat="44.04875" lon="6.23583">
        <ele>1419.52</ele>
        <time>2017-12-23T12:58:03Z</time>
      </trkpt>
      <trkpt lat="44.04861" lon="6.23572">
        <ele>1419.52</ele>
        <time>2017-12-23T12:58:15Z</time>
      </trkpt>
      <trkpt lat="44.04858" lon="6.23568">
        <ele>1418.08</ele>
        <time>2017-12-23T12:58:19Z</time>
      </trkpt>
      <trkpt lat="44.04847" lon="6.23559">
        <ele>1415.68</ele>
        <time>2017-12-23T12:58:31Z</time>
      </trkpt>
      <trkpt lat="44.04834" lon="6.2355">
        <ele>1413.28</ele>
        <time>2017-12-23T12:58:46Z</time>
      </trkpt>
      <trkpt lat="44.04816" lon="6.23538">
        <ele>1409.91</ele>
        <time>2017-12-23T12:58:59Z</time>
      </trkpt>
      <trkpt lat="44.04806" lon="6.2353">
        <ele>1409.91</ele>
        <time>2017-12-23T12:59:05Z</time>
      </trkpt>
      <trkpt lat="44.04803" lon="6.23529">
        <ele>1411.35</ele>
        <time>2017-12-23T12:59:07Z</time>
      </trkpt>
      <trkpt lat="44.048" lon="6.23527">
        <ele>1409.91</ele>
        <time>2017-12-23T12:59:09Z</time>
      </trkpt>
      <trkpt lat="44.04797" lon="6.23525">
        <ele>1411.83</ele>
        <time>2017-12-23T12:59:11Z</time>
      </trkpt>
      <trkpt lat="44.04795" lon="6.23524">
        <ele>1410.39</ele>
        <time>2017-12-23T12:59:13Z</time>
      </trkpt>
      <trkpt lat="44.04787" lon="6.23521">
        <ele>1412.79</ele>
        <time>2017-12-23T12:59:21Z</time>
      </trkpt>
      <trkpt lat="44.04783" lon="6.23518">
        <ele>1410.87</ele>
        <time>2017-12-23T12:59:24Z</time>
      </trkpt>
      <trkpt lat="44.0478" lon="6.23516">
        <ele>1411.83</ele>
        <time>2017-12-23T12:59:26Z</time>
      </trkpt>
      <trkpt lat="44.04777" lon="6.23514">
        <ele>1413.76</ele>
        <time>2017-12-23T12:59:29Z</time>
      </trkpt>
      <trkpt lat="44.04765" lon="6.23507">
        <ele>1410.87</ele>
        <time>2017-12-23T12:59:42Z</time>
      </trkpt>
      <trkpt lat="44.04763" lon="6.23506">
        <ele>1413.28</ele>
        <time>2017-12-23T12:59:44Z</time>
      </trkpt>
      <trkpt lat="44.0476" lon="6.23506">
        <ele>1411.35</ele>
        <time>2017-12-23T12:59:46Z</time>
      </trkpt>
      <trkpt lat="44.04745" lon="6.23502">
        <ele>1412.31</ele>
        <time>2017-12-23T12:59:56Z</time>
      </trkpt>
      <trkpt lat="44.04742" lon="6.23503">
        <ele>1410.87</ele>
        <time>2017-12-23T12:59:58Z</time>
      </trkpt>
      <trkpt lat="44.04739" lon="6.23502">
        <ele>1412.31</ele>
        <time>2017-12-23T13:00:00Z</time>
      </trkpt>
      <trkpt lat="44.0473" lon="6.23499">
        <ele>1410.39</ele>
        <time>2017-12-23T13:00:07Z</time>
      </trkpt>
      <trkpt lat="44.04716" lon="6.23494">
        <ele>1409.91</ele>
        <time>2017-12-23T13:00:21Z</time>
      </trkpt>
      <trkpt lat="44.04714" lon="6.23492">
        <ele>1410.87</ele>
        <time>2017-12-23T13:00:42Z</time>
      </trkpt>
      <trkpt lat="44.04719" lon="6.2349">
        <ele>1409.43</ele>
        <time>2017-12-23T13:01:00Z</time>
      </trkpt>
      <trkpt lat="44.04717" lon="6.23489">
        <ele>1411.35</ele>
        <time>2017-12-23T13:01:25Z</time>
      </trkpt>
      <trkpt lat="44.04716" lon="6.23489">
        <ele>1411.35</ele>
        <time>2017-12-23T13:01:26Z</time>
      </trkpt>
      <trkpt lat="44.04714" lon="6.23484">
        <ele>1409.43</ele>
        <time>2017-12-23T13:01:30Z</time>
      </trkpt>
      <trkpt lat="44.04712" lon="6.23478">
        <ele>1408.95</ele>
        <time>2017-12-23T13:01:35Z</time>
      </trkpt>
      <trkpt lat="44.0471" lon="6.23475">
        <ele>1409.91</ele>
        <time>2017-12-23T13:01:37Z</time>
      </trkpt>
      <trkpt lat="44.04707" lon="6.23466">
        <ele>1408.95</ele>
        <time>2017-12-23T13:01:42Z</time>
      </trkpt>
      <trkpt lat="44.04688" lon="6.23427">
        <ele>1407.51</ele>
        <time>2017-12-23T13:02:06Z</time>
      </trkpt>
      <trkpt lat="44.04682" lon="6.23419">
        <ele>1406.07</ele>
        <time>2017-12-23T13:02:14Z</time>
      </trkpt>
      <trkpt lat="44.04674" lon="6.23401">
        <ele>1403.18</ele>
        <time>2017-12-23T13:02:29Z</time>
      </trkpt>
      <trkpt lat="44.04665" lon="6.2339">
        <ele>1402.22</ele>
        <time>2017-12-23T13:02:41Z</time>
      </trkpt>
      <trkpt lat="44.04655" lon="6.23392">
        <ele>1403.18</ele>
        <time>2017-12-23T13:02:50Z</time>
      </trkpt>
      <trkpt lat="44.04647" lon="6.23401">
        <ele>1400.78</ele>
        <time>2017-12-23T13:03:05Z</time>
      </trkpt>
      <trkpt lat="44.04646" lon="6.23402">
        <ele>1404.62</ele>
        <time>2017-12-23T13:03:06Z</time>
      </trkpt>
      <trkpt lat="44.04646" lon="6.23402">
        <ele>1402.22</ele>
        <time>2017-12-23T13:03:07Z</time>
      </trkpt>
      <trkpt lat="44.04643" lon="6.23403">
        <ele>1403.18</ele>
        <time>2017-12-23T13:03:10Z</time>
      </trkpt>
      <trkpt lat="44.04637" lon="6.23396">
        <ele>1401.74</ele>
        <time>2017-12-23T13:03:31Z</time>
      </trkpt>
      <trkpt lat="44.04636" lon="6.23396">
        <ele>1402.7</ele>
        <time>2017-12-23T13:03:34Z</time>
      </trkpt>
      <trkpt lat="44.04632" lon="6.23399">
        <ele>1398.86</ele>
        <time>2017-12-23T13:03:46Z</time>
      </trkpt>
      <trkpt lat="44.0463" lon="6.23397">
        <ele>1405.1</ele>
        <time>2017-12-23T13:03:47Z</time>
      </trkpt>
      <trkpt lat="44.04629" lon="6.23398">
        <ele>1401.26</ele>
        <time>2017-12-23T13:03:48Z</time>
      </trkpt>
      <trkpt lat="44.04626" lon="6.23402">
        <ele>1404.62</ele>
        <time>2017-12-23T13:03:54Z</time>
      </trkpt>
      <trkpt lat="44.04622" lon="6.23404">
        <ele>1404.62</ele>
        <time>2017-12-23T13:04:05Z</time>
      </trkpt>
      <trkpt lat="44.04621" lon="6.23407">
        <ele>1404.14</ele>
        <time>2017-12-23T13:04:14Z</time>
      </trkpt>
      <trkpt lat="44.04612" lon="6.23407">
        <ele>1406.55</ele>
        <time>2017-12-23T13:04:35Z</time>
      </trkpt>
      <trkpt lat="44.04608" lon="6.23384">
        <ele>1403.66</ele>
        <time>2017-12-23T13:04:55Z</time>
      </trkpt>
      <trkpt lat="44.04607" lon="6.23367">
        <ele>1403.66</ele>
        <time>2017-12-23T13:05:14Z</time>
      </trkpt>
      <trkpt lat="44.04617" lon="6.23359">
        <ele>1401.74</ele>
        <time>2017-12-23T13:05:24Z</time>
      </trkpt>
      <trkpt lat="44.04625" lon="6.23335">
        <ele>1400.3</ele>
        <time>2017-12-23T13:05:44Z</time>
      </trkpt>
      <trkpt lat="44.04632" lon="6.23327">
        <ele>1397.89</ele>
        <time>2017-12-23T13:06:03Z</time>
      </trkpt>
      <trkpt lat="44.04639" lon="6.23316">
        <ele>1398.37</ele>
        <time>2017-12-23T13:06:24Z</time>
      </trkpt>
      <trkpt lat="44.04642" lon="6.2332">
        <ele>1396.93</ele>
        <time>2017-12-23T13:06:33Z</time>
      </trkpt>
      <trkpt lat="44.04642" lon="6.2332">
        <ele>1393.09</ele>
        <time>2017-12-23T13:06:35Z</time>
      </trkpt>
      <trkpt lat="44.04642" lon="6.2332">
        <ele>1398.86</ele>
        <time>2017-12-23T13:06:36Z</time>
      </trkpt>
      <trkpt lat="44.04644" lon="6.23324">
        <ele>1396.93</ele>
        <time>2017-12-23T13:07:05Z</time>
      </trkpt>
      <trkpt lat="44.0464" lon="6.23325">
        <ele>1400.3</ele>
        <time>2017-12-23T13:07:21Z</time>
      </trkpt>
      <trkpt lat="44.0464" lon="6.23325">
        <ele>1398.37</ele>
        <time>2017-12-23T13:07:22Z</time>
      </trkpt>
      <trkpt lat="44.04651" lon="6.23309">
        <ele>1396.93</ele>
        <time>2017-12-23T13:07:41Z</time>
      </trkpt>
      <trkpt lat="44.0465" lon="6.23314">
        <ele>1396.45</ele>
        <time>2017-12-23T13:08:02Z</time>
      </trkpt>
      <trkpt lat="44.04655" lon="6.23309">
        <ele>1395.01</ele>
        <time>2017-12-23T13:08:11Z</time>
      </trkpt>
      <trkpt lat="44.04664" lon="6.23309">
        <ele>1393.57</ele>
        <time>2017-12-23T13:08:31Z</time>
      </trkpt>
      <trkpt lat="44.04661" lon="6.23307">
        <ele>1396.93</ele>
        <time>2017-12-23T13:08:36Z</time>
      </trkpt>
      <trkpt lat="44.0466" lon="6.23311">
        <ele>1396.45</ele>
        <time>2017-12-23T13:08:43Z</time>
      </trkpt>
      <trkpt lat="44.04654" lon="6.23317">
        <ele>1397.41</ele>
        <time>2017-12-23T13:08:53Z</time>
      </trkpt>
      <trkpt lat="44.04643" lon="6.23324">
        <ele>1397.89</ele>
        <time>2017-12-23T13:09:10Z</time>
      </trkpt>
      <trkpt lat="44.04628" lon="6.23336">
        <ele>1396.93</ele>
        <time>2017-12-23T13:09:33Z</time>
      </trkpt>
      <trkpt lat="44.04636" lon="6.23326">
        <ele>1396.45</ele>
        <time>2017-12-23T13:10:01Z</time>
      </trkpt>
      <trkpt lat="44.04643" lon="6.2332">
        <ele>1396.45</ele>
        <time>2017-12-23T13:10:29Z</time>
      </trkpt>
      <trkpt lat="44.04637" lon="6.23326">
        <ele>1396.45</ele>
        <time>2017-12-23T13:10:51Z</time>
      </trkpt>
      <trkpt lat="44.04642" lon="6.23321">
        <ele>1395.97</ele>
        <time>2017-12-23T13:11:15Z</time>
      </trkpt>
      <trkpt lat="44.0464" lon="6.23333">
        <ele>1396.93</ele>
        <time>2017-12-23T13:11:44Z</time>
      </trkpt>
      <trkpt lat="44.04649" lon="6.23345">
        <ele>1397.41</ele>
        <time>2017-12-23T13:12:01Z</time>
      </trkpt>
      <trkpt lat="44.04657" lon="6.23358">
        <ele>1396.93</ele>
        <time>2017-12-23T13:12:13Z</time>
      </trkpt>
      <trkpt lat="44.04658" lon="6.23366">
        <ele>1398.37</ele>
        <time>2017-12-23T13:12:17Z</time>
      </trkpt>
      <trkpt lat="44.04663" lon="6.23391">
        <ele>1398.86</ele>
        <time>2017-12-23T13:12:32Z</time>
      </trkpt>
      <trkpt lat="44.04664" lon="6.234">
        <ele>1397.89</ele>
        <time>2017-12-23T13:12:40Z</time>
      </trkpt>
      <trkpt lat="44.04664" lon="6.23404">
        <ele>1401.26</ele>
        <time>2017-12-23T13:12:43Z</time>
      </trkpt>
      <trkpt lat="44.04656" lon="6.23409">
        <ele>1404.14</ele>
        <time>2017-12-23T13:13:06Z</time>
      </trkpt>
      <trkpt lat="44.04652" lon="6.23419">
        <ele>1404.14</ele>
        <time>2017-12-23T13:13:18Z</time>
      </trkpt>
      <trkpt lat="44.04653" lon="6.23418">
        <ele>1406.07</ele>
        <time>2017-12-23T13:13:20Z</time>
      </trkpt>
      <trkpt lat="44.04654" lon="6.23416">
        <ele>1404.62</ele>
        <time>2017-12-23T13:13:22Z</time>
      </trkpt>
      <trkpt lat="44.04654" lon="6.23411">
        <ele>1405.58</ele>
        <time>2017-12-23T13:13:27Z</time>
      </trkpt>
      <trkpt lat="44.0465" lon="6.23403">
        <ele>1406.07</ele>
        <time>2017-12-23T13:13:35Z</time>
      </trkpt>
      <trkpt lat="44.04648" lon="6.23403">
        <ele>1409.91</ele>
        <time>2017-12-23T13:13:38Z</time>
      </trkpt>
      <trkpt lat="44.04646" lon="6.23401">
        <ele>1404.62</ele>
        <time>2017-12-23T13:13:43Z</time>
      </trkpt>
      <trkpt lat="44.04646" lon="6.234">
        <ele>1410.39</ele>
        <time>2017-12-23T13:13:44Z</time>
      </trkpt>
      <trkpt lat="44.04646" lon="6.234">
        <ele>1406.07</ele>
        <time>2017-12-23T13:13:45Z</time>
      </trkpt>
      <trkpt lat="44.04645" lon="6.234">
        <ele>1408.95</ele>
        <time>2017-12-23T13:13:46Z</time>
      </trkpt>
      <trkpt lat="44.04642" lon="6.23413">
        <ele>1408.47</ele>
        <time>2017-12-23T13:14:05Z</time>
      </trkpt>
      <trkpt lat="44.04641" lon="6.23418">
        <ele>1408.47</ele>
        <time>2017-12-23T13:14:31Z</time>
      </trkpt>
      <trkpt lat="44.04637" lon="6.23417">
        <ele>1405.1</ele>
        <time>2017-12-23T13:14:40Z</time>
      </trkpt>
      <trkpt lat="44.04667" lon="6.23389">
        <ele>1408.95</ele>
        <time>2017-12-23T13:17:15Z</time>
      </trkpt>
      <trkpt lat="44.04666" lon="6.23395">
        <ele>1408.95</ele>
        <time>2017-12-23T13:17:16Z</time>
      </trkpt>
      <trkpt lat="44.04641" lon="6.23432">
        <ele>1409.43</ele>
        <time>2017-12-23T13:17:33Z</time>
      </trkpt>
      <trkpt lat="44.04645" lon="6.23425">
        <ele>1408.95</ele>
        <time>2017-12-23T13:17:57Z</time>
      </trkpt>
      <trkpt lat="44.04642" lon="6.23414">
        <ele>1408.95</ele>
        <time>2017-12-23T13:18:30Z</time>
      </trkpt>
      <trkpt lat="44.04644" lon="6.23416">
        <ele>1408.47</ele>
        <time>2017-12-23T13:18:50Z</time>
      </trkpt>
      <trkpt lat="44.04651" lon="6.23411">
        <ele>1406.07</ele>
        <time>2017-12-23T13:19:11Z</time>
      </trkpt>
      <trkpt lat="44.04657" lon="6.23419">
        <ele>1404.14</ele>
        <time>2017-12-23T13:19:21Z</time>
      </trkpt>
      <trkpt lat="44.04666" lon="6.23409">
        <ele>1400.78</ele>
        <time>2017-12-23T13:19:31Z</time>
      </trkpt>
      <trkpt lat="44.04667" lon="6.23396">
        <ele>1397.89</ele>
        <time>2017-12-23T13:19:42Z</time>
      </trkpt>
      <trkpt lat="44.04654" lon="6.23361">
        <ele>1396.93</ele>
        <time>2017-12-23T13:20:04Z</time>
      </trkpt>
      <trkpt lat="44.04649" lon="6.23358">
        <ele>1398.86</ele>
        <time>2017-12-23T13:20:13Z</time>
      </trkpt>
      <trkpt lat="44.04649" lon="6.23358">
        <ele>1396.93</ele>
        <time>2017-12-23T13:20:15Z</time>
      </trkpt>
      <trkpt lat="44.04641" lon="6.23336">
        <ele>1396.93</ele>
        <time>2017-12-23T13:20:32Z</time>
      </trkpt>
      <trkpt lat="44.04636" lon="6.23329">
        <ele>1395.01</ele>
        <time>2017-12-23T13:20:36Z</time>
      </trkpt>
      <trkpt lat="44.04628" lon="6.23307">
        <ele>1392.61</ele>
        <time>2017-12-23T13:20:53Z</time>
      </trkpt>
      <trkpt lat="44.04624" lon="6.23296">
        <ele>1389.24</ele>
        <time>2017-12-23T13:21:04Z</time>
      </trkpt>
      <trkpt lat="44.04618" lon="6.23286">
        <ele>1385.88</ele>
        <time>2017-12-23T13:21:19Z</time>
      </trkpt>
      <trkpt lat="44.04617" lon="6.23268">
        <ele>1382.99</ele>
        <time>2017-12-23T13:21:32Z</time>
      </trkpt>
      <trkpt lat="44.04616" lon="6.23263">
        <ele>1381.55</ele>
        <time>2017-12-23T13:21:36Z</time>
      </trkpt>
      <trkpt lat="44.04611" lon="6.23249">
        <ele>1380.59</ele>
        <time>2017-12-23T13:21:58Z</time>
      </trkpt>
      <trkpt lat="44.0461" lon="6.23245">
        <ele>1377.71</ele>
        <time>2017-12-23T13:22:15Z</time>
      </trkpt>
      <trkpt lat="44.04602" lon="6.23239">
        <ele>1373.86</ele>
        <time>2017-12-23T13:22:32Z</time>
      </trkpt>
      <trkpt lat="44.04596" lon="6.23236">
        <ele>1372.42</ele>
        <time>2017-12-23T13:22:41Z</time>
      </trkpt>
      <trkpt lat="44.04593" lon="6.23235">
        <ele>1368.57</ele>
        <time>2017-12-23T13:22:54Z</time>
      </trkpt>
      <trkpt lat="44.04589" lon="6.23238">
        <ele>1366.17</ele>
        <time>2017-12-23T13:23:08Z</time>
      </trkpt>
      <trkpt lat="44.046" lon="6.23261">
        <ele>1363.77</ele>
        <time>2017-12-23T13:23:29Z</time>
      </trkpt>
      <trkpt lat="44.04603" lon="6.2325">
        <ele>1360.4</ele>
        <time>2017-12-23T13:23:41Z</time>
      </trkpt>
      <trkpt lat="44.046" lon="6.23235">
        <ele>1356.56</ele>
        <time>2017-12-23T13:23:58Z</time>
      </trkpt>
      <trkpt lat="44.04601" lon="6.23235">
        <ele>1353.67</ele>
        <time>2017-12-23T13:24:07Z</time>
      </trkpt>
      <trkpt lat="44.04601" lon="6.23234">
        <ele>1350.79</ele>
        <time>2017-12-23T13:24:19Z</time>
      </trkpt>
      <trkpt lat="44.04601" lon="6.23233">
        <ele>1350.31</ele>
        <time>2017-12-23T13:24:20Z</time>
      </trkpt>
      <trkpt lat="44.04611" lon="6.23223">
        <ele>1346.46</ele>
        <time>2017-12-23T13:24:35Z</time>
      </trkpt>
      <trkpt lat="44.04616" lon="6.23227">
        <ele>1343.1</ele>
        <time>2017-12-23T13:24:47Z</time>
      </trkpt>
      <trkpt lat="44.04622" lon="6.23228">
        <ele>1339.73</ele>
        <time>2017-12-23T13:25:06Z</time>
      </trkpt>
      <trkpt lat="44.04623" lon="6.23231">
        <ele>1335.41</ele>
        <time>2017-12-23T13:25:20Z</time>
      </trkpt>
      <trkpt lat="44.04628" lon="6.23218">
        <ele>1334.45</ele>
        <time>2017-12-23T13:25:42Z</time>
      </trkpt>
      <trkpt lat="44.04628" lon="6.23216">
        <ele>1333.49</ele>
        <time>2017-12-23T13:25:44Z</time>
      </trkpt>
      <trkpt lat="44.04639" lon="6.23201">
        <ele>1331.08</ele>
        <time>2017-12-23T13:25:58Z</time>
      </trkpt>
      <trkpt lat="44.04653" lon="6.232">
        <ele>1333.01</ele>
        <time>2017-12-23T13:26:17Z</time>
      </trkpt>
      <trkpt lat="44.04664" lon="6.23212">
        <ele>1331.56</ele>
        <time>2017-12-23T13:26:26Z</time>
      </trkpt>
      <trkpt lat="44.04677" lon="6.23213">
        <ele>1331.08</ele>
        <time>2017-12-23T13:26:38Z</time>
      </trkpt>
      <trkpt lat="44.04678" lon="6.23211">
        <ele>1330.6</ele>
        <time>2017-12-23T13:26:40Z</time>
      </trkpt>
      <trkpt lat="44.04683" lon="6.2321">
        <ele>1326.76</ele>
        <time>2017-12-23T13:26:56Z</time>
      </trkpt>
      <trkpt lat="44.04683" lon="6.23209">
        <ele>1325.31</ele>
        <time>2017-12-23T13:27:02Z</time>
      </trkpt>
      <trkpt lat="44.04705" lon="6.23222">
        <ele>1321.95</ele>
        <time>2017-12-23T13:27:18Z</time>
      </trkpt>
      <trkpt lat="44.04721" lon="6.23197">
        <ele>1318.1</ele>
        <time>2017-12-23T13:27:42Z</time>
      </trkpt>
      <trkpt lat="44.04723" lon="6.23186">
        <ele>1314.26</ele>
        <time>2017-12-23T13:28:03Z</time>
      </trkpt>
      <trkpt lat="44.04728" lon="6.23184">
        <ele>1310.9</ele>
        <time>2017-12-23T13:28:18Z</time>
      </trkpt>
      <trkpt lat="44.04729" lon="6.23189">
        <ele>1307.53</ele>
        <time>2017-12-23T13:28:36Z</time>
      </trkpt>
      <trkpt lat="44.04729" lon="6.23189">
        <ele>1307.53</ele>
        <time>2017-12-23T13:28:37Z</time>
      </trkpt>
      <trkpt lat="44.04736" lon="6.23198">
        <ele>1305.61</ele>
        <time>2017-12-23T13:28:46Z</time>
      </trkpt>
      <trkpt lat="44.04737" lon="6.232">
        <ele>1307.05</ele>
        <time>2017-12-23T13:28:48Z</time>
      </trkpt>
      <trkpt lat="44.04737" lon="6.23202">
        <ele>1305.61</ele>
        <time>2017-12-23T13:28:50Z</time>
      </trkpt>
      <trkpt lat="44.04751" lon="6.23221">
        <ele>1302.72</ele>
        <time>2017-12-23T13:29:15Z</time>
      </trkpt>
      <trkpt lat="44.0475" lon="6.23212">
        <ele>1299.36</ele>
        <time>2017-12-23T13:29:39Z</time>
      </trkpt>
      <trkpt lat="44.0475" lon="6.2321">
        <ele>1299.36</ele>
        <time>2017-12-23T13:29:40Z</time>
      </trkpt>
      <trkpt lat="44.04752" lon="6.23189">
        <ele>1295.51</ele>
        <time>2017-12-23T13:30:01Z</time>
      </trkpt>
      <trkpt lat="44.04754" lon="6.23173">
        <ele>1292.15</ele>
        <time>2017-12-23T13:30:14Z</time>
      </trkpt>
      <trkpt lat="44.0475" lon="6.23158">
        <ele>1290.71</ele>
        <time>2017-12-23T13:30:39Z</time>
      </trkpt>
      <trkpt lat="44.04747" lon="6.23145">
        <ele>1287.34</ele>
        <time>2017-12-23T13:30:58Z</time>
      </trkpt>
      <trkpt lat="44.04745" lon="6.23143">
        <ele>1286.86</ele>
        <time>2017-12-23T13:31:00Z</time>
      </trkpt>
      <trkpt lat="44.04744" lon="6.23133">
        <ele>1283.5</ele>
        <time>2017-12-23T13:31:20Z</time>
      </trkpt>
      <trkpt lat="44.04744" lon="6.23136">
        <ele>1280.13</ele>
        <time>2017-12-23T13:31:33Z</time>
      </trkpt>
      <trkpt lat="44.04744" lon="6.23136">
        <ele>1280.13</ele>
        <time>2017-12-23T13:31:34Z</time>
      </trkpt>
      <trkpt lat="44.04756" lon="6.23145">
        <ele>1275.81</ele>
        <time>2017-12-23T13:31:50Z</time>
      </trkpt>
      <trkpt lat="44.04756" lon="6.23146">
        <ele>1279.65</ele>
        <time>2017-12-23T13:31:51Z</time>
      </trkpt>
      <trkpt lat="44.0476" lon="6.23149">
        <ele>1276.29</ele>
        <time>2017-12-23T13:31:58Z</time>
      </trkpt>
      <trkpt lat="44.04772" lon="6.23152">
        <ele>1273.88</ele>
        <time>2017-12-23T13:32:09Z</time>
      </trkpt>
      <trkpt lat="44.04777" lon="6.2315">
        <ele>1270.52</ele>
        <time>2017-12-23T13:32:23Z</time>
      </trkpt>
      <trkpt lat="44.04775" lon="6.23144">
        <ele>1269.08</ele>
        <time>2017-12-23T13:32:34Z</time>
      </trkpt>
      <trkpt lat="44.04771" lon="6.23144">
        <ele>1265.71</ele>
        <time>2017-12-23T13:32:44Z</time>
      </trkpt>
      <trkpt lat="44.04772" lon="6.23128">
        <ele>1264.75</ele>
        <time>2017-12-23T13:33:07Z</time>
      </trkpt>
      <trkpt lat="44.0477" lon="6.23118">
        <ele>1261.39</ele>
        <time>2017-12-23T13:33:20Z</time>
      </trkpt>
      <trkpt lat="44.04773" lon="6.23126">
        <ele>1259.46</ele>
        <time>2017-12-23T13:33:42Z</time>
      </trkpt>
      <trkpt lat="44.0478" lon="6.23125">
        <ele>1257.06</ele>
        <time>2017-12-23T13:33:56Z</time>
      </trkpt>
      <trkpt lat="44.04781" lon="6.23122">
        <ele>1255.62</ele>
        <time>2017-12-23T13:34:07Z</time>
      </trkpt>
      <trkpt lat="44.04781" lon="6.2312">
        <ele>1252.25</ele>
        <time>2017-12-23T13:34:18Z</time>
      </trkpt>
      <trkpt lat="44.04792" lon="6.23119">
        <ele>1248.41</ele>
        <time>2017-12-23T13:34:34Z</time>
      </trkpt>
      <trkpt lat="44.04792" lon="6.2311">
        <ele>1246.97</ele>
        <time>2017-12-23T13:34:42Z</time>
      </trkpt>
      <trkpt lat="44.0479" lon="6.23105">
        <ele>1244.08</ele>
        <time>2017-12-23T13:34:48Z</time>
      </trkpt>
      <trkpt lat="44.04787" lon="6.23098">
        <ele>1240.24</ele>
        <time>2017-12-23T13:35:04Z</time>
      </trkpt>
      <trkpt lat="44.04781" lon="6.23103">
        <ele>1237.35</ele>
        <time>2017-12-23T13:35:15Z</time>
      </trkpt>
      <trkpt lat="44.0478" lon="6.23104">
        <ele>1236.39</ele>
        <time>2017-12-23T13:35:17Z</time>
      </trkpt>
      <trkpt lat="44.0479" lon="6.23109">
        <ele>1233.03</ele>
        <time>2017-12-23T13:35:29Z</time>
      </trkpt>
      <trkpt lat="44.04791" lon="6.2311">
        <ele>1233.03</ele>
        <time>2017-12-23T13:35:30Z</time>
      </trkpt>
      <trkpt lat="44.04802" lon="6.23101">
        <ele>1230.62</ele>
        <time>2017-12-23T13:35:39Z</time>
      </trkpt>
      <trkpt lat="44.04804" lon="6.23088">
        <ele>1226.78</ele>
        <time>2017-12-23T13:35:49Z</time>
      </trkpt>
      <trkpt lat="44.04803" lon="6.23087">
        <ele>1225.34</ele>
        <time>2017-12-23T13:35:55Z</time>
      </trkpt>
      <trkpt lat="44.04808" lon="6.23086">
        <ele>1222.45</ele>
        <time>2017-12-23T13:36:09Z</time>
      </trkpt>
      <trkpt lat="44.04814" lon="6.23083">
        <ele>1219.09</ele>
        <time>2017-12-23T13:36:21Z</time>
      </trkpt>
      <trkpt lat="44.04818" lon="6.23088">
        <ele>1215.24</ele>
        <time>2017-12-23T13:36:32Z</time>
      </trkpt>
      <trkpt lat="44.04812" lon="6.2308">
        <ele>1211.88</ele>
        <time>2017-12-23T13:36:45Z</time>
      </trkpt>
      <trkpt lat="44.04809" lon="6.23068">
        <ele>1209</ele>
        <time>2017-12-23T13:36:55Z</time>
      </trkpt>
      <trkpt lat="44.04815" lon="6.23062">
        <ele>1206.59</ele>
        <time>2017-12-23T13:37:02Z</time>
      </trkpt>
      <trkpt lat="44.0482" lon="6.23055">
        <ele>1203.71</ele>
        <time>2017-12-23T13:37:10Z</time>
      </trkpt>
      <trkpt lat="44.0482" lon="6.23051">
        <ele>1202.27</ele>
        <time>2017-12-23T13:37:15Z</time>
      </trkpt>
      <trkpt lat="44.04819" lon="6.23048">
        <ele>1200.34</ele>
        <time>2017-12-23T13:37:19Z</time>
      </trkpt>
      <trkpt lat="44.0482" lon="6.23036">
        <ele>1196.98</ele>
        <time>2017-12-23T13:37:31Z</time>
      </trkpt>
      <trkpt lat="44.04819" lon="6.23029">
        <ele>1195.06</ele>
        <time>2017-12-23T13:37:38Z</time>
      </trkpt>
      <trkpt lat="44.04822" lon="6.2302">
        <ele>1192.17</ele>
        <time>2017-12-23T13:38:03Z</time>
      </trkpt>
      <trkpt lat="44.04809" lon="6.2301">
        <ele>1190.25</ele>
        <time>2017-12-23T13:38:22Z</time>
      </trkpt>
      <trkpt lat="44.04795" lon="6.22999">
        <ele>1186.88</ele>
        <time>2017-12-23T13:38:31Z</time>
      </trkpt>
      <trkpt lat="44.04806" lon="6.23013">
        <ele>1183.52</ele>
        <time>2017-12-23T13:38:44Z</time>
      </trkpt>
      <trkpt lat="44.04818" lon="6.23024">
        <ele>1180.64</ele>
        <time>2017-12-23T13:38:54Z</time>
      </trkpt>
      <trkpt lat="44.04831" lon="6.2302">
        <ele>1177.27</ele>
        <time>2017-12-23T13:39:09Z</time>
      </trkpt>
      <trkpt lat="44.04832" lon="6.23021">
        <ele>1176.31</ele>
        <time>2017-12-23T13:39:11Z</time>
      </trkpt>
      <trkpt lat="44.0484" lon="6.2302">
        <ele>1173.43</ele>
        <time>2017-12-23T13:39:22Z</time>
      </trkpt>
      <trkpt lat="44.04847" lon="6.23021">
        <ele>1171.98</ele>
        <time>2017-12-23T13:39:31Z</time>
      </trkpt>
      <trkpt lat="44.04856" lon="6.23022">
        <ele>1168.62</ele>
        <time>2017-12-23T13:39:42Z</time>
      </trkpt>
      <trkpt lat="44.04856" lon="6.23021">
        <ele>1167.66</ele>
        <time>2017-12-23T13:39:44Z</time>
      </trkpt>
      <trkpt lat="44.04866" lon="6.23011">
        <ele>1164.77</ele>
        <time>2017-12-23T13:39:56Z</time>
      </trkpt>
      <trkpt lat="44.0487" lon="6.23008">
        <ele>1163.81</ele>
        <time>2017-12-23T13:40:03Z</time>
      </trkpt>
      <trkpt lat="44.04871" lon="6.23001">
        <ele>1160.93</ele>
        <time>2017-12-23T13:40:14Z</time>
      </trkpt>
      <trkpt lat="44.04869" lon="6.22999">
        <ele>1158.53</ele>
        <time>2017-12-23T13:40:20Z</time>
      </trkpt>
      <trkpt lat="44.04869" lon="6.22996">
        <ele>1156.6</ele>
        <time>2017-12-23T13:40:26Z</time>
      </trkpt>
      <trkpt lat="44.04865" lon="6.22987">
        <ele>1153.24</ele>
        <time>2017-12-23T13:40:37Z</time>
      </trkpt>
      <trkpt lat="44.0486" lon="6.22975">
        <ele>1149.39</ele>
        <time>2017-12-23T13:40:55Z</time>
      </trkpt>
      <trkpt lat="44.04855" lon="6.22964">
        <ele>1146.03</ele>
        <time>2017-12-23T13:41:10Z</time>
      </trkpt>
      <trkpt lat="44.04851" lon="6.22946">
        <ele>1142.18</ele>
        <time>2017-12-23T13:41:24Z</time>
      </trkpt>
      <trkpt lat="44.04853" lon="6.2293">
        <ele>1140.26</ele>
        <time>2017-12-23T13:41:40Z</time>
      </trkpt>
      <trkpt lat="44.04852" lon="6.22919">
        <ele>1136.9</ele>
        <time>2017-12-23T13:42:03Z</time>
      </trkpt>
      <trkpt lat="44.04851" lon="6.22917">
        <ele>1135.94</ele>
        <time>2017-12-23T13:42:05Z</time>
      </trkpt>
      <trkpt lat="44.04849" lon="6.22911">
        <ele>1134.49</ele>
        <time>2017-12-23T13:42:10Z</time>
      </trkpt>
      <trkpt lat="44.04844" lon="6.22896">
        <ele>1131.61</ele>
        <time>2017-12-23T13:42:26Z</time>
      </trkpt>
      <trkpt lat="44.04833" lon="6.22863">
        <ele>1128.24</ele>
        <time>2017-12-23T13:42:43Z</time>
      </trkpt>
      <trkpt lat="44.04832" lon="6.22852">
        <ele>1124.88</ele>
        <time>2017-12-23T13:43:00Z</time>
      </trkpt>
      <trkpt lat="44.04829" lon="6.22848">
        <ele>1125.36</ele>
        <time>2017-12-23T13:43:10Z</time>
      </trkpt>
      <trkpt lat="44.04828" lon="6.22851">
        <ele>1122</ele>
        <time>2017-12-23T13:43:21Z</time>
      </trkpt>
      <trkpt lat="44.04828" lon="6.22852">
        <ele>1122</ele>
        <time>2017-12-23T13:43:22Z</time>
      </trkpt>
      <trkpt lat="44.04817" lon="6.22829">
        <ele>1118.63</ele>
        <time>2017-12-23T13:43:32Z</time>
      </trkpt>
      <trkpt lat="44.04806" lon="6.2282">
        <ele>1115.75</ele>
        <time>2017-12-23T13:43:53Z</time>
      </trkpt>
      <trkpt lat="44.04794" lon="6.22811">
        <ele>1114.79</ele>
        <time>2017-12-23T13:44:14Z</time>
      </trkpt>
      <trkpt lat="44.04779" lon="6.228">
        <ele>1113.82</ele>
        <time>2017-12-23T13:44:34Z</time>
      </trkpt>
      <trkpt lat="44.04775" lon="6.22801">
        <ele>1113.82</ele>
        <time>2017-12-23T13:44:52Z</time>
      </trkpt>
      <trkpt lat="44.04775" lon="6.22803">
        <ele>1113.82</ele>
        <time>2017-12-23T13:45:09Z</time>
      </trkpt>
      <trkpt lat="44.04781" lon="6.22799">
        <ele>1113.82</ele>
        <time>2017-12-23T13:45:30Z</time>
      </trkpt>
      <trkpt lat="44.04781" lon="6.22787">
        <ele>1113.82</ele>
        <time>2017-12-23T13:45:49Z</time>
      </trkpt>
      <trkpt lat="44.0478" lon="6.2278">
        <ele>1113.34</ele>
        <time>2017-12-23T13:46:05Z</time>
      </trkpt>
      <trkpt lat="44.04774" lon="6.22775">
        <ele>1113.82</ele>
        <time>2017-12-23T13:46:28Z</time>
      </trkpt>
      <trkpt lat="44.04776" lon="6.22775">
        <ele>1113.82</ele>
        <time>2017-12-23T13:46:47Z</time>
      </trkpt>
      <trkpt lat="44.04774" lon="6.22775">
        <ele>1114.31</ele>
        <time>2017-12-23T13:47:05Z</time>
      </trkpt>
      <trkpt lat="44.04773" lon="6.22781">
        <ele>1116.71</ele>
        <time>2017-12-23T13:47:15Z</time>
      </trkpt>
      <trkpt lat="44.04766" lon="6.22792">
        <ele>1120.07</ele>
        <time>2017-12-23T13:47:25Z</time>
      </trkpt>
      <trkpt lat="44.04765" lon="6.22793">
        <ele>1116.71</ele>
        <time>2017-12-23T13:47:26Z</time>
      </trkpt>
      <trkpt lat="44.04764" lon="6.22796">
        <ele>1120.07</ele>
        <time>2017-12-23T13:47:33Z</time>
      </trkpt>
      <trkpt lat="44.04764" lon="6.22798">
        <ele>1120.07</ele>
        <time>2017-12-23T13:47:37Z</time>
      </trkpt>
      <trkpt lat="44.04758" lon="6.22801">
        <ele>1119.11</ele>
        <time>2017-12-23T13:47:44Z</time>
      </trkpt>
      <trkpt lat="44.04756" lon="6.22802">
        <ele>1122.48</ele>
        <time>2017-12-23T13:47:45Z</time>
      </trkpt>
      <trkpt lat="44.04752" lon="6.22804">
        <ele>1120.55</ele>
        <time>2017-12-23T13:47:58Z</time>
      </trkpt>
      <trkpt lat="44.04745" lon="6.22794">
        <ele>1117.19</ele>
        <time>2017-12-23T13:48:10Z</time>
      </trkpt>
      <trkpt lat="44.04724" lon="6.22784">
        <ele>1114.79</ele>
        <time>2017-12-23T13:48:33Z</time>
      </trkpt>
      <trkpt lat="44.04719" lon="6.22783">
        <ele>1114.79</ele>
        <time>2017-12-23T13:48:38Z</time>
      </trkpt>
      <trkpt lat="44.04708" lon="6.22782">
        <ele>1111.42</ele>
        <time>2017-12-23T13:48:49Z</time>
      </trkpt>
      <trkpt lat="44.047" lon="6.22782">
        <ele>1115.27</ele>
        <time>2017-12-23T13:48:55Z</time>
      </trkpt>
      <trkpt lat="44.04695" lon="6.22779">
        <ele>1112.38</ele>
        <time>2017-12-23T13:49:01Z</time>
      </trkpt>
      <trkpt lat="44.04694" lon="6.22779">
        <ele>1112.38</ele>
        <time>2017-12-23T13:49:02Z</time>
      </trkpt>
      <trkpt lat="44.04693" lon="6.2278">
        <ele>1113.82</ele>
        <time>2017-12-23T13:49:05Z</time>
      </trkpt>
      <trkpt lat="44.04686" lon="6.22778">
        <ele>1111.42</ele>
        <time>2017-12-23T13:49:13Z</time>
      </trkpt>
      <trkpt lat="44.04679" lon="6.22775">
        <ele>1111.42</ele>
        <time>2017-12-23T13:49:20Z</time>
      </trkpt>
      <trkpt lat="44.04674" lon="6.22767">
        <ele>1108.54</ele>
        <time>2017-12-23T13:49:41Z</time>
      </trkpt>
      <trkpt lat="44.04668" lon="6.22752">
        <ele>1107.1</ele>
        <time>2017-12-23T13:49:59Z</time>
      </trkpt>
      <trkpt lat="44.04666" lon="6.2275">
        <ele>1108.54</ele>
        <time>2017-12-23T13:50:02Z</time>
      </trkpt>
      <trkpt lat="44.04661" lon="6.22747">
        <ele>1109.5</ele>
        <time>2017-12-23T13:50:12Z</time>
      </trkpt>
      <trkpt lat="44.0466" lon="6.22744">
        <ele>1107.58</ele>
        <time>2017-12-23T13:50:14Z</time>
      </trkpt>
      <trkpt lat="44.04656" lon="6.22738">
        <ele>1109.98</ele>
        <time>2017-12-23T13:50:20Z</time>
      </trkpt>
      <trkpt lat="44.04644" lon="6.22735">
        <ele>1108.54</ele>
        <time>2017-12-23T13:50:40Z</time>
      </trkpt>
      <trkpt lat="44.04639" lon="6.22737">
        <ele>1108.06</ele>
        <time>2017-12-23T13:50:46Z</time>
      </trkpt>
      <trkpt lat="44.04637" lon="6.22737">
        <ele>1109.98</ele>
        <time>2017-12-23T13:50:48Z</time>
      </trkpt>
      <trkpt lat="44.04616" lon="6.22721">
        <ele>1113.34</ele>
        <time>2017-12-23T13:51:07Z</time>
      </trkpt>
      <trkpt lat="44.04609" lon="6.22727">
        <ele>1114.31</ele>
        <time>2017-12-23T13:51:17Z</time>
      </trkpt>
      <trkpt lat="44.04607" lon="6.22729">
        <ele>1112.86</ele>
        <time>2017-12-23T13:51:19Z</time>
      </trkpt>
      <trkpt lat="44.04605" lon="6.22731">
        <ele>1114.79</ele>
        <time>2017-12-23T13:51:22Z</time>
      </trkpt>
      <trkpt lat="44.04592" lon="6.22727">
        <ele>1115.75</ele>
        <time>2017-12-23T13:51:36Z</time>
      </trkpt>
      <trkpt lat="44.04584" lon="6.22724">
        <ele>1115.75</ele>
        <time>2017-12-23T13:51:44Z</time>
      </trkpt>
      <trkpt lat="44.04575" lon="6.22717">
        <ele>1117.67</ele>
        <time>2017-12-23T13:51:53Z</time>
      </trkpt>
      <trkpt lat="44.04573" lon="6.22715">
        <ele>1118.63</ele>
        <time>2017-12-23T13:51:57Z</time>
      </trkpt>
      <trkpt lat="44.04563" lon="6.22712">
        <ele>1121.03</ele>
        <time>2017-12-23T13:52:09Z</time>
      </trkpt>
      <trkpt lat="44.04551" lon="6.22706">
        <ele>1122.96</ele>
        <time>2017-12-23T13:52:25Z</time>
      </trkpt>
      <trkpt lat="44.04544" lon="6.22698">
        <ele>1126.32</ele>
        <time>2017-12-23T13:52:37Z</time>
      </trkpt>
      <trkpt lat="44.04542" lon="6.22688">
        <ele>1127.76</ele>
        <time>2017-12-23T13:52:46Z</time>
      </trkpt>
      <trkpt lat="44.04523" lon="6.22671">
        <ele>1128.24</ele>
        <time>2017-12-23T13:53:07Z</time>
      </trkpt>
      <trkpt lat="44.04508" lon="6.22666">
        <ele>1129.21</ele>
        <time>2017-12-23T13:53:29Z</time>
      </trkpt>
      <trkpt lat="44.04494" lon="6.22641">
        <ele>1126.8</ele>
        <time>2017-12-23T13:53:47Z</time>
      </trkpt>
      <trkpt lat="44.0449" lon="6.22641">
        <ele>1128.24</ele>
        <time>2017-12-23T13:53:51Z</time>
      </trkpt>
      <trkpt lat="44.04486" lon="6.22641">
        <ele>1126.8</ele>
        <time>2017-12-23T13:53:54Z</time>
      </trkpt>
      <trkpt lat="44.04483" lon="6.22641">
        <ele>1125.36</ele>
        <time>2017-12-23T13:53:57Z</time>
      </trkpt>
      <trkpt lat="44.04473" lon="6.22637">
        <ele>1124.88</ele>
        <time>2017-12-23T13:54:03Z</time>
      </trkpt>
      <trkpt lat="44.04462" lon="6.22637">
        <ele>1125.84</ele>
        <time>2017-12-23T13:54:09Z</time>
      </trkpt>
      <trkpt lat="44.04447" lon="6.22633">
        <ele>1122.48</ele>
        <time>2017-12-23T13:54:23Z</time>
      </trkpt>
      <trkpt lat="44.04446" lon="6.22626">
        <ele>1121.52</ele>
        <time>2017-12-23T13:54:28Z</time>
      </trkpt>
      <trkpt lat="44.04445" lon="6.22618">
        <ele>1118.63</ele>
        <time>2017-12-23T13:54:33Z</time>
      </trkpt>
      <trkpt lat="44.04441" lon="6.22608">
        <ele>1115.27</ele>
        <time>2017-12-23T13:54:43Z</time>
      </trkpt>
      <trkpt lat="44.04441" lon="6.22607">
        <ele>1115.27</ele>
        <time>2017-12-23T13:54:44Z</time>
      </trkpt>
      <trkpt lat="44.04434" lon="6.22602">
        <ele>1111.9</ele>
        <time>2017-12-23T13:54:55Z</time>
      </trkpt>
      <trkpt lat="44.04422" lon="6.22604">
        <ele>1108.54</ele>
        <time>2017-12-23T13:55:09Z</time>
      </trkpt>
      <trkpt lat="44.0441" lon="6.22605">
        <ele>1106.13</ele>
        <time>2017-12-23T13:55:19Z</time>
      </trkpt>
      <trkpt lat="44.04392" lon="6.22606">
        <ele>1102.77</ele>
        <time>2017-12-23T13:55:34Z</time>
      </trkpt>
      <trkpt lat="44.0437" lon="6.22603">
        <ele>1099.89</ele>
        <time>2017-12-23T13:55:56Z</time>
      </trkpt>
      <trkpt lat="44.0436" lon="6.22593">
        <ele>1096.52</ele>
        <time>2017-12-23T13:56:09Z</time>
      </trkpt>
      <trkpt lat="44.0436" lon="6.22575">
        <ele>1093.16</ele>
        <time>2017-12-23T13:56:25Z</time>
      </trkpt>
      <trkpt lat="44.04349" lon="6.22565">
        <ele>1089.79</ele>
        <time>2017-12-23T13:56:39Z</time>
      </trkpt>
      <trkpt lat="44.0433" lon="6.22572">
        <ele>1086.43</ele>
        <time>2017-12-23T13:56:59Z</time>
      </trkpt>
      <trkpt lat="44.04329" lon="6.22572">
        <ele>1086.43</ele>
        <time>2017-12-23T13:57:00Z</time>
      </trkpt>
      <trkpt lat="44.04315" lon="6.22563">
        <ele>1083.54</ele>
        <time>2017-12-23T13:57:23Z</time>
      </trkpt>
      <trkpt lat="44.04301" lon="6.22556">
        <ele>1082.58</ele>
        <time>2017-12-23T13:57:37Z</time>
      </trkpt>
      <trkpt lat="44.04295" lon="6.22562">
        <ele>1083.06</ele>
        <time>2017-12-23T13:57:43Z</time>
      </trkpt>
      <trkpt lat="44.04291" lon="6.22564">
        <ele>1081.14</ele>
        <time>2017-12-23T13:57:46Z</time>
      </trkpt>
      <trkpt lat="44.04275" lon="6.22576">
        <ele>1077.78</ele>
        <time>2017-12-23T13:58:01Z</time>
      </trkpt>
      <trkpt lat="44.04274" lon="6.22584">
        <ele>1079.22</ele>
        <time>2017-12-23T13:58:07Z</time>
      </trkpt>
      <trkpt lat="44.04269" lon="6.22594">
        <ele>1076.33</ele>
        <time>2017-12-23T13:58:14Z</time>
      </trkpt>
      <trkpt lat="44.04264" lon="6.22597">
        <ele>1075.85</ele>
        <time>2017-12-23T13:58:19Z</time>
      </trkpt>
      <trkpt lat="44.04262" lon="6.22599">
        <ele>1077.29</ele>
        <time>2017-12-23T13:58:22Z</time>
      </trkpt>
      <trkpt lat="44.0425" lon="6.22611">
        <ele>1081.14</ele>
        <time>2017-12-23T13:58:35Z</time>
      </trkpt>
      <trkpt lat="44.04244" lon="6.22617">
        <ele>1078.74</ele>
        <time>2017-12-23T13:58:42Z</time>
      </trkpt>
      <trkpt lat="44.04232" lon="6.22635">
        <ele>1076.81</ele>
        <time>2017-12-23T13:59:01Z</time>
      </trkpt>
      <trkpt lat="44.04227" lon="6.22644">
        <ele>1079.22</ele>
        <time>2017-12-23T13:59:07Z</time>
      </trkpt>
      <trkpt lat="44.04226" lon="6.22647">
        <ele>1077.78</ele>
        <time>2017-12-23T13:59:09Z</time>
      </trkpt>
      <trkpt lat="44.04225" lon="6.22652">
        <ele>1079.7</ele>
        <time>2017-12-23T13:59:13Z</time>
      </trkpt>
      <trkpt lat="44.04225" lon="6.22655">
        <ele>1078.26</ele>
        <time>2017-12-23T13:59:15Z</time>
      </trkpt>
      <trkpt lat="44.04213" lon="6.22666">
        <ele>1079.22</ele>
        <time>2017-12-23T13:59:28Z</time>
      </trkpt>
      <trkpt lat="44.04209" lon="6.22672">
        <ele>1076.81</ele>
        <time>2017-12-23T13:59:34Z</time>
      </trkpt>
      <trkpt lat="44.0419" lon="6.22677">
        <ele>1073.93</ele>
        <time>2017-12-23T13:59:51Z</time>
      </trkpt>
      <trkpt lat="44.04186" lon="6.22679">
        <ele>1075.37</ele>
        <time>2017-12-23T13:59:55Z</time>
      </trkpt>
      <trkpt lat="44.04176" lon="6.22675">
        <ele>1072.01</ele>
        <time>2017-12-23T14:00:05Z</time>
      </trkpt>
      <trkpt lat="44.04176" lon="6.22666">
        <ele>1068.64</ele>
        <time>2017-12-23T14:00:14Z</time>
      </trkpt>
      <trkpt lat="44.04177" lon="6.22644">
        <ele>1065.28</ele>
        <time>2017-12-23T14:00:28Z</time>
      </trkpt>
      <trkpt lat="44.04172" lon="6.2263">
        <ele>1061.91</ele>
        <time>2017-12-23T14:00:41Z</time>
      </trkpt>
      <trkpt lat="44.04174" lon="6.22609">
        <ele>1059.99</ele>
        <time>2017-12-23T14:01:02Z</time>
      </trkpt>
      <trkpt lat="44.04182" lon="6.22601">
        <ele>1059.51</ele>
        <time>2017-12-23T14:01:23Z</time>
      </trkpt>
      <trkpt lat="44.0418" lon="6.22586">
        <ele>1056.15</ele>
        <time>2017-12-23T14:01:39Z</time>
      </trkpt>
      <trkpt lat="44.0418" lon="6.22583">
        <ele>1055.18</ele>
        <time>2017-12-23T14:01:41Z</time>
      </trkpt>
      <trkpt lat="44.0419" lon="6.22571">
        <ele>1051.82</ele>
        <time>2017-12-23T14:01:57Z</time>
      </trkpt>
      <trkpt lat="44.04191" lon="6.2257">
        <ele>1051.82</ele>
        <time>2017-12-23T14:01:58Z</time>
      </trkpt>
      <trkpt lat="44.04194" lon="6.22553">
        <ele>1048.94</ele>
        <time>2017-12-23T14:02:12Z</time>
      </trkpt>
      <trkpt lat="44.04194" lon="6.22548">
        <ele>1047.01</ele>
        <time>2017-12-23T14:02:18Z</time>
      </trkpt>
      <trkpt lat="44.04209" lon="6.22532">
        <ele>1044.13</ele>
        <time>2017-12-23T14:02:35Z</time>
      </trkpt>
      <trkpt lat="44.04213" lon="6.22521">
        <ele>1040.76</ele>
        <time>2017-12-23T14:02:43Z</time>
      </trkpt>
      <trkpt lat="44.04213" lon="6.22519">
        <ele>1040.76</ele>
        <time>2017-12-23T14:02:44Z</time>
      </trkpt>
      <trkpt lat="44.04222" lon="6.22496">
        <ele>1036.92</ele>
        <time>2017-12-23T14:03:01Z</time>
      </trkpt>
      <trkpt lat="44.04236" lon="6.22474">
        <ele>1033.55</ele>
        <time>2017-12-23T14:03:21Z</time>
      </trkpt>
      <trkpt lat="44.04243" lon="6.22474">
        <ele>1033.07</ele>
        <time>2017-12-23T14:03:46Z</time>
      </trkpt>
      <trkpt lat="44.04241" lon="6.22471">
        <ele>1033.07</ele>
        <time>2017-12-23T14:04:11Z</time>
      </trkpt>
      <trkpt lat="44.04238" lon="6.22461">
        <ele>1032.59</ele>
        <time>2017-12-23T14:04:40Z</time>
      </trkpt>
      <trkpt lat="44.04238" lon="6.2246">
        <ele>1033.55</ele>
        <time>2017-12-23T14:04:42Z</time>
      </trkpt>
      <trkpt lat="44.04239" lon="6.2246">
        <ele>1032.59</ele>
        <time>2017-12-23T14:04:46Z</time>
      </trkpt>
      <trkpt lat="44.04244" lon="6.22468">
        <ele>1032.11</ele>
        <time>2017-12-23T14:05:17Z</time>
      </trkpt>
      <trkpt lat="44.04242" lon="6.22475">
        <ele>1032.11</ele>
        <time>2017-12-23T14:05:53Z</time>
      </trkpt>
      <trkpt lat="44.04236" lon="6.22466">
        <ele>1032.11</ele>
        <time>2017-12-23T14:06:21Z</time>
      </trkpt>
      <trkpt lat="44.04236" lon="6.22465">
        <ele>1030.67</ele>
        <time>2017-12-23T14:06:42Z</time>
      </trkpt>
      <trkpt lat="44.04237" lon="6.2246">
        <ele>1030.19</ele>
        <time>2017-12-23T14:06:48Z</time>
      </trkpt>
      <trkpt lat="44.04253" lon="6.22432">
        <ele>1027.31</ele>
        <time>2017-12-23T14:07:12Z</time>
      </trkpt>
      <trkpt lat="44.04266" lon="6.22412">
        <ele>1024.42</ele>
        <time>2017-12-23T14:07:26Z</time>
      </trkpt>
      <trkpt lat="44.04269" lon="6.22405">
        <ele>1025.38</ele>
        <time>2017-12-23T14:07:31Z</time>
      </trkpt>
      <trkpt lat="44.04271" lon="6.22402">
        <ele>1023.94</ele>
        <time>2017-12-23T14:07:33Z</time>
      </trkpt>
      <trkpt lat="44.04282" lon="6.22376">
        <ele>1021.06</ele>
        <time>2017-12-23T14:07:55Z</time>
      </trkpt>
      <trkpt lat="44.04285" lon="6.22368">
        <ele>1017.21</ele>
        <time>2017-12-23T14:08:04Z</time>
      </trkpt>
      <trkpt lat="44.04286" lon="6.22366">
        <ele>1017.69</ele>
        <time>2017-12-23T14:08:08Z</time>
      </trkpt>
      <trkpt lat="44.04291" lon="6.22356">
        <ele>1014.33</ele>
        <time>2017-12-23T14:08:23Z</time>
      </trkpt>
      <trkpt lat="44.04297" lon="6.22349">
        <ele>1010.96</ele>
        <time>2017-12-23T14:08:34Z</time>
      </trkpt>
      <trkpt lat="44.04304" lon="6.2234">
        <ele>1007.6</ele>
        <time>2017-12-23T14:08:44Z</time>
      </trkpt>
      <trkpt lat="44.04299" lon="6.22332">
        <ele>1005.68</ele>
        <time>2017-12-23T14:08:50Z</time>
      </trkpt>
      <trkpt lat="44.04283" lon="6.22326">
        <ele>1002.31</ele>
        <time>2017-12-23T14:09:06Z</time>
      </trkpt>
      <trkpt lat="44.04279" lon="6.22327">
        <ele>1001.83</ele>
        <time>2017-12-23T14:09:11Z</time>
      </trkpt>
      <trkpt lat="44.04274" lon="6.22333">
        <ele>1001.83</ele>
        <time>2017-12-23T14:09:16Z</time>
      </trkpt>
      <trkpt lat="44.04268" lon="6.22336">
        <ele>1000.87</ele>
        <time>2017-12-23T14:09:25Z</time>
      </trkpt>
      <trkpt lat="44.0426" lon="6.22329">
        <ele>997.51</ele>
        <time>2017-12-23T14:09:36Z</time>
      </trkpt>
      <trkpt lat="44.04253" lon="6.22322">
        <ele>994.14</ele>
        <time>2017-12-23T14:09:46Z</time>
      </trkpt>
      <trkpt lat="44.04247" lon="6.22308">
        <ele>990.78</ele>
        <time>2017-12-23T14:09:57Z</time>
      </trkpt>
      <trkpt lat="44.04246" lon="6.22306">
        <ele>990.78</ele>
        <time>2017-12-23T14:09:58Z</time>
      </trkpt>
      <trkpt lat="44.04242" lon="6.22294">
        <ele>987.89</ele>
        <time>2017-12-23T14:10:10Z</time>
      </trkpt>
      <trkpt lat="44.04236" lon="6.22275">
        <ele>984.53</ele>
        <time>2017-12-23T14:10:23Z</time>
      </trkpt>
      <trkpt lat="44.04232" lon="6.22255">
        <ele>981.16</ele>
        <time>2017-12-23T14:10:37Z</time>
      </trkpt>
      <trkpt lat="44.04232" lon="6.22253">
        <ele>981.16</ele>
        <time>2017-12-23T14:10:38Z</time>
      </trkpt>
      <trkpt lat="44.0423" lon="6.22227">
        <ele>981.64</ele>
        <time>2017-12-23T14:11:02Z</time>
      </trkpt>
      <trkpt lat="44.04228" lon="6.2222">
        <ele>980.2</ele>
        <time>2017-12-23T14:11:07Z</time>
      </trkpt>
      <trkpt lat="44.04224" lon="6.22188">
        <ele>976.84</ele>
        <time>2017-12-23T14:11:28Z</time>
      </trkpt>
      <trkpt lat="44.04225" lon="6.22174">
        <ele>972.99</ele>
        <time>2017-12-23T14:11:42Z</time>
      </trkpt>
      <trkpt lat="44.04226" lon="6.22164">
        <ele>971.07</ele>
        <time>2017-12-23T14:11:52Z</time>
      </trkpt>
      <trkpt lat="44.04229" lon="6.22151">
        <ele>969.63</ele>
        <time>2017-12-23T14:12:15Z</time>
      </trkpt>
      <trkpt lat="44.04231" lon="6.22148">
        <ele>969.63</ele>
        <time>2017-12-23T14:12:22Z</time>
      </trkpt>
      <trkpt lat="44.04235" lon="6.22147">
        <ele>967.7</ele>
        <time>2017-12-23T14:12:43Z</time>
      </trkpt>
      <trkpt lat="44.0424" lon="6.22155">
        <ele>967.7</ele>
        <time>2017-12-23T14:13:11Z</time>
      </trkpt>
      <trkpt lat="44.04244" lon="6.22162">
        <ele>966.74</ele>
        <time>2017-12-23T14:13:38Z</time>
      </trkpt>
      <trkpt lat="44.04246" lon="6.22162">
        <ele>965.78</ele>
        <time>2017-12-23T14:13:46Z</time>
      </trkpt>
      <trkpt lat="44.0426" lon="6.22163">
        <ele>966.26</ele>
        <time>2017-12-23T14:13:53Z</time>
      </trkpt>
      <trkpt lat="44.04264" lon="6.22163">
        <ele>965.3</ele>
        <time>2017-12-23T14:13:55Z</time>
      </trkpt>
      <trkpt lat="44.04289" lon="6.22167">
        <ele>962.42</ele>
        <time>2017-12-23T14:14:17Z</time>
      </trkpt>
      <trkpt lat="44.04292" lon="6.22156">
        <ele>959.05</ele>
        <time>2017-12-23T14:14:29Z</time>
      </trkpt>
      <trkpt lat="44.04297" lon="6.22138">
        <ele>955.69</ele>
        <time>2017-12-23T14:14:51Z</time>
      </trkpt>
      <trkpt lat="44.04307" lon="6.22116">
        <ele>952.8</ele>
        <time>2017-12-23T14:15:06Z</time>
      </trkpt>
      <trkpt lat="44.04311" lon="6.22099">
        <ele>949.44</ele>
        <time>2017-12-23T14:15:26Z</time>
      </trkpt>
      <trkpt lat="44.04314" lon="6.22089">
        <ele>946.56</ele>
        <time>2017-12-23T14:15:40Z</time>
      </trkpt>
      <trkpt lat="44.04322" lon="6.22086">
        <ele>944.15</ele>
        <time>2017-12-23T14:15:46Z</time>
      </trkpt>
      <trkpt lat="44.04322" lon="6.22086">
        <ele>945.59</ele>
        <time>2017-12-23T14:15:48Z</time>
      </trkpt>
      <trkpt lat="44.04327" lon="6.22082">
        <ele>944.63</ele>
        <time>2017-12-23T14:15:55Z</time>
      </trkpt>
      <trkpt lat="44.04333" lon="6.22078">
        <ele>946.07</ele>
        <time>2017-12-23T14:15:58Z</time>
      </trkpt>
      <trkpt lat="44.04334" lon="6.22077">
        <ele>944.15</ele>
        <time>2017-12-23T14:16:00Z</time>
      </trkpt>
      <trkpt lat="44.04362" lon="6.22053">
        <ele>941.27</ele>
        <time>2017-12-23T14:16:24Z</time>
      </trkpt>
      <trkpt lat="44.0438" lon="6.22053">
        <ele>937.9</ele>
        <time>2017-12-23T14:16:41Z</time>
      </trkpt>
      <trkpt lat="44.04386" lon="6.22064">
        <ele>935.02</ele>
        <time>2017-12-23T14:17:00Z</time>
      </trkpt>
      <trkpt lat="44.04388" lon="6.22073">
        <ele>935.02</ele>
        <time>2017-12-23T14:17:09Z</time>
      </trkpt>
      <trkpt lat="44.04389" lon="6.22075">
        <ele>933.58</ele>
        <time>2017-12-23T14:17:11Z</time>
      </trkpt>
      <trkpt lat="44.04403" lon="6.22082">
        <ele>934.06</ele>
        <time>2017-12-23T14:17:21Z</time>
      </trkpt>
      <trkpt lat="44.04404" lon="6.22082">
        <ele>934.54</ele>
        <time>2017-12-23T14:17:29Z</time>
      </trkpt>
      <trkpt lat="44.04407" lon="6.22082">
        <ele>933.1</ele>
        <time>2017-12-23T14:17:35Z</time>
      </trkpt>
      <trkpt lat="44.04451" lon="6.22055">
        <ele>929.73</ele>
        <time>2017-12-23T14:17:52Z</time>
      </trkpt>
      <trkpt lat="44.04464" lon="6.22038">
        <ele>926.85</ele>
        <time>2017-12-23T14:18:05Z</time>
      </trkpt>
      <trkpt lat="44.0448" lon="6.22021">
        <ele>923.48</ele>
        <time>2017-12-23T14:18:23Z</time>
      </trkpt>
      <trkpt lat="44.04486" lon="6.22">
        <ele>922.04</ele>
        <time>2017-12-23T14:18:39Z</time>
      </trkpt>
      <trkpt lat="44.04494" lon="6.21987">
        <ele>922.04</ele>
        <time>2017-12-23T14:18:49Z</time>
      </trkpt>
      <trkpt lat="44.04498" lon="6.21982">
        <ele>921.56</ele>
        <time>2017-12-23T14:18:54Z</time>
      </trkpt>
      <trkpt lat="44.04506" lon="6.21973">
        <ele>921.08</ele>
        <time>2017-12-23T14:19:03Z</time>
      </trkpt>
      <trkpt lat="44.04508" lon="6.21969">
        <ele>922.04</ele>
        <time>2017-12-23T14:19:05Z</time>
      </trkpt>
      <trkpt lat="44.04517" lon="6.21946">
        <ele>919.16</ele>
        <time>2017-12-23T14:19:21Z</time>
      </trkpt>
      <trkpt lat="44.04523" lon="6.21933">
        <ele>916.75</ele>
        <time>2017-12-23T14:19:46Z</time>
      </trkpt>
      <trkpt lat="44.0453" lon="6.21922">
        <ele>913.39</ele>
        <time>2017-12-23T14:20:01Z</time>
      </trkpt>
      <trkpt lat="44.04535" lon="6.219">
        <ele>910.03</ele>
        <time>2017-12-23T14:20:23Z</time>
      </trkpt>
      <trkpt lat="44.04535" lon="6.21881">
        <ele>906.18</ele>
        <time>2017-12-23T14:20:37Z</time>
      </trkpt>
      <trkpt lat="44.0454" lon="6.21855">
        <ele>905.7</ele>
        <time>2017-12-23T14:20:51Z</time>
      </trkpt>
      <trkpt lat="44.0454" lon="6.21852">
        <ele>903.78</ele>
        <time>2017-12-23T14:20:53Z</time>
      </trkpt>
      <trkpt lat="44.0454" lon="6.21848">
        <ele>905.22</ele>
        <time>2017-12-23T14:20:55Z</time>
      </trkpt>
      <trkpt lat="44.0454" lon="6.21846">
        <ele>903.78</ele>
        <time>2017-12-23T14:20:57Z</time>
      </trkpt>
      <trkpt lat="44.04548" lon="6.21811">
        <ele>900.89</ele>
        <time>2017-12-23T14:21:21Z</time>
      </trkpt>
      <trkpt lat="44.04556" lon="6.21781">
        <ele>898.01</ele>
        <time>2017-12-23T14:21:40Z</time>
      </trkpt>
      <trkpt lat="44.04558" lon="6.21761">
        <ele>896.57</ele>
        <time>2017-12-23T14:21:55Z</time>
      </trkpt>
      <trkpt lat="44.04562" lon="6.21756">
        <ele>895.61</ele>
        <time>2017-12-23T14:22:19Z</time>
      </trkpt>
      <trkpt lat="44.04556" lon="6.21758">
        <ele>896.09</ele>
        <time>2017-12-23T14:22:41Z</time>
      </trkpt>
      <trkpt lat="44.04553" lon="6.21765">
        <ele>897.05</ele>
        <time>2017-12-23T14:23:06Z</time>
      </trkpt>
      <trkpt lat="44.04556" lon="6.21763">
        <ele>892.24</ele>
        <time>2017-12-23T14:23:20Z</time>
      </trkpt>
      <trkpt lat="44.04557" lon="6.21763">
        <ele>901.37</ele>
        <time>2017-12-23T14:23:21Z</time>
      </trkpt>
      <trkpt lat="44.04557" lon="6.21762">
        <ele>896.57</ele>
        <time>2017-12-23T14:23:22Z</time>
      </trkpt>
      <trkpt lat="44.04564" lon="6.21748">
        <ele>896.09</ele>
        <time>2017-12-23T14:23:35Z</time>
      </trkpt>
      <trkpt lat="44.04568" lon="6.21728">
        <ele>897.05</ele>
        <time>2017-12-23T14:23:46Z</time>
      </trkpt>
      <trkpt lat="44.04569" lon="6.21721">
        <ele>895.12</ele>
        <time>2017-12-23T14:23:51Z</time>
      </trkpt>
      <trkpt lat="44.04572" lon="6.21692">
        <ele>894.16</ele>
        <time>2017-12-23T14:24:10Z</time>
      </trkpt>
      <trkpt lat="44.04564" lon="6.21659">
        <ele>893.68</ele>
        <time>2017-12-23T14:24:32Z</time>
      </trkpt>
      <trkpt lat="44.04559" lon="6.21631">
        <ele>894.64</ele>
        <time>2017-12-23T14:24:52Z</time>
      </trkpt>
      <trkpt lat="44.04548" lon="6.21612">
        <ele>890.8</ele>
        <time>2017-12-23T14:25:12Z</time>
      </trkpt>
      <trkpt lat="44.04533" lon="6.21596">
        <ele>889.84</ele>
        <time>2017-12-23T14:25:26Z</time>
      </trkpt>
      <trkpt lat="44.04532" lon="6.21594">
        <ele>890.8</ele>
        <time>2017-12-23T14:25:28Z</time>
      </trkpt>
      <trkpt lat="44.04527" lon="6.21571">
        <ele>888.88</ele>
        <time>2017-12-23T14:25:43Z</time>
      </trkpt>
      <trkpt lat="44.04518" lon="6.21548">
        <ele>885.51</ele>
        <time>2017-12-23T14:26:03Z</time>
      </trkpt>
      <trkpt lat="44.04525" lon="6.21539">
        <ele>884.07</ele>
        <time>2017-12-23T14:26:22Z</time>
      </trkpt>
      <trkpt lat="44.04531" lon="6.21531">
        <ele>880.71</ele>
        <time>2017-12-23T14:26:33Z</time>
      </trkpt>
      <trkpt lat="44.04536" lon="6.21512">
        <ele>876.86</ele>
        <time>2017-12-23T14:26:52Z</time>
      </trkpt>
      <trkpt lat="44.04533" lon="6.21496">
        <ele>873.5</ele>
        <time>2017-12-23T14:27:05Z</time>
      </trkpt>
      <trkpt lat="44.04528" lon="6.21483">
        <ele>870.13</ele>
        <time>2017-12-23T14:27:19Z</time>
      </trkpt>
      <trkpt lat="44.04526" lon="6.21479">
        <ele>867.25</ele>
        <time>2017-12-23T14:27:31Z</time>
      </trkpt>
      <trkpt lat="44.04525" lon="6.21461">
        <ele>863.88</ele>
        <time>2017-12-23T14:27:48Z</time>
      </trkpt>
      <trkpt lat="44.04524" lon="6.21447">
        <ele>860.04</ele>
        <time>2017-12-23T14:28:05Z</time>
      </trkpt>
      <trkpt lat="44.04524" lon="6.21445">
        <ele>860.04</ele>
        <time>2017-12-23T14:28:06Z</time>
      </trkpt>
      <trkpt lat="44.0451" lon="6.21428">
        <ele>856.67</ele>
        <time>2017-12-23T14:28:28Z</time>
      </trkpt>
      <trkpt lat="44.04503" lon="6.21413">
        <ele>853.31</ele>
        <time>2017-12-23T14:28:39Z</time>
      </trkpt>
      <trkpt lat="44.04501" lon="6.21407">
        <ele>854.27</ele>
        <time>2017-12-23T14:28:43Z</time>
      </trkpt>
      <trkpt lat="44.04496" lon="6.21394">
        <ele>850.9</ele>
        <time>2017-12-23T14:28:52Z</time>
      </trkpt>
      <trkpt lat="44.04493" lon="6.21389">
        <ele>852.35</ele>
        <time>2017-12-23T14:28:55Z</time>
      </trkpt>
      <trkpt lat="44.04481" lon="6.21371">
        <ele>851.87</ele>
        <time>2017-12-23T14:29:10Z</time>
      </trkpt>
      <trkpt lat="44.0448" lon="6.21369">
        <ele>850.42</ele>
        <time>2017-12-23T14:29:12Z</time>
      </trkpt>
      <trkpt lat="44.04473" lon="6.21358">
        <ele>848.98</ele>
        <time>2017-12-23T14:29:21Z</time>
      </trkpt>
      <trkpt lat="44.0447" lon="6.21353">
        <ele>849.94</ele>
        <time>2017-12-23T14:29:25Z</time>
      </trkpt>
      <trkpt lat="44.04468" lon="6.2135">
        <ele>848.5</ele>
        <time>2017-12-23T14:29:28Z</time>
      </trkpt>
      <trkpt lat="44.04457" lon="6.21341">
        <ele>847.54</ele>
        <time>2017-12-23T14:29:40Z</time>
      </trkpt>
      <trkpt lat="44.04441" lon="6.21326">
        <ele>844.66</ele>
        <time>2017-12-23T14:30:05Z</time>
      </trkpt>
      <trkpt lat="44.04444" lon="6.21318">
        <ele>842.73</ele>
        <time>2017-12-23T14:30:12Z</time>
      </trkpt>
      <trkpt lat="44.04447" lon="6.21307">
        <ele>839.37</ele>
        <time>2017-12-23T14:30:27Z</time>
      </trkpt>
      <trkpt lat="44.04453" lon="6.21302">
        <ele>836.48</ele>
        <time>2017-12-23T14:30:41Z</time>
      </trkpt>
      <trkpt lat="44.04459" lon="6.21299">
        <ele>834.56</ele>
        <time>2017-12-23T14:30:48Z</time>
      </trkpt>
      <trkpt lat="44.04464" lon="6.21297">
        <ele>834.56</ele>
        <time>2017-12-23T14:30:54Z</time>
      </trkpt>
      <trkpt lat="44.04473" lon="6.21281">
        <ele>831.2</ele>
        <time>2017-12-23T14:31:06Z</time>
      </trkpt>
      <trkpt lat="44.0447" lon="6.21267">
        <ele>829.27</ele>
        <time>2017-12-23T14:31:25Z</time>
      </trkpt>
      <trkpt lat="44.04468" lon="6.21266">
        <ele>828.31</ele>
        <time>2017-12-23T14:31:27Z</time>
      </trkpt>
      <trkpt lat="44.04456" lon="6.2125">
        <ele>824.95</ele>
        <time>2017-12-23T14:31:48Z</time>
      </trkpt>
      <trkpt lat="44.04456" lon="6.21243">
        <ele>823.51</ele>
        <time>2017-12-23T14:31:52Z</time>
      </trkpt>
      <trkpt lat="44.04456" lon="6.21231">
        <ele>823.03</ele>
        <time>2017-12-23T14:32:00Z</time>
      </trkpt>
      <trkpt lat="44.04458" lon="6.21217">
        <ele>819.66</ele>
        <time>2017-12-23T14:32:10Z</time>
      </trkpt>
      <trkpt lat="44.04459" lon="6.21215">
        <ele>819.66</ele>
        <time>2017-12-23T14:32:11Z</time>
      </trkpt>
      <trkpt lat="44.04469" lon="6.2118">
        <ele>819.18</ele>
        <time>2017-12-23T14:32:32Z</time>
      </trkpt>
      <trkpt lat="44.04469" lon="6.21151">
        <ele>819.66</ele>
        <time>2017-12-23T14:32:50Z</time>
      </trkpt>
      <trkpt lat="44.04462" lon="6.21133">
        <ele>818.22</ele>
        <time>2017-12-23T14:33:02Z</time>
      </trkpt>
      <trkpt lat="44.0446" lon="6.21128">
        <ele>820.14</ele>
        <time>2017-12-23T14:33:05Z</time>
      </trkpt>
      <trkpt lat="44.04455" lon="6.2112">
        <ele>820.62</ele>
        <time>2017-12-23T14:33:14Z</time>
      </trkpt>
      <trkpt lat="44.04452" lon="6.21112">
        <ele>820.14</ele>
        <time>2017-12-23T14:33:20Z</time>
      </trkpt>
      <trkpt lat="44.04451" lon="6.21104">
        <ele>818.7</ele>
        <time>2017-12-23T14:33:26Z</time>
      </trkpt>
      <trkpt lat="44.04446" lon="6.21085">
        <ele>819.18</ele>
        <time>2017-12-23T14:33:37Z</time>
      </trkpt>
      <trkpt lat="44.04445" lon="6.21082">
        <ele>817.74</ele>
        <time>2017-12-23T14:33:39Z</time>
      </trkpt>
      <trkpt lat="44.04444" lon="6.21045">
        <ele>819.18</ele>
        <time>2017-12-23T14:33:59Z</time>
      </trkpt>
      <trkpt lat="44.04444" lon="6.21042">
        <ele>817.74</ele>
        <time>2017-12-23T14:34:01Z</time>
      </trkpt>
      <trkpt lat="44.04443" lon="6.21037">
        <ele>819.18</ele>
        <time>2017-12-23T14:34:04Z</time>
      </trkpt>
      <trkpt lat="44.04442" lon="6.21034">
        <ele>817.74</ele>
        <time>2017-12-23T14:34:06Z</time>
      </trkpt>
      <trkpt lat="44.04445" lon="6.21006">
        <ele>816.3</ele>
        <time>2017-12-23T14:34:27Z</time>
      </trkpt>
      <trkpt lat="44.04447" lon="6.20966">
        <ele>814.37</ele>
        <time>2017-12-23T14:34:47Z</time>
      </trkpt>
      <trkpt lat="44.04441" lon="6.20942">
        <ele>812.45</ele>
        <time>2017-12-23T14:35:03Z</time>
      </trkpt>
      <trkpt lat="44.04439" lon="6.20933">
        <ele>811.01</ele>
        <time>2017-12-23T14:35:10Z</time>
      </trkpt>
      <trkpt lat="44.0444" lon="6.20928">
        <ele>810.05</ele>
        <time>2017-12-23T14:35:14Z</time>
      </trkpt>
      <trkpt lat="44.0444" lon="6.20922">
        <ele>809.57</ele>
        <time>2017-12-23T14:35:18Z</time>
      </trkpt>
      <trkpt lat="44.04439" lon="6.20906">
        <ele>806.2</ele>
        <time>2017-12-23T14:35:31Z</time>
      </trkpt>
      <trkpt lat="44.04443" lon="6.20883">
        <ele>804.28</ele>
        <time>2017-12-23T14:35:48Z</time>
      </trkpt>
      <trkpt lat="44.0445" lon="6.20871">
        <ele>803.32</ele>
        <time>2017-12-23T14:36:00Z</time>
      </trkpt>
      <trkpt lat="44.04454" lon="6.20864">
        <ele>802.36</ele>
        <time>2017-12-23T14:36:06Z</time>
      </trkpt>
      <trkpt lat="44.04461" lon="6.20856">
        <ele>800.44</ele>
        <time>2017-12-23T14:36:15Z</time>
      </trkpt>
      <trkpt lat="44.04468" lon="6.20848">
        <ele>799.95</ele>
        <time>2017-12-23T14:36:22Z</time>
      </trkpt>
      <trkpt lat="44.04474" lon="6.20824">
        <ele>796.59</ele>
        <time>2017-12-23T14:36:42Z</time>
      </trkpt>
      <trkpt lat="44.04487" lon="6.2079">
        <ele>794.19</ele>
        <time>2017-12-23T14:37:05Z</time>
      </trkpt>
      <trkpt lat="44.04492" lon="6.20771">
        <ele>790.82</ele>
        <time>2017-12-23T14:37:19Z</time>
      </trkpt>
      <trkpt lat="44.04491" lon="6.2077">
        <ele>790.82</ele>
        <time>2017-12-23T14:37:20Z</time>
      </trkpt>
      <trkpt lat="44.04501" lon="6.20736">
        <ele>787.94</ele>
        <time>2017-12-23T14:37:41Z</time>
      </trkpt>
      <trkpt lat="44.04507" lon="6.20716">
        <ele>785.53</ele>
        <time>2017-12-23T14:37:56Z</time>
      </trkpt>
      <trkpt lat="44.04513" lon="6.20686">
        <ele>781.69</ele>
        <time>2017-12-23T14:38:15Z</time>
      </trkpt>
      <trkpt lat="44.04518" lon="6.20652">
        <ele>778.32</ele>
        <time>2017-12-23T14:38:36Z</time>
      </trkpt>
      <trkpt lat="44.04536" lon="6.20638">
        <ele>776.88</ele>
        <time>2017-12-23T14:38:53Z</time>
      </trkpt>
      <trkpt lat="44.04547" lon="6.20627">
        <ele>775.44</ele>
        <time>2017-12-23T14:39:00Z</time>
      </trkpt>
      <trkpt lat="44.04556" lon="6.20593">
        <ele>772.08</ele>
        <time>2017-12-23T14:39:22Z</time>
      </trkpt>
      <trkpt lat="44.04564" lon="6.20573">
        <ele>769.19</ele>
        <time>2017-12-23T14:39:38Z</time>
      </trkpt>
      <trkpt lat="44.04562" lon="6.20533">
        <ele>766.31</ele>
        <time>2017-12-23T14:40:01Z</time>
      </trkpt>
      <trkpt lat="44.04556" lon="6.20526">
        <ele>765.83</ele>
        <time>2017-12-23T14:40:06Z</time>
      </trkpt>
      <trkpt lat="44.04547" lon="6.20495">
        <ele>763.42</ele>
        <time>2017-12-23T14:40:30Z</time>
      </trkpt>
      <trkpt lat="44.04559" lon="6.20471">
        <ele>760.54</ele>
        <time>2017-12-23T14:40:47Z</time>
      </trkpt>
      <trkpt lat="44.04558" lon="6.20464">
        <ele>761.02</ele>
        <time>2017-12-23T14:40:51Z</time>
      </trkpt>
      <trkpt lat="44.04555" lon="6.20458">
        <ele>760.06</ele>
        <time>2017-12-23T14:40:54Z</time>
      </trkpt>
      <trkpt lat="44.0454" lon="6.2043">
        <ele>758.14</ele>
        <time>2017-12-23T14:41:12Z</time>
      </trkpt>
      <trkpt lat="44.04538" lon="6.20402">
        <ele>755.73</ele>
        <time>2017-12-23T14:41:33Z</time>
      </trkpt>
      <trkpt lat="44.0455" lon="6.20377">
        <ele>752.37</ele>
        <time>2017-12-23T14:41:55Z</time>
      </trkpt>
      <trkpt lat="44.04554" lon="6.20361">
        <ele>750.93</ele>
        <time>2017-12-23T14:42:09Z</time>
      </trkpt>
      <trkpt lat="44.0457" lon="6.20328">
        <ele>747.56</ele>
        <time>2017-12-23T14:42:29Z</time>
      </trkpt>
      <trkpt lat="44.04575" lon="6.20307">
        <ele>745.64</ele>
        <time>2017-12-23T14:42:41Z</time>
      </trkpt>
      <trkpt lat="44.04573" lon="6.20288">
        <ele>744.2</ele>
        <time>2017-12-23T14:42:54Z</time>
      </trkpt>
      <trkpt lat="44.04572" lon="6.20281">
        <ele>743.72</ele>
        <time>2017-12-23T14:42:58Z</time>
      </trkpt>
      <trkpt lat="44.04571" lon="6.20247">
        <ele>740.35</ele>
        <time>2017-12-23T14:43:17Z</time>
      </trkpt>
      <trkpt lat="44.04575" lon="6.20213">
        <ele>736.99</ele>
        <time>2017-12-23T14:43:39Z</time>
      </trkpt>
      <trkpt lat="44.04585" lon="6.20196">
        <ele>735.07</ele>
        <time>2017-12-23T14:43:47Z</time>
      </trkpt>
      <trkpt lat="44.04589" lon="6.20175">
        <ele>733.62</ele>
        <time>2017-12-23T14:43:58Z</time>
      </trkpt>
      <trkpt lat="44.04597" lon="6.20136">
        <ele>730.26</ele>
        <time>2017-12-23T14:44:22Z</time>
      </trkpt>
      <trkpt lat="44.04599" lon="6.20132">
        <ele>730.26</ele>
        <time>2017-12-23T14:44:25Z</time>
      </trkpt>
      <trkpt lat="44.04607" lon="6.20104">
        <ele>726.41</ele>
        <time>2017-12-23T14:44:43Z</time>
      </trkpt>
      <trkpt lat="44.04608" lon="6.20101">
        <ele>726.41</ele>
        <time>2017-12-23T14:44:45Z</time>
      </trkpt>
      <trkpt lat="44.04617" lon="6.20062">
        <ele>723.05</ele>
        <time>2017-12-23T14:45:08Z</time>
      </trkpt>
      <trkpt lat="44.04619" lon="6.2005">
        <ele>721.61</ele>
        <time>2017-12-23T14:45:15Z</time>
      </trkpt>
      <trkpt lat="44.04631" lon="6.20019">
        <ele>718.24</ele>
        <time>2017-12-23T14:45:35Z</time>
      </trkpt>
      <trkpt lat="44.04654" lon="6.19989">
        <ele>715.36</ele>
        <time>2017-12-23T14:45:59Z</time>
      </trkpt>
      <trkpt lat="44.04686" lon="6.1996">
        <ele>712.47</ele>
        <time>2017-12-23T14:46:23Z</time>
      </trkpt>
      <trkpt lat="44.04692" lon="6.19949">
        <ele>711.03</ele>
        <time>2017-12-23T14:46:41Z</time>
      </trkpt>
      <trkpt lat="44.04707" lon="6.19943">
        <ele>710.55</ele>
        <time>2017-12-23T14:46:55Z</time>
      </trkpt>
      <trkpt lat="44.04725" lon="6.19941">
        <ele>709.11</ele>
        <time>2017-12-23T14:47:10Z</time>
      </trkpt>
      <trkpt lat="44.04728" lon="6.19938">
        <ele>708.63</ele>
        <time>2017-12-23T14:47:14Z</time>
      </trkpt>
      <trkpt lat="44.04727" lon="6.19934">
        <ele>708.15</ele>
        <time>2017-12-23T14:47:17Z</time>
      </trkpt>
      <trkpt lat="44.04727" lon="6.19931">
        <ele>708.15</ele>
        <time>2017-12-23T14:47:18Z</time>
      </trkpt>
      <trkpt lat="44.04716" lon="6.19919">
        <ele>709.59</ele>
        <time>2017-12-23T14:47:31Z</time>
      </trkpt>
      <trkpt lat="44.04715" lon="6.19918">
        <ele>709.59</ele>
        <time>2017-12-23T14:47:32Z</time>
      </trkpt>
      <trkpt lat="44.04713" lon="6.19917">
        <ele>709.59</ele>
        <time>2017-12-23T14:47:33Z</time>
      </trkpt>
      <trkpt lat="44.04711" lon="6.19916">
        <ele>709.59</ele>
        <time>2017-12-23T14:47:34Z</time>
      </trkpt>
      <trkpt lat="44.0471" lon="6.19916">
        <ele>709.59</ele>
        <time>2017-12-23T14:47:35Z</time>
      </trkpt>
      <trkpt lat="44.04709" lon="6.19915">
        <ele>709.59</ele>
        <time>2017-12-23T14:47:36Z</time>
      </trkpt>
      <trkpt lat="44.04692" lon="6.19909">
        <ele>709.59</ele>
        <time>2017-12-23T14:47:51Z</time>
      </trkpt>
    </trkseg>
  </trk>
</gpx>